GFSCGP_sfc_rhum_000.txt.gz
RH
10 13 18 17 14 12 10 10 10 12 12 13 12 12 12 12 12 15 14 15 15 23 28 29 34 37 34 37 32 40 53 52 42 46 48 50 54 48 50 45 48 46 50 52
10 17 14 12 12 12 12 12 12 12 12 12 13 12 13 14 15 15 16 19 24 26 25 28 33 39 46 43 46 50 46 42 40 40 48 50 50 48 47 48 51 50 54 50
20 17 14 14 15 16 14 16 22 20 15 13 14 15 16 15 16 16 18 19 21 24 27 29 35 42 47 46 46 37 38 41 49 46 39 44 46 48 48 48 49 48 48 46
17 15 16 16 19 20 20 20 20 18 18 19 13 20 19 17 19 20 21 23 22 22 22 25 34 41 46 48 48 41 40 38 41 45 48 48 48 52 53 58 54 55 51 52
21 20 20 21 22 20 24 22 20 20 20 20 16 20 23 17 21 23 25 24 26 28 29 31 34 37 40 48 52 47 41 38 40 44 48 52 60 62 61 63 59 55 57 53
19 16 20 22 20 19 21 23 22 22 24 49 20 22 37 23 23 25 25 26 27 27 30 30 33 36 40 48 50 47 41 36 41 45 51 56 56 57 56 56 58 54 54 54
20 21 20 19 24 22 19 25 48 60 62 56 25 23 33 24 23 24 26 27 30 33 34 32 31 34 39 44 45 44 42 38 40 44 44 47 51 55 56 57 58 57 56 59
25 39 23 20 25 25 25 26 59 62 64 43 20 21 30 24 23 23 24 25 27 31 35 34 34 38 38 42 44 45 43 41 40 47 46 50 54 53 53 58 56 60 61 61
31 32 22 22 21 21 29 37 23 45 65 63 24 28 26 23 24 23 24 24 26 29 30 31 32 37 39 41 44 48 46 43 43 48 55 56 56 58 58 56 58 59 60 48
24 38 22 20 22 24 25 21 41 48 71 58 29 26 42 30 27 24 23 24 25 28 29 34 33 39 39 41 48 54 49 45 46 47 54 49 52 53 54 55 56 60 62 58
24 32 30 24 29 29 28 30 29 25 45 60 58 32 23 26 24 26 27 25 29 31 32 33 34 36 37 41 43 50 50 47 48 47 51 56 55 54 55 56 61 62 63 61
29 36 66 26 24 23 24 28 26 68 56 70 76 49 22 26 30 29 29 30 32 35 36 36 39 41 41 45 45 46 52 53 52 52 52 50 52 50 53 59 57 60 60 62
35 49 63 38 35 28 26 26 25 42 67 64 89 55 24 40 31 27 28 32 35 37 36 38 41 41 39 41 45 45 50 52 50 48 48 47 50 50 54 54 54 56 58 58
53 31 49 55 32 24 30 23 22 27 70 61 58 37 29 32 34 29 30 36 37 38 43 44 44 43 40 41 41 41 43 55 53 49 48 51 54 50 50 51 51 54 52 49
38 61 44 36 27 24 24 25 24 25 32 51 42 32 27 31 31 42 42 41 41 45 46 47 48 44 39 40 37 34 37 41 50 54 51 56 51 47 49 53 51 52 51 44
42 80 82 74 28 27 36 28 26 24 23 26 29 32 27 37 38 44 46 47 51 49 47 44 43 38 35 33 30 29 31 34 45 43 49 47 48 50 53 54 54 51 48 45
81 91 78 80 58 67 87 64 30 26 25 30 54 35 37 44 45 44 49 51 52 48 46 46 38 33 30 27 26 27 27 28 38 40 41 50 71 65 64 51 44 42 49 52
99 96 96 95 92 89 37 26 26 31 27 26 26 35 42 47 45 42 51 54 50 49 46 39 30 29 28 27 25 26 24 27 29 32 38 54 62 60 53 52 51 48 49 54
61 92 95 100 71 53 41 35 40 48 47 32 44 48 49 48 46 48 47 46 46 44 36 27 26 27 26 24 25 26 28 28 28 29 44 48 64 50 54 54 54 51 51 55
63 97 92 96 94 81 60 32 33 37 64 50 55 61 63 53 82 58 48 45 38 28 24 24 24 21 22 25 25 27 28 30 34 53 52 48 43 50 53 59 56 51 52 50
93 93 95 91 93 76 38 33 37 72 77 65 68 64 63 67 71 59 44 35 26 24 23 24 21 22 24 24 26 30 30 31 42 47 54 60 56 48 49 52 46 51 52 62
82 94 97 91 95 88 39 38 75 70 69 68 63 63 66 62 61 42 34 29 25 23 21 19 22 24 26 25 28 31 32 37 46 54 55 56 51 46 35 47 53 53 56 73
61 70 77 69 74 48 43 51 54 74 74 71 70 59 56 57 46 36 33 29 26 22 20 20 22 26 27 27 28 33 36 41 48 54 52 51 45 40 44 52 53 56 62 81
37 30 80 75 45 39 44 49 62 62 64 58 55 56 54 46 40 34 31 29 26 22 22 23 27 27 30 30 31 39 42 46 50 52 53 50 50 56 52 45 49 58 83 88
60 41 52 56 44 43 54 60 62 64 58 58 51 50 38 35 33 32 30 28 26 25 26 27 29 31 35 33 38 43 46 54 51 57 55 62 74 67 58 49 63 80 74 74
48 49 69 78 52 62 65 61 59 62 59 51 49 38 33 32 31 28 30 30 27 29 28 28 32 37 36 38 47 52 53 58 76 78 74 74 77 78 66 61 64 72 70 62

GFSCGP_sfc_rhum_003.txt.gz
RH
21 28 32 27 22 17 17 18 22 22 16 21 18 22 21 22 23 27 38 41 40 40 40 46 45 47 49 54 52 60 67 54 51 63 64 63 54 53 53 50 52 50 48 46
21 30 22 17 20 21 17 22 29 21 16 18 21 23 23 23 27 30 36 37 39 41 43 44 48 49 62 48 46 55 57 57 54 62 62 57 54 52 51 50 49 53 56 54
30 25 17 19 26 26 26 30 30 28 21 20 23 28 26 25 25 25 28 31 35 40 46 46 48 54 51 50 47 44 46 46 54 53 46 47 50 53 56 61 60 59 64 57
24 22 22 23 26 26 35 29 28 25 29 33 21 41 31 29 32 31 32 36 39 41 45 46 51 56 57 59 50 46 43 40 41 49 53 56 64 70 71 70 66 67 60 57
33 29 31 30 28 26 35 33 32 32 34 36 28 40 32 28 36 36 37 36 42 45 47 51 53 53 56 54 54 50 44 42 43 44 48 63 62 66 67 68 65 60 60 58
27 25 28 29 25 26 25 34 35 36 40 64 36 44 57 50 37 39 38 39 40 43 45 48 51 49 52 53 50 44 40 41 44 45 46 56 54 57 67 64 64 62 62 64
29 30 29 26 34 32 34 43 76 71 80 72 41 42 66 40 33 37 43 46 46 47 46 46 49 53 51 53 50 48 48 42 45 51 50 50 58 59 64 62 62 58 65 62
42 57 31 27 32 37 38 42 73 74 87 62 27 47 49 33 32 33 33 39 42 43 44 45 44 48 47 45 44 50 44 43 42 49 57 59 60 65 63 52 51 57 65 66
53 43 30 25 26 32 40 49 34 63 78 75 48 42 35 31 32 30 30 30 42 46 44 40 40 39 44 45 54 56 52 50 48 54 58 60 59 59 60 51 54 68 70 56
34 50 29 27 30 31 33 29 58 67 70 68 49 55 65 48 45 31 33 39 40 42 45 47 45 52 54 55 61 60 58 56 55 56 64 63 59 60 67 67 71 71 70 69
44 53 44 35 39 42 41 45 43 42 66 80 86 56 45 44 41 42 43 44 48 49 50 53 53 53 57 56 58 62 59 57 59 52 55 56 56 61 67 66 66 66 68 69
42 56 76 41 33 31 35 42 46 80 73 88 89 64 46 43 38 39 40 44 48 47 50 53 54 53 51 53 52 52 57 62 58 56 60 60 62 55 65 63 60 63 62 63
54 63 81 59 49 39 39 34 49 66 75 65 88 77 40 44 39 36 48 48 48 53 56 58 57 54 50 49 50 53 53 59 56 58 62 62 58 56 56 53 58 57 59 58
63 50 59 76 49 41 43 34 37 60 88 79 76 53 41 53 51 55 56 54 57 59 57 58 58 55 50 47 48 44 44 46 57 65 68 74 78 64 56 59 58 55 53 50
57 78 68 52 42 38 36 35 34 36 47 65 54 50 57 59 57 58 57 58 57 58 55 55 55 52 48 42 36 33 39 43 37 48 59 71 72 68 76 75 63 60 55 49
75 93 86 76 53 52 54 47 44 38 36 37 41 57 52 53 53 58 62 62 60 57 55 54 52 45 36 32 33 35 38 38 37 36 37 42 81 84 83 73 71 65 52 45
92 96 92 92 80 86 78 62 51 41 42 43 65 61 60 62 60 73 70 62 60 61 58 55 50 36 36 36 37 39 38 39 40 39 41 72 78 80 82 82 72 49 48 51
98 96 98 94 88 78 58 40 41 47 45 50 58 63 62 64 66 68 62 63 62 59 56 52 41 36 36 34 36 37 36 38 43 49 56 62 75 79 81 81 57 52 50 49
81 96 96 96 95 66 51 47 54 59 65 66 73 71 66 61 60 69 58 59 61 57 49 37 34 33 33 34 34 37 40 41 43 61 63 63 71 72 69 68 62 60 55 59
87 93 93 98 95 84 66 49 46 49 85 76 75 79 77 71 95 84 67 58 53 37 35 33 31 29 33 34 35 40 42 46 58 66 67 71 76 73 78 80 67 63 53 57
98 94 95 98 91 84 63 48 47 81 76 88 83 82 85 87 87 76 73 50 38 36 32 31 31 33 34 34 38 44 47 49 59 65 68 71 73 74 73 70 54 53 59 80
89 96 94 93 92 90 52 54 65 77 88 91 83 79 80 78 72 71 49 40 36 35 29 28 34 37 36 37 44 46 49 48 57 62 68 68 69 64 50 55 57 58 75 78
79 86 93 82 84 63 59 64 86 87 89 88 84 78 72 70 64 51 44 41 38 32 32 32 36 38 39 42 43 48 54 59 66 68 68 67 60 54 53 59 63 70 80 91
60 56 84 76 61 56 71 79 79 81 84 81 78 66 66 68 52 46 44 40 39 36 37 36 37 40 46 46 42 55 58 62 68 71 72 69 71 74 68 61 68 80 95 95
73 63 63 75 63 70 77 81 79 75 73 71 59 61 59 46 44 41 43 41 40 38 37 39 45 49 47 47 54 56 57 62 68 76 76 82 87 83 76 68 74 92 77 80
69 67 84 85 71 78 89 81 72 70 68 67 69 48 41 40 41 41 43 44 45 46 48 47 50 51 49 61 69 69 68 68 82 84 93 94 94 92 85 81 87 77 73 68

GFSCGP_sfc_rhum_006.txt.gz
RH
25 27 29 26 23 20 20 24 26 26 18 18 26 33 33 43 48 48 52 57 55 53 49 53 58 56 58 59 64 70 69 62 53 71 76 79 58 57 56 57 60 61 60 63
28 32 23 21 25 27 27 28 30 24 20 18 28 32 38 42 46 45 50 54 55 53 49 50 56 63 66 58 67 70 63 61 64 75 76 67 64 62 62 65 56 63 66 60
32 24 22 26 29 30 37 33 34 31 27 22 27 34 39 36 37 37 43 50 53 54 54 53 56 61 60 55 55 49 51 54 61 58 58 61 60 63 67 64 66 59 60 61
26 25 27 31 30 34 44 35 31 30 32 25 28 47 39 43 43 44 50 56 55 56 53 53 57 60 59 58 54 48 46 45 48 52 56 61 68 69 74 76 69 60 61 61
35 34 34 33 34 32 37 36 36 36 39 41 36 46 42 40 45 48 53 55 60 58 58 60 60 57 57 56 55 52 48 47 48 49 54 66 63 67 75 71 62 59 62 61
30 31 31 34 31 32 31 40 43 45 48 64 43 52 56 53 44 45 48 52 54 59 61 59 58 55 55 57 53 50 44 44 49 51 54 61 61 66 68 62 61 62 66 64
35 35 30 30 36 33 34 53 74 70 78 71 46 61 63 47 40 46 53 53 52 55 62 61 58 57 56 62 53 52 51 48 48 56 62 65 67 64 59 57 55 54 60 65
48 58 35 28 37 40 42 48 72 71 79 60 42 61 52 41 45 44 42 49 49 50 56 60 59 57 56 59 61 59 55 54 58 61 63 64 63 62 57 55 61 68 75 76
53 48 35 31 31 38 44 45 40 64 80 72 60 49 40 36 36 33 33 39 52 55 55 54 59 59 59 59 65 57 51 49 56 59 64 64 62 62 65 66 68 73 76 70
46 49 35 29 34 35 29 34 58 69 66 70 58 60 58 52 45 42 52 56 57 58 57 58 59 63 64 64 60 59 58 55 56 61 64 60 62 64 74 74 75 72 72 72
53 48 44 43 43 46 44 48 51 53 72 77 84 62 49 53 48 55 57 56 58 61 62 61 60 62 59 53 53 58 63 64 63 62 63 65 66 67 72 73 67 68 69 70
52 58 75 47 36 35 39 48 53 75 70 90 89 64 44 49 48 51 52 53 54 59 60 62 60 56 54 54 55 52 59 61 62 66 68 70 70 66 70 70 68 71 66 68
51 62 77 62 53 42 42 42 59 66 75 66 82 65 45 54 51 53 59 60 65 65 64 64 61 56 53 50 46 42 45 47 50 51 66 74 73 80 70 68 68 62 63 59
64 66 61 75 57 49 45 41 56 59 83 75 74 50 62 65 66 65 68 69 69 65 62 61 60 57 49 41 39 40 44 48 46 45 54 58 62 73 72 70 75 78 81 80
62 72 69 54 53 49 46 48 48 47 58 66 57 59 69 67 69 68 68 65 61 62 59 57 59 56 41 39 40 41 45 46 47 48 50 67 86 81 78 74 80 83 86 78
80 81 85 71 66 69 59 52 53 49 42 46 67 76 64 64 71 73 68 66 64 60 61 60 56 44 38 39 40 40 42 45 49 50 64 75 82 81 84 84 86 91 90 55
90 93 83 80 89 83 70 58 56 50 57 49 63 72 68 76 76 76 71 66 64 64 61 58 56 38 40 39 38 38 40 44 49 54 65 69 81 84 88 89 92 92 71 56
98 95 95 82 77 64 58 49 47 71 70 69 71 71 68 75 78 71 65 65 65 61 57 55 38 36 37 37 36 39 41 44 51 68 66 70 74 79 82 88 85 86 61 60
78 92 99 79 92 56 50 50 53 55 86 74 76 75 70 74 72 75 62 60 60 58 46 41 38 36 37 36 37 40 44 46 50 66 70 72 76 79 81 82 87 90 75 61
89 88 84 99 70 61 57 57 52 51 80 78 79 81 78 71 94 83 71 69 58 41 40 36 34 34 36 35 38 43 47 52 56 69 71 73 78 81 82 86 90 87 59 70
99 96 94 98 92 81 56 55 55 76 66 85 83 86 84 87 83 73 80 68 43 41 36 35 36 36 37 39 44 48 52 54 56 66 70 74 75 77 79 84 70 59 74 80
84 94 98 98 98 85 57 56 66 69 91 89 87 84 85 81 76 76 62 46 42 36 36 36 40 42 45 45 48 49 54 55 61 67 70 71 71 64 53 64 65 70 76 83
69 74 86 79 81 61 59 62 74 86 90 92 87 81 76 76 75 52 49 45 41 39 39 39 43 46 47 49 49 52 56 62 67 72 73 73 71 70 71 70 71 79 84 94
64 70 89 81 64 67 64 88 88 86 88 87 81 78 70 72 55 49 46 46 43 41 41 43 48 54 59 57 54 60 63 65 71 74 76 80 82 84 81 72 74 80 96 96
69 67 70 80 69 84 84 86 88 84 82 82 75 74 68 47 47 46 46 48 47 47 49 53 60 65 62 61 69 71 72 77 73 77 79 83 93 86 84 74 79 89 75 81
75 66 83 73 64 68 77 87 81 82 79 76 70 44 41 42 46 46 52 53 53 59 59 61 64 68 67 71 70 75 86 87 86 85 89 94 97 96 88 84 82 77 75 74

GFSCGP_sfc_rhum_012.txt.gz
RH
28 27 29 29 25 18 22 24 26 30 29 53 67 72 71 79 79 79 81 81 78 77 73 81 83 88 83 90 92 89 89 87 84 84 89 85 85 88 83 73 67 62 58 60
29 32 29 32 32 31 30 32 35 36 38 54 62 60 58 59 72 79 78 78 76 72 68 65 72 80 80 87 92 88 83 75 77 82 87 88 84 81 75 67 65 66 66 64
32 31 31 35 35 35 42 35 38 37 47 51 54 59 58 55 66 67 69 71 68 70 70 63 62 66 79 81 72 64 66 65 70 78 74 70 72 77 73 74 64 67 66 68
39 36 33 34 34 39 43 40 36 43 48 56 49 80 63 67 73 72 74 73 76 66 60 55 54 53 55 60 58 56 56 55 56 58 59 59 66 73 84 72 65 68 70 71
43 40 37 35 39 38 43 39 37 39 43 44 51 68 62 65 75 73 75 73 75 69 61 52 56 54 61 59 60 61 57 57 58 60 69 77 80 86 74 68 64 63 70 67
41 37 36 39 38 37 38 44 50 57 55 62 51 58 66 72 66 70 68 68 70 72 71 63 63 59 58 63 64 64 67 68 69 69 72 73 77 66 64 68 71 71 72 76
40 40 36 38 42 41 46 50 71 67 77 74 57 61 57 52 56 60 63 67 70 80 76 73 67 62 70 74 71 66 63 63 63 61 60 62 61 58 64 67 75 73 79 83
53 56 40 33 42 44 51 51 71 64 84 68 55 68 58 50 48 53 58 64 69 72 72 68 72 72 65 61 60 61 59 61 62 66 66 66 65 72 74 79 80 85 88 88
54 51 39 37 38 43 51 53 51 74 81 75 71 58 54 63 61 59 59 62 73 77 77 75 73 72 71 71 70 64 62 64 67 70 75 78 80 79 83 83 87 90 87 82
50 47 44 36 41 40 44 43 56 72 63 72 71 72 71 67 64 60 63 69 74 74 75 74 68 66 67 69 73 73 66 58 55 57 70 68 68 70 76 84 85 87 86 81
51 46 46 45 48 51 48 53 62 62 75 74 86 73 59 59 57 60 67 72 74 73 76 68 64 62 58 52 54 50 48 43 49 54 61 62 66 71 77 83 87 85 79 77
59 61 74 50 46 51 48 54 51 66 58 89 88 64 53 60 55 64 73 71 76 74 70 65 61 56 44 43 41 47 45 42 48 52 58 62 68 72 77 84 85 82 79 78
51 65 79 58 49 45 51 62 61 65 80 79 84 63 60 69 70 70 79 78 76 74 70 67 62 52 43 43 44 42 43 41 45 48 54 63 71 78 78 74 74 77 77 80
62 66 58 64 56 58 53 57 58 55 78 72 76 54 70 70 73 81 82 80 77 73 68 67 61 50 45 42 41 42 44 48 48 48 55 66 73 82 85 83 80 80 83 88
57 62 70 73 70 61 54 47 62 56 57 60 58 58 51 67 73 80 79 78 75 71 67 66 63 54 39 42 44 45 47 49 50 51 54 65 76 80 86 89 91 92 92 85
69 76 77 79 76 72 62 51 53 60 58 64 66 63 64 81 83 83 78 76 75 70 62 58 58 46 40 42 44 44 45 48 51 54 56 66 75 78 82 88 89 93 94 94
78 90 64 53 82 68 56 52 52 54 56 55 71 55 83 86 82 81 83 76 74 68 56 56 55 53 44 44 46 44 44 48 53 57 58 68 77 80 82 85 89 92 93 91
96 90 83 78 74 52 42 53 55 58 62 66 72 74 78 81 85 80 77 76 75 65 55 56 62 60 46 47 43 46 46 49 54 57 61 72 78 81 84 88 90 91 92 94
75 90 96 75 79 50 35 63 70 65 54 74 72 82 82 84 78 80 74 72 72 69 65 63 56 47 44 44 42 45 49 52 54 58 62 70 80 83 87 89 89 92 94 86
83 85 76 94 62 51 44 53 60 55 75 74 74 81 85 80 94 72 74 72 68 64 56 44 42 40 41 43 48 51 54 58 61 63 64 74 78 83 84 82 85 88 69 70
99 98 82 99 82 67 50 59 57 69 62 85 75 79 89 85 80 75 77 74 69 50 39 42 42 45 49 51 55 57 63 65 62 66 72 75 77 79 77 80 80 75 77 84
92 95 97 96 92 59 54 60 65 66 76 81 83 83 79 80 77 80 76 61 42 40 41 43 47 51 54 57 63 69 71 68 73 76 79 80 81 75 72 84 77 80 90 84
77 69 79 68 71 54 57 67 65 69 68 82 84 84 75 84 81 79 62 45 43 40 44 47 52 55 57 64 69 75 76 79 83 89 88 85 83 78 80 86 77 81 86 93
78 70 84 75 57 64 65 61 68 75 75 80 85 84 82 83 84 69 48 46 43 43 46 51 55 59 67 70 72 82 80 83 92 93 90 87 85 82 82 75 72 81 97 96
78 75 75 82 71 73 67 76 70 78 84 86 86 84 81 81 68 51 46 48 47 48 55 56 61 69 73 75 82 85 85 90 95 96 97 95 94 95 87 72 78 86 77 82
78 69 83 80 56 58 57 58 81 85 87 88 86 86 76 67 51 48 54 53 55 59 59 59 65 75 77 84 91 91 91 93 96 95 93 87 89 97 94 81 83 77 80 79

GFSCGP_sfc_rhum_015.txt.gz
RH
25 22 21 21 17 14 17 18 18 24 35 49 59 57 57 59 57 59 59 59 60 62 71 74 80 82 80 79 78 77 83 74 67 56 68 67 68 60 51 44 49 49 47 48
25 29 24 27 27 25 25 27 33 36 40 46 49 56 56 56 62 60 60 61 60 65 68 72 73 73 74 74 72 74 72 59 51 57 59 58 57 54 46 46 50 48 51 49
30 25 28 28 30 33 33 30 32 36 44 42 43 48 58 57 59 61 62 60 61 65 70 69 70 74 80 80 70 55 54 54 54 57 52 52 56 55 50 44 43 47 49 46
33 30 29 28 32 30 36 30 38 44 37 38 37 30 54 61 64 62 61 60 60 59 57 55 56 59 58 57 56 50 49 46 47 50 48 53 48 49 53 46 43 42 50 48
36 35 31 33 32 34 36 34 34 31 33 34 39 35 46 59 64 61 58 58 56 52 48 44 44 45 44 49 50 52 52 50 52 54 56 53 57 52 46 47 52 53 53 53
34 29 30 29 35 33 40 38 41 44 40 43 38 36 42 60 56 56 55 56 54 49 48 46 46 46 49 51 56 56 48 48 50 50 53 56 54 50 46 50 52 52 53 53
35 34 30 33 33 34 35 38 50 55 61 51 46 46 37 40 46 48 53 51 52 51 52 52 49 49 54 56 54 49 45 47 48 50 50 52 52 53 55 57 56 58 54 55
38 36 30 30 32 35 40 38 59 60 63 49 46 53 36 40 38 44 44 47 53 54 56 53 54 51 50 52 49 48 46 49 51 54 53 56 57 52 46 47 48 49 52 56
48 41 30 32 31 33 40 39 43 61 64 57 45 43 38 48 43 48 51 52 53 54 56 54 53 53 51 49 53 53 46 42 43 46 44 46 44 44 45 50 52 50 59 58
44 44 36 31 33 36 34 38 46 51 59 54 42 51 40 54 48 50 53 53 54 56 58 56 53 56 55 53 57 51 37 34 36 37 41 40 43 45 46 47 46 50 56 63
38 44 43 38 39 39 40 44 53 48 56 47 52 36 45 45 45 49 49 51 56 59 59 56 50 51 50 54 43 37 41 31 34 35 41 44 44 46 47 46 49 51 59 60
46 56 60 39 37 40 37 42 43 53 50 67 67 41 38 47 45 49 49 56 57 58 57 49 47 45 44 38 35 44 33 32 34 37 41 42 44 45 49 50 52 57 58 60
48 57 64 47 36 37 39 48 49 56 67 69 85 39 43 55 52 48 49 58 62 60 53 49 47 37 35 38 38 32 35 34 34 34 34 39 44 50 52 52 55 59 61 61
59 54 54 53 42 45 46 52 46 45 60 58 62 40 37 49 55 59 61 62 59 57 54 49 47 39 34 35 34 40 43 38 35 34 33 41 48 52 55 56 57 61 63 68
51 57 56 59 58 51 41 45 49 41 45 54 45 46 36 41 49 56 62 62 60 58 55 53 49 41 33 38 41 41 37 38 38 37 37 43 49 55 56 58 59 63 66 66
59 67 63 69 63 60 53 44 44 50 51 45 48 48 39 48 55 64 66 63 61 58 53 50 49 43 39 34 40 39 37 37 38 39 42 44 50 55 58 60 64 64 64 63
66 81 60 56 64 54 59 51 44 47 47 45 55 39 58 62 64 59 65 62 60 58 54 50 51 46 38 37 41 37 35 36 39 42 43 46 51 56 60 59 56 58 63 63
82 72 69 73 73 59 37 46 42 44 45 42 47 48 54 58 64 62 58 61 61 58 52 50 50 49 46 39 36 38 34 36 41 43 44 46 50 56 59 59 56 59 61 69
63 76 82 80 60 46 30 41 56 58 39 46 46 52 66 69 64 62 60 58 58 57 51 46 46 46 38 34 35 34 37 40 42 42 45 46 52 59 58 58 57 58 60 56
69 77 72 78 67 61 42 33 52 44 62 45 56 67 74 64 79 51 60 62 61 56 51 47 38 34 33 37 39 41 40 44 46 52 52 53 57 59 59 59 57 57 57 51
97 94 80 82 80 61 42 45 48 59 52 61 64 65 72 69 63 57 63 65 54 51 36 40 34 36 40 43 42 42 48 48 53 54 55 55 57 58 60 59 58 57 54 60
74 85 86 85 78 65 45 51 66 60 61 60 67 66 72 64 67 64 66 56 45 36 36 35 40 44 46 44 47 47 49 53 55 58 61 64 62 62 58 62 59 56 60 67
70 69 72 62 66 50 48 61 55 58 57 57 67 64 64 73 65 68 61 44 37 35 35 36 38 43 46 48 50 52 56 59 64 67 70 69 68 63 60 62 60 57 58 65
69 62 74 73 52 56 54 51 53 52 59 57 61 61 70 68 70 67 46 41 37 35 37 40 39 42 48 52 56 62 66 66 71 72 74 73 70 74 66 62 53 55 64 67
69 67 70 73 63 58 52 57 56 56 64 68 67 71 72 71 72 54 44 45 45 51 60 42 44 49 51 58 62 66 67 72 73 74 64 67 76 71 75 76 58 59 56 62
70 65 77 77 50 53 50 44 54 64 66 69 75 78 74 66 58 46 49 52 58 71 49 46 50 55 58 64 70 70 70 76 80 80 74 82 82 78 78 77 67 76 78 80

GFSCGP_sfc_rhum_018.txt.gz
RH
20 16 15 13 11 10 10 11 12 14 25 22 22 22 27 32 35 37 34 36 37 37 42 49 54 54 53 57 60 65 70 72 68 52 48 46 47 42 39 35 40 40 38 39
20 18 18 19 15 13 13 13 18 23 27 24 24 28 30 31 35 36 36 36 37 41 45 54 57 56 57 59 60 62 59 58 46 40 40 40 41 38 36 37 41 38 38 35
17 20 21 19 17 17 19 18 23 20 26 25 23 26 32 38 37 39 40 36 38 41 48 54 57 57 60 62 61 53 49 43 42 44 40 41 42 39 36 34 33 34 39 36
23 22 20 19 21 22 22 21 22 27 22 20 24 17 31 36 39 40 43 42 43 46 49 50 51 52 53 52 44 41 41 42 40 36 37 42 36 37 40 36 35 34 42 42
27 23 21 20 24 24 25 24 23 22 20 23 24 20 29 37 39 41 44 46 48 48 44 41 39 40 38 45 44 42 38 36 38 40 42 39 41 38 36 37 42 42 40 41
24 21 21 23 25 23 25 25 25 24 23 32 21 23 17 32 31 37 42 44 46 42 37 33 33 34 36 39 42 42 38 38 38 39 41 43 43 38 35 38 34 28 27 26
23 24 21 23 25 27 25 24 31 37 39 36 31 28 18 21 30 31 40 39 41 38 34 33 34 33 37 42 43 40 37 38 38 38 35 37 38 37 30 28 25 28 24 25
21 33 22 24 25 22 25 24 32 35 39 26 33 27 18 26 25 30 33 32 36 36 35 34 34 36 39 42 40 39 37 35 33 33 33 30 27 26 22 26 28 28 29 30
27 27 23 26 24 25 29 29 29 42 50 45 21 24 23 30 29 31 33 32 34 34 35 36 38 39 41 41 43 40 32 28 29 33 34 30 31 30 31 34 33 30 33 29
29 34 26 28 25 27 26 26 35 35 49 39 21 24 17 34 33 32 34 35 34 31 35 38 39 42 39 39 42 37 28 28 32 37 32 26 29 30 32 33 34 34 35 35
25 28 34 31 29 26 30 29 30 28 39 30 27 15 25 28 30 34 34 33 33 34 37 40 40 40 39 39 34 29 28 33 40 29 29 32 30 32 32 33 34 34 38 37
31 33 46 31 29 29 27 27 24 32 35 47 54 22 24 31 30 29 31 31 32 36 38 40 39 40 40 37 30 30 31 37 27 26 28 30 29 28 32 34 34 36 39 40
34 39 46 38 32 30 30 29 27 35 46 45 68 22 25 30 32 30 31 30 35 40 41 40 38 37 37 33 31 30 39 36 29 23 23 26 28 31 34 35 36 37 39 40
47 38 38 41 29 29 36 34 28 26 40 31 36 16 21 23 27 28 32 32 37 43 43 38 38 35 32 31 30 36 48 35 28 23 23 26 32 33 35 37 37 40 41 44
38 42 38 34 36 34 30 29 30 27 27 37 20 21 13 17 20 22 31 36 39 43 42 40 38 34 30 29 31 54 32 35 28 27 25 29 33 35 36 41 39 43 45 43
42 50 49 51 43 38 38 28 26 27 25 28 22 25 17 19 24 29 37 40 41 42 41 39 38 35 31 28 42 33 34 32 28 28 29 30 34 35 39 40 44 43 41 42
51 62 49 41 45 45 72 42 27 25 27 29 34 24 22 29 31 30 35 40 41 41 40 40 38 36 31 32 33 33 31 29 30 28 29 31 35 38 39 37 38 40 43 45
63 53 58 66 70 82 21 27 26 26 24 20 23 20 24 25 32 36 32 36 41 39 40 39 37 36 33 28 30 30 26 27 29 31 32 32 33 35 35 38 40 44 43 45
41 52 75 92 45 31 15 24 28 36 22 20 22 20 24 40 43 38 38 37 39 40 39 38 35 35 41 33 30 28 26 27 30 29 28 30 37 37 36 39 44 45 45 46
46 54 55 72 89 88 29 29 38 35 37 27 32 34 41 43 57 22 37 41 42 39 38 37 35 34 30 28 30 29 28 31 27 33 34 35 35 37 40 43 45 47 47 44
79 83 86 70 91 46 26 27 38 42 34 34 40 39 45 46 34 39 38 42 40 39 39 36 31 28 31 31 31 31 28 26 32 36 36 35 37 42 44 46 48 48 47 46
59 74 90 76 95 78 29 40 51 42 41 39 38 41 48 42 47 46 45 44 43 41 35 29 31 34 37 35 32 22 24 33 36 39 40 41 45 47 43 50 50 51 48 51
54 50 53 44 44 33 33 35 36 42 44 41 43 36 44 48 47 45 47 47 43 34 29 30 37 42 39 29 28 28 31 41 44 46 47 49 51 50 48 51 52 50 47 53
47 45 56 54 30 32 33 32 32 32 37 34 34 37 39 46 42 47 47 41 38 30 30 29 56 65 35 34 37 38 42 45 49 51 51 50 52 57 59 61 55 52 53 56
48 48 49 51 39 34 31 32 34 34 37 40 39 44 50 51 50 50 44 38 32 44 61 75 60 33 33 39 40 40 47 51 50 50 52 53 55 58 58 60 66 63 49 54
45 43 60 57 36 42 37 36 40 45 45 49 53 52 56 56 56 48 39 40 61 84 83 57 42 39 38 50 53 54 54 57 66 66 59 58 62 62 62 61 62 77 73 77

GFSCGP_sfc_rhum_021.txt.gz
RH
20 20 21 15 14 11 10 10 8 9 11 10 9 13 14 16 18 22 21 24 27 29 29 35 37 37 35 41 47 66 71 73 72 55 53 52 47 42 38 34 38 38 37 37
19 20 14 11 11 10 10 10 13 12 12 15 11 12 14 16 18 19 20 22 24 27 33 38 41 42 43 46 50 63 60 63 54 43 40 39 39 34 32 35 40 36 37 36
22 19 17 14 12 12 12 12 16 14 15 14 13 16 20 20 20 24 22 22 23 27 35 41 44 46 49 53 58 55 53 49 40 39 38 38 37 38 34 35 33 36 39 37
36 19 17 13 14 13 17 16 14 16 18 18 13 18 18 22 24 26 28 27 27 28 32 40 44 48 51 52 49 43 42 39 41 35 31 34 31 34 38 36 36 35 38 40
19 18 15 16 18 17 28 18 18 16 17 20 17 15 44 24 23 26 27 28 29 32 37 40 43 42 42 43 42 41 39 33 33 35 38 36 39 38 35 36 36 34 30 27
39 16 16 17 19 17 18 20 20 17 15 27 15 17 23 23 20 23 28 31 34 38 38 33 33 35 38 39 41 40 34 34 36 38 41 43 41 36 32 30 26 24 23 22
19 17 18 17 20 19 16 20 29 30 34 33 18 18 16 11 18 18 30 33 38 37 33 29 31 31 35 40 41 38 35 37 38 37 35 36 35 30 29 26 24 27 24 25
22 29 18 17 19 18 20 18 29 31 31 25 20 19 13 17 15 18 25 30 35 34 30 28 28 30 34 39 38 36 35 35 33 33 30 29 30 32 27 26 28 27 27 28
20 23 18 18 18 16 19 25 19 29 33 36 17 11 14 21 21 21 26 30 34 31 28 28 29 32 35 38 39 40 35 30 29 30 35 36 41 30 30 31 32 29 30 26
18 24 19 22 20 21 22 18 28 24 36 35 15 15 11 23 22 24 27 30 31 28 27 28 29 35 36 37 41 40 32 29 32 35 37 41 36 28 30 32 32 31 32 33
16 20 27 25 24 18 25 23 22 22 32 36 28 17 15 14 19 23 25 27 29 29 29 30 33 34 36 37 38 35 29 32 35 33 37 42 30 30 31 32 32 31 34 33
19 21 36 25 22 21 21 22 23 38 31 35 45 24 15 18 19 21 23 24 26 27 26 29 33 36 36 39 35 31 32 34 32 30 31 29 29 27 29 32 32 32 34 34
26 26 39 31 27 23 23 20 20 21 37 32 57 25 15 18 19 18 21 23 25 27 27 29 33 36 36 38 34 31 34 34 29 30 27 25 28 28 30 32 32 32 33 35
43 26 30 37 27 22 30 22 20 25 40 34 30 17 14 15 16 15 19 20 22 26 28 30 34 35 36 37 32 31 35 36 37 29 21 24 27 30 32 32 33 35 34 37
33 38 28 24 25 23 21 19 21 21 22 34 23 14 10 10 12 13 15 19 20 26 30 33 36 34 34 35 32 30 36 42 34 25 23 26 27 30 32 34 34 36 38 37
32 41 41 46 28 28 28 21 17 16 18 16 15 16 11 13 11 16 16 21 23 26 30 33 34 32 33 32 31 30 42 38 31 28 28 27 28 30 34 33 37 37 36 35
42 56 47 35 33 35 62 40 24 17 16 18 27 18 13 17 19 19 18 22 25 27 30 33 33 33 32 30 30 30 37 30 30 28 26 27 29 31 32 30 29 32 36 39
60 50 51 52 69 80 17 17 15 19 16 13 14 14 13 15 20 22 21 22 26 28 29 31 31 33 32 30 28 35 27 29 29 28 29 29 30 26 27 29 30 34 38 41
32 47 59 89 39 26 18 14 20 23 20 15 18 15 14 20 29 26 23 24 24 26 28 30 30 31 32 30 29 29 30 26 31 31 27 24 26 29 30 30 33 37 40 43
37 51 51 56 86 88 33 24 26 25 29 19 19 21 20 25 43 22 25 24 25 25 27 30 30 32 32 31 28 28 36 39 28 26 25 26 27 28 30 34 39 40 43 42
69 76 80 64 82 47 21 22 28 37 41 29 27 25 28 30 28 36 31 25 26 26 28 31 33 34 33 27 33 37 34 38 25 28 28 28 29 31 35 39 40 44 45 46
54 67 84 68 96 78 21 28 40 41 30 27 30 29 37 36 34 32 34 32 30 31 33 34 34 30 31 31 46 55 44 26 31 36 36 35 34 37 38 44 46 46 46 53
50 42 50 39 43 29 24 25 23 28 34 33 33 30 31 34 33 31 34 36 35 35 32 30 29 38 55 66 61 34 30 38 41 44 43 40 41 42 44 48 52 52 49 55
35 33 46 43 23 22 23 23 25 26 30 29 29 32 34 37 38 38 37 39 36 29 28 32 51 73 79 52 32 35 44 49 46 46 44 46 50 49 47 44 47 55 58 60
38 36 36 39 29 24 24 27 32 34 36 36 35 39 44 47 43 42 43 38 32 38 57 70 70 55 42 41 46 48 49 49 48 53 54 55 64 60 53 47 52 60 58 65
34 32 55 54 38 46 36 37 47 46 49 48 49 48 44 45 46 41 36 40 64 78 61 56 61 54 48 54 53 51 54 62 67 66 65 69 63 57 53 52 55 70 77 80

GFSCGP_sfc_rhum_024.txt.gz
RH
19 23 22 26 21 15 15 16 13 10 10 12 13 13 12 14 17 23 27 28 31 32 31 33 38 38 38 51 65 69 84 89 77 86 82 69 73 64 62 51 55 54 53 51
19 26 19 17 16 15 13 15 12 10 10 11 9 10 12 13 17 20 22 26 30 30 31 38 40 45 48 54 69 77 80 84 73 71 66 60 57 59 52 56 56 53 54 52
29 32 28 17 14 14 14 16 19 13 10 8 21 12 14 12 15 16 19 19 23 27 36 40 44 50 55 69 72 70 70 70 66 62 51 52 51 57 53 56 56 55 53 51
38 24 26 16 17 12 21 20 18 20 17 19 19 32 49 36 17 16 19 21 23 24 32 38 44 50 75 72 74 65 63 58 52 53 54 56 51 54 58 59 59 54 52 50
42 19 17 18 24 20 30 21 22 16 16 32 33 34 33 36 33 24 25 27 27 27 32 40 44 58 61 63 65 60 54 49 48 49 55 57 59 60 58 58 51 46 48 42
19 16 21 27 18 18 20 22 20 16 18 60 28 43 30 32 34 58 23 26 28 31 36 38 43 48 50 54 58 59 47 43 48 53 59 62 61 55 51 50 50 44 44 44
22 16 14 20 16 15 14 18 34 59 67 55 16 19 36 26 46 66 62 27 30 36 40 43 45 45 48 54 56 52 43 46 52 55 53 55 50 52 54 50 47 44 46 48
23 42 16 14 16 43 38 17 42 83 89 38 20 23 16 20 19 28 27 30 36 41 43 39 42 44 46 50 49 46 43 46 46 48 46 47 47 50 49 48 42 46 47 50
50 37 27 16 14 15 18 24 18 38 44 46 22 12 11 17 18 16 29 33 40 40 37 35 36 41 44 47 51 52 45 42 42 44 50 53 52 51 52 46 45 50 48 37
73 83 38 19 16 17 19 15 32 29 50 46 22 17 19 24 20 20 27 34 38 37 33 32 32 41 42 46 51 55 48 41 41 45 54 49 49 50 49 48 47 44 48 48
20 36 26 23 22 16 24 24 20 19 38 63 57 25 17 17 17 22 26 32 36 37 33 32 32 37 41 45 47 51 43 37 41 46 50 54 50 48 46 48 46 45 48 48
18 23 49 22 17 17 19 25 21 65 46 57 70 37 16 18 16 22 23 23 31 33 32 31 33 38 41 44 46 47 43 38 44 44 45 47 48 42 48 46 44 46 47 49
24 30 48 29 23 21 23 19 17 24 52 57 78 42 15 16 16 17 22 23 27 31 31 31 34 38 40 43 47 44 42 42 41 38 38 39 44 43 45 43 46 45 48 48
44 27 30 48 28 25 32 24 18 22 68 61 46 22 15 16 17 16 20 22 23 29 29 29 34 38 41 43 46 42 41 46 40 39 39 38 45 47 44 45 47 48 50 50
31 38 29 22 20 23 26 22 19 20 25 41 33 21 15 13 15 15 17 20 20 20 26 28 34 39 40 44 45 40 41 44 47 47 39 43 41 40 43 48 49 50 53 49
31 49 49 53 29 26 29 23 21 18 16 17 17 18 12 13 16 18 18 16 22 21 21 26 32 38 40 40 43 40 40 45 50 48 43 38 39 39 46 49 51 53 53 51
46 72 69 62 34 39 57 44 26 20 18 19 28 22 16 15 15 21 22 20 23 24 25 28 36 38 42 39 42 42 39 48 51 43 38 38 40 42 48 41 39 42 50 54
69 68 74 78 76 73 22 16 15 18 16 13 12 14 14 22 22 21 19 23 25 27 28 31 34 38 39 38 38 40 34 43 44 39 37 41 41 38 38 43 42 48 52 57
37 67 79 97 59 35 23 17 20 22 23 18 19 18 16 20 23 26 23 27 28 30 29 30 32 36 38 38 38 36 40 37 36 43 46 43 36 37 40 41 48 52 55 59
35 64 79 73 90 86 39 23 21 21 43 23 24 28 27 23 64 39 34 30 32 26 26 28 32 34 38 40 36 39 41 49 52 47 40 39 36 42 46 49 54 56 57 55
81 85 90 78 94 69 23 22 24 50 57 32 31 31 34 38 43 41 38 36 30 27 29 33 37 38 35 36 41 50 58 61 60 54 42 42 46 47 48 53 55 59 61 64
69 84 95 86 100 89 21 26 50 49 41 35 34 36 44 42 41 39 33 31 34 32 35 34 39 49 56 58 63 67 64 51 52 47 50 51 52 47 42 60 63 64 65 76
58 53 70 57 67 36 25 30 26 31 36 36 38 34 36 42 37 35 36 39 38 33 35 35 57 72 70 66 63 62 53 45 51 60 65 61 53 49 52 60 63 66 72 79
34 32 59 56 25 23 23 23 24 28 37 34 35 38 42 47 49 44 42 41 34 33 40 59 68 68 65 53 51 52 56 56 62 67 62 55 63 61 62 59 61 66 88 88
44 35 38 42 32 28 26 37 43 44 43 46 45 46 48 48 47 43 41 47 48 65 64 60 61 69 75 65 57 52 57 61 60 57 62 69 82 76 71 62 63 81 73 78
35 37 68 76 46 49 49 48 46 49 48 46 46 46 44 41 42 47 63 66 60 62 69 70 69 63 62 61 55 54 55 62 72 75 78 88 89 85 72 65 69 68 77 78

GFSCGP_sfc_rhum_027.txt.gz
RH
34 37 41 35 29 26 24 24 22 17 15 24 26 23 23 22 37 45 52 51 42 43 43 39 39 46 54 68 74 84 86 92 93 97 98 95 91 84 76 67 63 62 59 59
38 39 29 27 22 28 25 24 22 16 15 19 20 20 20 21 26 44 46 46 46 46 44 46 49 58 65 71 90 88 89 89 90 92 89 84 81 77 67 66 62 61 60 60
45 38 28 23 30 32 29 35 28 23 16 15 24 29 32 24 22 32 40 38 38 42 49 52 53 65 82 87 93 92 88 84 83 84 78 71 64 68 69 68 67 63 59 56
48 31 28 29 33 22 25 24 27 22 28 26 28 42 44 36 24 24 28 36 38 41 47 51 58 69 89 90 91 91 87 83 80 81 62 53 55 62 73 74 69 64 62 52
44 39 34 35 33 24 30 27 28 31 32 38 39 41 41 34 24 30 43 37 38 44 49 55 61 84 85 83 85 76 84 79 65 56 53 69 67 69 71 68 58 45 46 44
34 25 32 30 25 22 24 29 33 37 40 62 34 42 48 51 31 42 41 33 34 46 53 58 72 72 76 79 87 82 60 54 64 66 68 68 67 57 53 52 51 44 47 54
24 22 28 27 30 29 31 37 56 63 80 75 39 44 44 38 35 34 32 29 46 54 57 69 71 71 67 68 57 50 58 66 60 57 54 56 51 50 49 51 51 45 49 53
38 48 37 31 30 33 30 38 69 78 86 67 38 46 34 27 27 29 33 40 46 58 62 63 64 68 70 64 59 58 60 60 56 59 50 50 51 58 56 53 50 52 50 52
55 49 40 34 29 28 30 38 35 68 72 80 49 21 25 31 41 51 49 48 60 63 60 60 60 62 64 64 62 63 61 55 58 53 54 54 54 54 57 50 50 52 52 41
64 58 51 46 33 26 28 28 46 56 59 62 38 34 48 36 33 44 54 58 59 55 52 54 56 60 59 62 64 66 60 54 54 57 59 54 52 56 54 53 51 49 52 48
55 59 58 45 44 33 34 35 33 35 62 70 80 48 27 27 32 36 51 52 54 50 46 48 52 54 55 59 63 66 59 53 55 60 58 58 55 56 54 53 51 48 49 49
54 57 75 43 27 23 26 35 47 70 47 77 81 56 25 22 26 29 30 44 50 47 42 43 47 52 55 58 59 65 54 48 57 59 57 57 57 52 49 52 49 51 51 50
44 45 69 44 36 33 35 29 28 46 70 62 74 57 23 21 21 23 28 30 48 48 43 42 46 49 54 57 58 61 48 49 55 49 51 52 51 48 49 48 49 51 52 52
50 42 49 61 44 37 45 42 37 38 76 71 69 44 28 26 25 24 24 27 43 45 41 40 44 47 52 53 57 56 52 54 49 46 50 49 51 48 48 49 50 52 51 54
45 49 48 45 42 36 34 37 32 31 41 56 47 40 31 28 25 26 29 30 26 28 38 46 46 50 50 58 59 57 60 55 50 54 50 48 50 53 50 52 52 54 54 51
44 67 64 65 40 36 41 36 33 32 31 31 32 34 24 24 25 25 25 24 27 28 30 34 50 55 53 58 62 58 55 56 53 54 54 49 48 49 55 53 51 52 55 54
59 75 75 71 50 44 52 37 35 36 34 33 39 32 33 33 32 32 32 31 32 31 36 39 48 56 57 61 58 57 54 57 59 60 54 52 53 51 53 47 46 48 49 55
72 72 83 84 75 52 37 26 22 30 28 28 27 30 32 30 34 37 35 39 38 37 37 37 41 47 58 64 60 50 48 55 56 49 51 50 52 50 48 46 49 56 60 59
66 80 88 77 83 52 35 34 40 36 39 34 38 36 34 32 37 53 44 41 38 37 36 37 42 49 55 56 51 45 47 53 56 55 46 45 48 49 56 61 67 67 62 63
52 74 77 88 84 74 58 34 31 31 66 44 42 46 46 41 78 68 47 44 45 44 47 44 43 47 50 53 49 55 61 64 64 58 56 56 62 63 64 72 69 62 59 62
89 87 84 96 93 79 49 32 37 48 60 48 44 48 50 57 66 52 50 46 44 44 50 59 65 70 68 64 66 71 72 74 66 64 69 70 62 67 67 63 61 66 69 75
81 94 96 97 99 85 37 37 43 65 52 46 46 50 51 53 52 50 50 46 42 53 68 69 75 76 70 63 63 69 75 68 74 73 70 66 68 63 55 64 67 68 72 83
77 79 86 76 84 61 40 39 43 43 45 52 56 57 58 64 65 60 48 48 58 71 79 70 66 62 58 54 64 66 63 70 70 70 75 73 70 65 61 65 70 76 80 92
55 48 78 60 46 43 40 52 55 56 62 62 58 58 62 66 57 45 51 66 70 75 70 64 64 66 71 64 62 68 66 68 73 76 76 76 74 74 76 76 78 82 96 96
67 50 54 59 49 66 65 65 63 58 58 55 52 53 52 54 63 68 74 71 64 60 64 71 76 81 80 73 69 65 69 70 74 73 75 81 90 87 90 87 86 89 83 86
54 56 76 86 66 72 71 63 59 62 64 62 68 77 74 69 76 70 69 66 66 78 78 75 79 76 74 72 71 67 67 72 80 87 91 94 96 93 90 89 88 82 82 85

GFSCGP_sfc_rhum_030.txt.gz
RH
42 39 43 36 33 28 28 28 32 25 17 28 28 29 46 50 48 51 60 54 47 50 50 52 68 69 68 71 83 89 92 93 90 95 98 98 97 94 90 80 69 66 67 69
40 43 35 27 28 32 34 34 34 26 21 27 29 27 36 36 42 47 48 47 47 49 46 51 62 66 68 75 82 89 88 90 82 90 96 92 92 85 77 73 69 66 68 68
43 35 32 29 32 34 35 38 35 32 22 18 26 36 37 28 41 43 42 41 42 43 43 48 59 66 73 77 91 90 92 88 82 81 93 84 76 75 73 74 72 69 65 63
42 37 32 35 34 34 37 29 31 29 33 28 31 47 44 36 32 44 43 50 46 44 42 54 58 73 79 92 93 92 91 88 86 90 89 79 70 63 75 75 73 71 67 56
37 39 35 41 33 32 37 30 31 35 38 43 38 38 36 44 27 38 37 40 47 48 47 56 74 82 82 93 96 95 92 88 88 91 82 74 72 75 80 79 71 52 53 56
35 35 31 33 29 30 28 33 38 48 50 61 46 42 43 44 31 28 34 36 39 52 62 66 85 86 94 92 94 95 95 92 85 90 73 69 74 76 70 63 54 56 61 61
37 33 28 30 33 34 34 38 56 57 75 66 46 46 40 36 36 34 34 36 46 55 70 84 91 94 95 95 94 93 75 70 73 76 76 72 63 56 50 54 55 57 54 55
42 50 40 37 32 40 36 38 64 61 77 58 45 54 40 31 29 32 36 44 59 69 69 77 84 88 92 90 87 76 64 63 60 57 58 50 49 53 56 55 53 55 55 57
54 47 45 42 34 34 36 41 39 69 79 80 59 37 30 38 42 47 51 47 66 81 84 79 80 82 83 76 70 66 59 55 56 62 50 56 59 58 57 52 54 58 56 50
50 50 46 42 33 34 32 28 44 62 65 68 44 42 48 40 37 43 58 52 70 76 76 74 73 73 68 68 73 74 59 56 58 62 62 52 53 56 55 57 54 53 53 51
56 44 51 45 46 38 38 38 38 43 61 63 75 49 30 33 36 48 54 53 68 67 69 69 68 65 61 60 65 64 59 55 61 54 59 56 55 58 57 55 54 52 52 50
50 58 79 42 33 39 36 38 47 68 45 82 82 53 33 29 33 47 50 53 64 58 61 62 63 64 64 63 67 63 59 52 49 54 60 60 60 60 55 55 52 57 53 55
46 54 69 48 34 35 37 33 38 55 70 65 75 57 28 28 24 31 42 56 58 59 56 57 61 62 62 62 63 62 59 53 55 61 58 60 56 55 51 55 59 60 58 57
48 47 48 58 39 40 48 46 44 48 77 68 69 45 35 31 28 25 29 39 58 58 52 51 56 58 58 59 60 66 60 60 61 55 54 56 53 54 57 57 61 63 60 58
43 48 47 43 45 46 42 41 40 40 46 56 45 46 33 32 32 29 28 32 49 58 56 56 54 56 62 66 71 64 61 65 58 57 54 53 54 57 58 65 62 63 63 57
51 59 70 66 49 42 43 37 39 38 39 44 38 42 36 33 35 36 33 32 34 36 39 46 52 60 63 66 71 70 63 64 60 53 52 54 58 60 64 63 62 56 52 50
61 74 73 68 54 44 59 44 35 37 39 37 46 42 39 42 39 38 41 41 41 44 47 57 62 62 66 68 69 68 67 63 58 60 60 60 58 55 58 54 51 54 60 60
71 73 82 81 68 63 45 34 34 41 39 36 38 38 45 48 55 49 45 44 41 40 42 49 57 67 69 74 71 67 68 73 63 57 56 55 60 58 60 63 71 77 72 66
67 86 90 74 76 56 37 35 35 40 50 44 44 43 42 48 56 56 50 55 59 60 56 57 60 59 59 61 60 61 61 55 53 55 59 60 67 70 80 84 85 78 74 67
72 76 78 94 77 66 53 41 35 39 71 46 50 54 54 50 86 71 56 56 54 60 63 65 66 65 66 66 62 65 70 72 74 72 70 75 82 84 86 87 78 70 65 68
87 90 82 97 84 72 50 40 38 42 49 49 51 52 52 62 69 64 57 64 66 68 69 67 67 70 70 69 68 77 76 79 80 85 86 87 88 86 76 77 71 72 74 77
71 89 96 96 93 70 50 40 44 53 63 51 50 53 63 71 70 58 55 67 70 75 74 70 72 72 66 68 71 78 81 77 80 87 89 83 73 69 66 77 74 74 78 83
64 72 81 75 78 58 47 50 56 53 58 66 73 74 72 74 60 58 70 78 78 74 70 61 60 63 66 70 73 78 80 79 79 79 79 78 78 78 77 77 78 81 84 94
62 65 79 69 61 65 73 72 70 71 70 62 64 69 64 58 62 70 76 76 76 75 65 60 65 75 79 69 69 75 75 74 75 78 80 82 84 83 86 86 88 91 96 94
67 56 62 71 82 72 73 70 67 63 66 66 63 65 69 73 77 74 74 71 68 69 74 77 81 79 76 76 74 72 73 74 76 78 83 87 94 90 92 91 93 94 89 91
60 60 74 77 63 74 78 73 70 71 75 74 77 80 74 69 71 71 80 81 76 80 76 75 76 76 79 76 74 72 73 76 81 85 90 94 95 95 93 93 90 85 86 85

GFSCGP_sfc_rhum_033.txt.gz
RH
44 41 46 41 38 36 36 39 42 33 24 29 35 33 47 54 59 66 67 69 82 78 67 72 74 74 83 88 93 94 94 96 90 95 97 98 97 97 95 90 72 73 79 76
42 48 35 34 30 34 35 38 33 32 24 26 32 29 46 56 52 55 59 59 59 77 74 74 78 81 85 83 89 93 91 95 85 89 97 96 97 95 90 82 74 72 74 74
44 35 36 32 32 35 39 41 39 35 28 28 31 35 32 32 48 49 53 48 50 58 70 70 78 83 82 82 87 89 91 92 84 88 96 95 84 82 78 78 77 73 72 69
43 39 37 40 39 34 42 35 37 34 35 26 30 42 43 36 42 49 48 58 48 50 55 59 71 81 80 79 83 86 89 91 85 90 92 90 90 84 78 79 77 76 71 67
38 45 41 41 32 34 37 41 35 38 42 44 42 40 38 47 39 46 49 50 50 45 47 55 66 72 73 83 93 93 94 91 86 87 91 95 90 80 83 82 80 59 65 62
36 37 34 32 34 34 34 38 42 53 52 61 50 45 44 44 34 34 44 42 46 59 60 69 65 73 78 95 96 97 96 94 94 92 95 94 87 82 78 80 66 66 68 64
40 36 35 36 37 35 35 40 52 53 72 64 49 49 43 32 34 34 41 42 43 46 66 86 89 86 92 97 96 97 94 96 96 96 92 85 80 76 70 65 61 65 64 61
47 46 39 41 36 40 46 39 60 58 72 51 52 62 40 34 36 36 36 39 49 63 61 82 88 92 94 95 95 95 96 89 85 93 87 82 81 87 83 75 60 55 57 58
53 46 47 45 38 34 40 45 42 69 83 78 60 45 30 35 40 54 54 55 68 80 80 88 91 93 96 95 96 95 86 78 76 78 70 70 72 69 70 66 54 56 60 54
43 45 45 43 42 36 38 35 46 62 61 68 54 47 46 38 33 43 59 54 74 87 92 93 93 96 96 95 90 87 71 65 65 63 61 59 54 53 52 52 54 53 55 58
55 41 45 53 46 38 41 41 44 46 64 63 73 54 35 37 36 34 41 52 64 89 89 86 84 86 86 80 78 74 64 59 62 60 59 64 62 64 56 49 49 49 54 54
51 54 73 44 41 39 40 44 45 69 50 84 83 56 33 29 33 40 43 48 66 81 81 80 81 81 75 75 74 69 62 56 59 68 72 69 63 58 53 52 52 57 51 56
51 57 71 50 41 38 45 42 49 58 71 67 76 56 31 33 28 28 43 47 62 74 78 81 82 76 70 68 69 69 71 74 70 70 66 61 62 55 52 54 55 59 63 62
50 51 52 61 46 42 50 46 46 52 79 68 71 47 35 31 35 30 29 39 66 74 67 75 79 77 72 68 73 79 83 73 68 62 62 65 60 55 52 53 58 61 62 62
45 49 47 44 38 48 42 42 48 47 51 58 49 53 40 36 30 32 33 36 52 70 67 67 73 77 77 86 85 83 80 76 74 67 64 64 57 59 60 66 66 68 64 61
53 59 65 66 51 47 46 40 40 44 43 48 46 45 43 40 45 43 41 40 45 49 60 61 61 67 75 78 84 79 75 74 70 69 71 68 67 70 70 67 64 63 64 63
59 72 73 64 60 51 64 49 41 38 41 40 46 38 44 49 44 48 53 49 50 52 56 61 66 65 71 78 79 76 76 77 74 67 68 67 62 60 62 61 66 72 78 82
70 71 81 80 67 69 48 41 37 43 46 42 42 43 50 54 60 57 54 49 51 58 62 63 68 77 84 85 81 78 72 73 69 68 65 63 65 68 70 74 81 90 90 88
67 82 86 75 75 57 43 41 42 43 47 46 48 50 56 60 63 61 62 63 64 66 68 72 71 72 71 69 66 60 60 62 66 66 70 72 78 83 87 90 93 91 89 82
66 77 79 89 70 69 55 43 38 42 68 47 52 53 54 55 81 74 64 65 73 72 72 74 74 72 72 71 68 69 70 71 76 75 80 87 89 91 92 93 92 86 73 69
88 92 85 97 83 69 47 43 35 49 52 55 54 57 60 60 68 73 74 76 74 74 74 72 76 80 78 73 72 78 79 86 89 91 92 92 91 91 90 86 81 80 80 82
74 89 95 94 83 65 50 48 41 50 66 58 58 58 70 79 70 74 76 78 78 78 74 72 77 81 82 81 79 82 88 84 87 89 90 88 84 75 70 82 85 80 83 86
63 70 80 72 73 56 56 46 55 60 57 59 62 71 75 67 71 79 82 80 75 70 68 68 73 74 70 72 77 84 86 85 83 82 82 82 81 81 82 85 83 85 87 94
68 70 73 67 68 65 77 80 73 73 75 76 78 78 65 70 78 81 78 76 75 77 75 76 74 76 76 69 70 74 74 78 78 80 80 82 85 86 87 88 90 94 96 96
71 68 74 85 88 80 76 77 72 71 72 73 71 69 72 77 79 78 79 78 81 84 82 79 77 77 76 73 73 78 80 79 79 81 84 86 93 90 91 91 93 93 92 92
69 68 78 83 76 69 80 77 73 75 78 76 75 77 73 71 74 74 82 83 81 80 77 75 76 77 80 84 89 90 90 90 90 90 92 94 95 94 91 92 87 83 87 86

GFSCGP_sfc_rhum_036.txt.gz
RH
46 43 47 41 37 33 38 43 43 39 29 33 44 49 60 75 78 86 91 95 96 83 70 72 80 83 91 95 96 96 97 98 96 98 99 99 98 98 97 96 83 87 81 77
43 48 37 36 39 37 39 40 39 34 29 32 38 44 56 67 71 75 78 79 81 82 77 72 86 88 89 93 95 96 95 97 92 92 97 96 97 97 96 86 77 83 79 77
47 37 38 33 36 34 39 43 40 40 35 33 35 41 63 53 61 60 65 64 66 74 81 76 85 85 84 92 94 93 94 96 89 90 97 97 90 89 88 84 80 80 78 76
46 40 39 42 40 35 45 36 41 40 39 32 36 36 44 50 57 55 54 65 58 62 71 78 80 87 88 90 92 93 95 96 90 93 91 94 92 92 88 84 81 81 78 75
42 45 44 42 36 34 37 41 44 42 44 45 45 40 36 48 47 52 50 53 56 55 57 72 77 79 86 93 95 95 94 94 88 88 88 94 95 96 95 84 83 72 70 66
40 42 38 34 33 36 38 40 39 51 53 60 48 48 47 52 37 37 42 47 50 52 57 63 69 80 88 94 95 96 95 93 91 90 94 94 94 93 92 91 76 72 72 71
43 40 38 38 40 42 40 41 53 52 70 65 50 55 47 33 37 38 38 41 47 50 54 65 71 82 92 94 95 96 95 93 96 94 96 95 91 87 81 80 74 71 70 73
49 48 40 38 34 37 43 40 61 53 72 50 52 56 36 38 40 45 42 41 55 60 56 59 66 72 86 92 95 95 95 94 97 97 97 96 91 88 86 84 74 73 66 69
54 44 47 47 42 37 44 47 42 70 84 76 60 47 28 39 52 52 48 55 54 58 62 61 74 81 86 94 94 95 94 92 95 95 98 94 91 93 88 82 76 66 62 59
44 42 46 44 46 43 40 40 50 62 58 64 57 50 43 35 38 56 56 53 60 79 84 86 92 93 92 93 93 95 94 95 93 95 95 91 88 88 87 77 70 64 62 58
48 36 40 55 46 39 45 46 51 49 65 62 70 51 40 35 38 40 43 52 56 76 90 93 94 95 94 94 96 97 96 90 85 82 83 85 86 88 84 76 70 60 59 62
47 50 60 42 46 41 41 43 49 69 54 84 81 60 36 32 32 36 36 44 59 72 88 92 94 96 98 97 96 96 92 82 82 86 86 87 84 79 75 65 51 57 55 62
52 56 68 50 42 42 47 46 52 60 72 69 77 56 33 36 33 31 34 38 53 78 88 90 93 94 92 93 92 90 86 80 84 83 82 83 71 69 56 53 53 58 61 65
48 57 50 54 44 44 49 47 55 54 77 69 70 48 37 34 37 33 33 36 42 70 81 89 91 91 88 88 91 90 90 84 82 80 78 72 77 59 59 62 64 66 63 64
44 48 52 46 40 44 44 44 52 50 53 58 52 54 42 42 37 34 36 40 49 78 82 83 86 89 88 90 90 92 92 88 87 79 74 74 69 70 74 73 70 72 67 64
55 54 61 69 55 53 59 48 50 55 54 53 51 49 42 45 50 50 44 51 60 66 70 71 73 82 85 88 91 91 87 84 83 81 77 77 80 77 79 75 71 68 69 76
58 72 69 62 60 52 64 53 45 47 47 46 56 46 44 50 50 57 58 58 60 65 69 69 82 87 84 84 88 90 88 86 82 82 80 79 76 67 71 74 74 81 88 90
69 69 76 80 73 67 44 46 42 45 44 44 44 47 48 52 63 68 66 60 65 66 70 74 80 81 83 88 86 83 79 77 74 74 73 72 72 79 81 85 90 93 93 95
68 78 81 74 79 56 46 45 46 45 40 45 48 62 64 65 66 72 65 72 76 79 79 81 79 77 74 71 69 69 71 71 74 80 82 81 85 88 90 93 95 96 96 92
66 78 75 85 74 71 56 44 40 40 56 48 56 65 68 60 70 72 74 77 80 79 79 81 80 78 77 77 71 75 81 85 92 92 89 88 89 90 93 95 93 91 90 86
88 91 83 96 82 73 53 43 42 50 52 54 56 62 64 57 63 80 81 82 80 79 83 82 82 86 87 82 80 92 94 98 97 96 94 92 91 93 93 92 91 89 88 86
81 90 92 91 84 75 48 50 48 53 70 62 60 63 66 82 82 83 81 82 80 82 83 82 84 89 90 91 90 96 96 94 92 90 89 87 86 82 78 87 89 88 88 89
69 73 79 71 74 59 57 53 49 56 60 61 60 69 74 81 84 83 85 80 75 78 83 79 81 82 81 81 82 88 87 80 80 82 83 84 83 83 86 89 89 88 89 96
72 66 70 65 59 63 65 78 72 71 68 71 75 76 68 80 83 85 77 74 76 81 84 81 78 79 82 76 73 76 78 80 81 84 87 89 89 90 89 90 92 95 96 96
73 67 77 75 85 84 76 78 73 80 79 76 75 72 76 80 82 80 80 81 84 90 85 78 76 78 80 81 87 90 92 89 92 92 93 94 95 94 95 92 94 94 93 92
74 70 78 70 66 63 62 77 77 80 81 78 79 83 80 77 80 79 86 87 88 85 78 76 77 84 90 86 93 95 94 94 94 92 96 98 98 98 95 97 93 84 86 87

GFSCGP_sfc_rhum_039.txt.gz
RH
36 32 34 29 32 26 30 31 32 28 24 34 41 40 55 72 76 74 68 68 71 69 61 60 63 64 63 68 72 73 79 83 80 85 85 80 85 87 88 84 81 76 66 63
35 40 32 32 32 32 31 31 31 29 23 28 27 31 43 65 68 63 64 68 67 66 66 62 64 67 67 64 71 78 78 80 76 74 73 69 74 79 76 79 72 71 67 61
39 29 32 33 32 33 31 31 34 33 30 26 30 28 39 50 59 58 58 59 60 63 65 62 65 67 67 67 71 76 77 78 76 73 73 75 72 72 79 72 64 66 63 58
36 33 34 31 31 29 32 28 32 34 31 27 28 27 29 42 50 53 53 56 56 55 58 59 61 66 70 68 72 74 78 77 76 78 73 75 72 71 72 66 58 60 62 60
36 35 38 37 33 31 31 33 34 33 34 35 34 27 25 38 42 46 48 48 51 52 53 57 58 58 62 71 79 78 76 76 75 78 75 84 78 78 80 67 68 66 64 60
34 32 33 32 29 31 32 32 33 40 40 44 38 33 30 32 30 33 38 43 43 45 49 50 54 57 59 72 79 82 79 78 79 84 82 81 79 81 79 71 67 63 58 55
34 34 30 31 30 32 31 34 41 39 53 46 43 41 33 27 28 29 30 34 38 40 44 47 51 58 62 76 80 81 78 88 90 87 85 86 85 78 75 72 73 74 64 58
37 39 33 33 30 32 36 34 48 45 51 36 43 40 23 27 26 34 38 36 32 40 44 44 45 50 62 72 76 79 78 83 93 90 87 84 80 82 78 77 78 71 59 58
49 38 34 38 32 28 35 37 35 59 70 58 42 34 24 27 30 34 38 40 36 39 44 44 44 51 59 71 78 80 77 76 90 93 88 86 84 82 81 82 78 72 63 56
41 41 37 35 36 36 33 34 44 50 56 56 40 39 27 25 26 30 33 36 38 44 44 50 50 55 60 67 72 81 76 73 76 84 87 90 85 80 81 83 76 68 64 58
41 35 36 43 39 34 37 39 43 39 49 49 50 36 33 26 26 31 32 33 40 42 48 53 57 65 66 69 73 76 73 71 76 80 84 86 85 85 85 87 77 72 66 55
40 48 50 34 35 32 34 39 42 56 48 60 61 42 27 30 27 28 28 31 39 41 44 55 64 70 77 76 76 79 81 80 78 79 84 84 83 86 86 85 80 71 63 53
46 47 48 37 36 35 38 39 43 50 56 59 74 43 26 29 28 28 28 26 32 46 52 61 68 71 75 79 82 81 80 79 75 73 73 74 77 80 82 82 73 64 56 53
45 51 45 40 37 38 45 43 44 45 60 55 53 38 30 26 30 27 29 31 29 31 54 63 70 71 72 75 75 76 78 76 73 70 68 72 74 72 71 64 59 62 62 62
45 48 50 39 33 35 36 40 46 41 45 52 40 41 32 30 30 30 33 33 43 55 61 65 67 69 69 71 72 74 74 71 67 65 62 66 64 59 58 60 72 73 70 64
50 52 48 47 45 41 46 40 44 43 44 42 40 41 33 31 31 37 38 51 57 60 64 64 60 64 70 72 70 73 71 69 65 64 62 62 65 67 72 74 77 75 71 74
58 68 60 52 49 46 65 51 41 41 42 43 48 36 36 35 39 44 51 52 56 59 63 67 71 74 74 73 75 73 71 69 66 66 64 64 65 69 74 75 79 87 86 85
66 66 67 72 67 72 39 37 36 41 38 36 36 34 34 37 52 51 49 50 56 59 64 68 66 66 66 66 67 67 63 64 64 62 61 61 65 75 79 83 83 89 90 91
58 71 74 79 63 50 38 38 40 42 29 32 33 36 43 54 51 55 61 59 62 67 67 67 64 63 62 62 60 60 61 62 64 67 69 70 74 75 78 90 91 83 85 83
64 68 71 73 70 68 51 36 37 32 44 37 39 51 56 53 58 49 63 65 68 66 65 65 64 61 62 64 62 67 70 71 74 73 72 70 70 72 76 80 84 86 86 83
76 79 77 77 81 65 46 36 38 49 42 46 45 51 56 50 49 62 67 69 66 67 68 66 64 68 69 68 69 74 77 82 77 78 79 82 84 89 87 80 70 68 67 69
71 77 86 80 89 70 44 39 48 50 47 49 52 56 60 69 73 70 69 70 70 68 68 66 71 75 74 70 73 83 87 82 77 78 74 66 63 61 60 65 64 64 65 69
74 67 68 62 67 56 47 45 43 45 45 54 53 54 64 73 70 70 71 70 69 66 67 67 69 72 68 64 62 65 65 58 59 61 63 64 65 64 63 62 64 62 64 70
66 59 68 64 53 51 53 50 53 48 50 50 49 56 61 68 71 71 67 69 68 65 65 62 64 67 71 67 68 66 66 64 66 70 71 68 66 64 61 57 58 60 67 72
69 62 64 62 57 68 60 61 56 60 65 65 61 60 64 69 69 64 67 68 66 66 65 64 67 72 75 74 76 76 72 65 65 67 66 66 66 63 56 54 61 63 59 71
65 63 70 68 48 51 45 53 65 68 66 64 66 71 67 64 66 64 68 69 69 72 68 68 73 74 74 74 72 68 63 57 57 58 58 66 63 63 55 53 52 68 71 73

GFSCGP_sfc_rhum_042.txt.gz
RH
25 24 20 15 15 17 18 17 18 17 17 22 21 21 23 35 42 39 35 37 42 39 40 48 50 50 48 50 50 52 59 61 60 70 58 48 45 47 58 64 65 65 56 56
27 25 21 22 22 22 22 20 20 20 19 20 16 18 19 28 40 37 35 36 37 38 39 41 46 49 51 50 54 56 53 56 58 55 53 44 46 45 49 58 65 64 61 55
25 21 24 24 23 25 23 23 23 22 22 19 21 19 23 28 35 37 36 31 32 35 37 41 42 45 49 49 51 51 51 53 56 53 50 45 48 54 59 67 70 65 62 54
24 21 24 24 23 22 24 20 22 25 24 20 21 20 20 21 31 35 34 36 30 33 35 35 39 40 43 46 46 48 49 51 52 55 52 56 48 49 54 61 59 55 61 56
24 24 26 24 21 21 22 23 24 25 22 24 21 18 17 21 19 22 28 31 31 26 30 33 35 35 37 42 47 50 50 54 53 57 57 58 57 48 49 58 57 59 60 57
19 22 21 20 22 21 24 25 25 27 25 32 21 21 17 15 14 14 17 23 28 30 30 29 30 34 36 40 47 52 52 52 57 64 69 69 69 61 71 64 58 57 58 56
25 23 20 22 24 25 23 26 34 34 36 36 28 26 18 15 16 18 18 17 22 27 29 30 30 31 35 42 51 55 52 51 68 78 86 82 77 73 78 70 63 60 62 67
26 29 21 20 23 21 24 24 34 39 38 27 30 26 17 17 18 19 21 22 23 20 25 27 30 31 33 40 48 58 59 62 68 76 89 80 77 87 84 72 68 64 70 67
27 23 21 23 22 19 28 30 23 35 47 36 21 19 15 16 17 18 19 23 23 22 20 23 26 30 33 39 48 56 57 60 61 74 87 81 79 82 76 73 65 67 71 64
25 30 26 29 25 27 26 22 33 30 42 38 24 23 15 16 15 16 15 17 21 25 24 26 27 29 33 36 46 56 56 51 56 70 80 82 76 76 75 75 73 72 66 59
19 25 34 32 30 24 30 29 28 26 31 38 36 24 16 16 15 18 18 18 20 22 26 30 31 34 37 39 44 51 52 49 52 60 64 77 75 75 78 77 74 70 69 68
22 26 36 25 24 23 19 22 25 37 33 38 46 29 14 16 18 18 17 18 21 25 24 28 35 41 44 46 46 50 50 49 50 54 60 68 75 79 85 84 79 74 73 66
28 30 38 30 28 27 25 23 22 29 38 39 59 31 17 19 20 18 19 17 20 24 26 32 40 42 46 51 55 56 59 56 56 56 61 66 74 82 86 87 83 80 76 68
36 26 29 34 24 19 30 25 24 28 43 36 38 24 18 17 17 15 17 20 20 20 22 32 40 43 47 54 56 57 63 63 61 59 59 64 67 68 70 74 76 73 70 61
29 31 27 20 16 16 17 17 25 27 28 33 27 21 19 15 16 14 22 22 27 31 35 42 42 45 48 54 58 58 60 60 59 58 56 64 62 58 57 59 58 58 58 57
28 30 32 32 23 22 22 19 18 22 21 23 23 22 15 16 19 22 24 29 36 42 44 45 47 49 53 54 54 58 58 59 54 54 54 55 53 52 55 58 60 68 68 70
40 38 40 35 30 30 49 37 23 23 25 26 28 21 16 19 23 23 29 34 40 45 46 48 49 50 50 54 54 55 55 54 54 54 53 53 54 57 62 62 64 78 70 89
49 46 44 48 69 80 24 24 20 24 22 20 21 18 17 19 20 30 31 36 42 44 47 47 47 50 50 50 52 53 50 52 52 52 51 53 56 60 62 64 66 76 78 80
40 47 57 79 50 29 29 29 29 30 24 18 19 18 17 26 34 41 39 36 41 46 47 47 46 48 48 48 47 48 48 49 51 53 54 54 56 57 59 63 68 66 64 69
46 52 57 62 56 73 27 20 22 22 36 17 19 22 23 34 44 29 43 46 48 45 45 47 47 47 48 49 47 50 51 52 55 55 53 53 54 56 60 66 78 84 82 78
66 64 75 61 68 41 28 25 25 40 36 22 20 23 31 38 29 40 44 48 44 45 47 47 46 50 51 49 49 52 54 58 57 60 64 69 70 75 67 54 48 47 46 49
59 66 80 60 83 74 31 29 33 29 35 27 30 29 38 39 48 48 47 48 48 48 49 49 54 55 52 50 53 60 69 65 63 62 58 46 43 38 37 42 43 42 44 52
67 48 51 46 46 31 34 26 26 29 26 33 31 31 36 50 48 48 50 50 48 46 46 47 52 56 54 51 51 56 56 49 45 42 43 46 46 45 44 46 49 44 47 52
50 56 66 55 30 36 34 26 29 28 28 28 29 34 43 46 48 49 50 50 48 45 46 46 52 55 55 48 46 46 43 40 44 48 48 46 48 45 41 34 33 34 44 51
38 50 48 46 34 40 38 33 28 32 36 37 31 36 40 44 47 48 50 50 46 45 48 49 52 54 53 51 51 47 46 43 43 46 44 42 42 35 31 30 37 46 47 63
42 42 58 58 35 40 27 28 31 35 42 39 38 43 40 43 46 46 49 48 48 52 51 50 52 53 53 53 51 47 43 40 40 37 38 50 46 44 34 32 33 73 67 66

GFSCGP_sfc_rhum_045.txt.gz
RH
19 20 21 15 12 11 13 14 16 18 13 15 17 15 26 25 28 26 30 31 37 46 46 49 48 46 46 47 49 48 54 55 64 63 48 42 41 38 37 39 44 49 52 56
20 25 15 14 14 14 15 15 14 13 13 15 15 18 13 21 25 25 24 28 29 31 42 48 46 40 45 43 44 46 47 49 58 60 49 40 38 34 36 40 54 61 56 54
22 18 16 16 15 17 17 18 21 17 17 14 15 15 14 16 21 23 22 24 27 29 31 40 42 41 40 41 43 42 43 47 48 45 44 41 37 37 38 41 47 63 59 52
18 15 18 17 17 16 20 14 16 18 18 22 19 29 33 16 21 25 24 23 23 25 26 29 34 41 42 42 41 42 42 42 52 47 48 46 39 41 43 51 57 58 64 58
21 19 21 20 17 16 18 18 18 19 20 20 17 15 21 13 16 19 22 23 21 22 24 27 29 29 34 41 42 45 42 41 42 45 46 50 47 42 41 45 58 64 57 60
17 13 15 16 14 16 16 20 20 20 21 33 18 16 28 14 12 11 16 19 21 20 22 24 26 27 28 32 42 47 44 42 42 44 48 52 54 53 55 66 60 54 56 60
18 18 15 15 20 18 19 24 34 35 35 36 25 18 18 32 11 12 13 13 17 20 21 22 23 26 29 32 39 43 42 40 43 51 63 62 65 70 81 81 73 66 66 66
24 27 18 17 19 20 22 22 34 66 38 28 22 21 16 13 12 12 13 14 14 17 21 22 20 22 26 31 35 42 41 43 41 58 73 81 73 81 84 91 91 84 82 80
23 22 13 14 15 16 21 26 20 35 29 32 20 15 12 11 11 12 13 16 17 17 16 19 20 21 23 28 36 45 46 43 43 60 89 89 73 74 78 83 81 86 83 72
18 25 16 17 17 17 20 18 30 27 42 47 20 19 17 15 13 12 12 13 15 18 17 17 18 21 23 26 33 45 46 46 51 72 71 70 72 71 73 78 81 81 72 69
16 22 23 23 26 23 22 26 24 22 30 45 38 22 16 13 13 13 14 13 13 14 21 22 22 21 22 25 29 37 44 44 54 60 64 62 61 68 79 83 84 79 76 71
18 23 34 27 19 16 18 22 22 36 32 32 39 29 14 13 12 14 14 13 14 15 16 20 25 28 30 32 32 38 44 45 42 65 67 66 66 64 83 85 84 82 78 69
20 24 37 29 24 20 22 20 18 22 25 34 61 33 13 14 14 13 14 13 14 16 16 21 28 32 34 36 38 41 44 43 41 43 59 72 81 84 89 87 86 81 79 72
33 23 28 35 29 21 25 20 17 21 41 35 30 22 16 15 14 13 13 13 14 15 15 19 26 31 34 41 44 47 49 48 48 48 50 59 73 76 78 81 82 82 79 77
27 29 24 20 18 17 18 18 18 19 20 30 24 18 16 14 14 12 17 16 15 17 18 20 27 31 38 45 47 51 55 56 53 52 53 66 64 63 68 71 71 71 70 68
24 32 27 26 19 17 18 14 14 14 16 17 16 17 13 11 10 12 14 16 18 22 26 31 32 36 43 48 50 54 56 57 54 53 56 55 54 52 55 55 59 60 60 61
28 37 34 42 23 23 37 23 16 15 14 17 23 18 14 13 12 14 16 17 23 29 33 36 39 43 46 49 51 54 52 51 50 50 50 51 52 53 55 51 53 56 62 62
38 38 38 50 64 63 25 16 15 18 15 13 14 14 13 13 12 15 18 20 30 34 38 41 41 43 44 43 44 46 44 46 47 48 50 51 53 55 53 55 57 62 65 66
32 45 54 65 51 32 20 18 20 20 19 13 14 14 13 12 18 26 24 25 32 36 36 36 37 39 41 41 41 42 43 44 46 48 50 50 52 53 54 58 64 64 65 65
37 42 61 56 55 62 31 18 15 15 33 14 13 16 16 17 38 21 30 31 35 35 35 37 38 38 40 40 40 42 44 45 48 49 48 48 50 52 58 66 69 70 70 64
72 69 77 64 60 38 19 16 15 38 34 17 15 15 16 20 23 27 33 38 34 34 36 39 38 40 41 40 41 44 46 48 47 49 54 57 58 62 59 53 45 42 40 42
65 64 79 63 66 72 28 23 30 28 24 22 21 18 22 21 35 36 36 36 35 36 39 37 42 44 42 40 43 46 51 52 53 57 57 48 38 31 32 37 38 36 40 49
57 50 57 43 44 34 31 28 24 19 20 23 22 19 22 33 37 37 37 37 37 37 37 39 42 47 45 44 47 52 53 51 50 42 37 36 35 34 34 37 41 36 38 44
26 39 56 44 33 28 31 28 23 22 24 21 21 20 25 37 37 38 38 39 39 35 37 38 45 49 51 45 44 47 45 39 39 40 40 38 38 37 32 27 26 30 44 48
33 39 43 39 26 26 23 27 28 23 24 23 22 22 26 35 36 36 38 39 36 35 38 43 47 48 45 42 42 38 36 36 35 37 37 38 36 29 28 28 33 43 55 58
25 36 51 50 27 39 37 28 23 27 26 29 28 25 29 32 35 36 38 38 36 40 44 44 46 47 44 43 42 39 36 33 37 37 37 46 45 40 28 27 43 70 63 66

GFSCGP_sfc_rhum_048.txt.gz
RH
18 22 25 20 17 13 11 13 19 20 18 26 16 18 52 58 39 30 33 43 45 51 54 55 52 60 60 60 61 58 58 63 76 77 66 66 60 60 58 55 54 66 65 73
21 27 19 16 15 14 13 14 15 12 16 15 13 15 38 61 43 26 31 38 42 46 57 52 52 52 56 58 59 62 63 65 69 74 67 60 57 53 52 55 56 68 72 70
24 20 16 16 17 16 15 16 17 23 17 15 16 15 21 25 21 22 25 29 36 41 53 56 53 53 53 60 62 61 58 58 61 69 62 58 54 56 52 54 70 74 73 72
20 15 17 19 16 13 18 13 14 17 19 21 18 28 19 17 31 23 23 28 32 32 47 52 54 54 56 54 55 54 53 53 54 63 66 62 52 52 51 59 64 69 76 76
23 18 18 22 17 14 17 18 19 18 19 21 22 28 18 17 23 23 24 26 30 31 32 47 46 45 45 48 52 53 51 50 52 55 62 64 62 58 59 55 73 75 80 79
17 13 15 17 15 14 14 18 21 21 23 37 22 20 33 28 32 20 21 24 25 27 29 32 37 40 41 44 50 53 50 48 51 58 60 73 72 64 68 77 82 84 82 80
18 16 14 14 18 16 17 23 38 41 43 45 19 22 26 24 23 17 19 21 24 24 27 29 32 33 39 46 52 53 53 50 52 62 62 65 73 74 74 77 88 96 99 98
25 30 17 16 18 21 22 23 43 68 72 53 32 27 18 17 13 12 12 14 20 23 26 27 29 33 33 40 49 54 52 53 50 57 69 70 67 80 80 80 96 94 93 91
27 24 14 15 15 17 22 28 22 51 48 58 40 30 19 14 12 12 13 14 19 18 24 25 26 31 34 36 43 52 49 49 49 57 72 77 77 82 86 92 91 94 92 92
23 32 16 14 14 16 19 18 33 30 56 59 24 19 20 18 14 12 12 16 19 21 22 23 24 28 29 34 40 49 50 47 48 53 75 71 72 82 84 88 91 90 91 89
20 26 25 17 20 20 21 24 31 28 31 55 55 33 41 23 16 15 17 15 21 22 25 26 25 26 27 29 35 46 48 47 53 57 75 79 77 77 84 89 89 90 91 81
22 33 36 22 16 17 19 23 26 42 42 45 71 39 18 22 16 16 16 15 18 21 20 26 28 30 30 32 35 47 50 50 68 70 76 77 78 79 90 93 94 94 84 79
24 30 42 30 28 21 22 21 21 25 31 42 72 42 15 15 14 15 20 16 17 19 18 22 30 34 36 39 40 43 52 53 71 61 73 76 82 89 94 97 95 93 91 88
47 29 32 46 36 25 28 23 25 32 55 48 41 30 21 17 19 15 17 16 15 18 18 19 29 34 39 44 46 50 55 56 60 71 78 89 92 93 92 92 91 90 88 84
34 40 31 25 20 20 23 22 20 21 22 34 30 24 19 17 20 23 19 18 16 16 17 19 24 35 42 50 53 53 65 66 69 72 77 88 88 85 88 89 89 87 86 83
28 39 36 40 24 21 27 26 18 18 18 18 19 20 14 13 15 17 13 13 17 17 16 21 23 33 45 48 54 61 64 66 65 71 72 71 73 78 84 85 84 80 76 74
38 46 44 52 30 28 40 29 20 18 15 17 23 20 15 16 15 15 15 15 17 20 26 31 32 43 50 54 60 64 64 62 62 63 61 61 63 65 68 64 66 72 78 81
44 46 53 73 71 60 29 20 18 20 18 15 14 13 13 14 14 13 17 21 24 28 32 38 45 52 58 57 58 60 56 60 59 58 58 59 61 60 61 62 68 75 79 83
39 51 76 73 61 41 26 23 23 26 24 16 16 14 12 12 20 24 22 26 32 36 41 44 45 50 52 52 53 51 52 51 54 57 58 58 59 60 63 68 74 74 74 74
39 51 70 80 69 66 41 23 19 19 37 19 16 19 18 16 43 29 28 30 36 37 38 42 44 46 48 48 47 49 51 53 55 56 55 55 57 61 68 74 76 80 81 78
72 75 83 75 78 60 26 21 20 40 42 25 20 19 24 29 28 33 31 35 34 35 37 40 42 44 46 44 46 49 51 54 51 53 56 59 63 69 68 71 72 69 65 65
88 84 90 78 79 75 33 26 33 34 37 30 25 28 38 33 40 37 35 37 36 36 37 39 44 46 46 44 46 49 53 52 57 62 66 64 61 48 47 55 54 49 61 72
73 62 77 54 57 45 38 36 33 33 34 34 34 27 28 42 39 38 39 40 37 36 40 39 43 48 48 44 46 52 58 58 62 60 50 42 39 39 42 53 56 57 61 72
30 42 61 59 47 45 38 40 34 31 37 28 26 25 31 44 40 40 39 39 39 36 39 40 47 51 54 50 49 55 56 54 48 45 46 46 48 45 44 35 38 58 76 82
38 31 43 45 38 31 27 41 40 37 34 31 28 30 34 37 40 39 39 39 38 38 39 44 52 54 54 51 53 51 48 44 42 46 44 49 52 44 41 49 55 73 63 75
30 34 47 62 36 46 45 42 36 36 32 29 32 34 31 32 38 38 40 40 38 40 45 48 52 54 49 49 48 45 43 41 46 47 52 70 67 58 41 48 55 73 69 72

GFSCGP_sfc_rhum_051.txt.gz
RH
28 34 38 32 28 24 23 21 19 19 24 28 54 57 56 60 67 64 64 78 78 75 73 81 79 82 82 86 83 82 82 74 76 81 67 62 61 68 72 74 64 72 77 81
30 34 26 23 23 24 23 24 21 22 21 32 50 60 59 62 68 51 59 67 67 68 71 69 76 79 78 81 78 76 73 71 69 84 50 50 61 70 66 65 67 68 77 79
33 29 22 23 26 24 23 23 24 29 25 23 27 65 63 52 54 53 50 54 59 67 71 67 74 73 70 74 71 64 61 62 63 77 69 59 63 69 71 73 66 67 76 82
30 23 23 23 24 23 23 18 24 26 30 34 28 42 56 51 60 59 42 51 53 68 62 60 66 71 66 66 65 61 56 55 59 70 72 66 72 66 60 64 72 85 80 82
31 26 26 27 25 21 22 24 29 30 33 38 33 41 33 46 60 62 46 49 47 63 63 59 56 61 61 61 62 63 59 58 60 68 68 78 81 63 64 58 77 82 92 90
24 20 21 22 21 21 21 29 30 33 38 56 33 36 43 34 32 40 36 39 44 47 61 58 53 52 54 58 64 64 64 64 62 65 66 74 83 79 68 76 73 91 95 96
27 23 19 18 25 25 24 34 56 74 68 66 37 37 41 31 30 29 31 35 37 42 53 59 59 58 55 56 59 61 62 63 60 63 63 72 84 79 71 88 80 93 94 98
38 42 23 19 22 28 30 33 67 80 90 71 45 46 33 26 26 24 23 27 31 36 43 56 54 54 54 54 53 57 58 58 57 62 66 66 71 81 84 86 94 90 91 93
37 33 20 16 19 21 32 40 33 66 74 80 58 43 27 24 21 19 18 19 31 33 34 41 46 48 46 49 50 56 54 53 55 61 69 70 73 73 83 92 95 93 96 96
35 41 23 19 17 22 23 27 43 60 82 97 50 49 42 36 21 17 19 23 27 30 32 34 36 40 41 44 47 54 54 56 54 63 73 68 68 92 94 96 97 96 96 96
24 34 36 28 26 26 32 31 36 45 62 69 67 53 45 30 28 20 20 21 26 30 29 40 36 38 35 36 46 56 62 70 64 61 61 72 80 93 94 95 96 96 96 96
25 41 46 31 22 18 23 30 35 70 59 71 81 60 27 27 24 24 20 20 21 32 31 32 36 42 46 41 60 65 68 81 73 69 75 80 88 93 96 97 95 96 97 94
28 43 48 44 32 24 24 25 29 40 57 74 82 66 27 27 24 19 23 23 24 21 28 37 40 41 46 52 56 61 73 71 68 70 80 94 96 91 95 97 98 97 94 87
34 38 44 47 43 37 44 33 28 39 68 62 71 52 36 29 28 20 23 26 24 24 22 41 46 46 49 54 65 66 72 73 73 75 91 97 97 97 97 97 97 96 93 90
37 45 35 37 28 29 31 32 29 32 42 59 48 38 33 27 28 27 25 24 24 23 23 28 46 53 58 65 79 80 87 87 87 92 96 98 97 95 94 94 94 92 89 86
42 56 42 44 34 33 30 25 31 33 31 36 36 36 29 22 24 26 23 23 23 21 20 20 30 56 62 69 81 78 84 89 89 94 96 91 90 90 92 93 92 90 88 85
57 59 62 60 39 40 52 42 30 33 30 28 37 29 23 22 22 22 26 22 23 23 26 31 40 60 65 76 76 85 83 82 83 85 85 86 86 89 90 88 84 82 89 92
86 61 71 77 64 64 38 26 28 31 28 24 22 22 20 19 20 21 22 23 27 36 40 48 67 79 79 78 77 76 72 75 75 74 76 73 73 74 72 74 80 90 93 92
74 77 82 71 62 52 37 32 34 34 33 27 25 23 20 18 24 36 30 33 42 46 57 70 77 76 80 76 73 71 71 69 70 74 74 70 69 70 76 81 87 89 91 93
75 73 86 88 74 69 54 35 29 30 46 28 27 30 27 28 46 38 38 48 55 57 61 66 69 69 71 72 67 68 69 70 71 70 68 66 69 74 81 84 87 90 87 82
85 92 86 98 94 78 45 31 30 51 50 31 31 29 34 34 43 38 47 53 52 53 58 62 63 67 67 62 62 66 68 72 68 68 71 76 78 82 84 83 86 88 88 85
90 89 93 94 98 91 57 42 40 46 35 33 32 33 41 42 47 45 50 50 50 54 57 58 63 66 65 62 61 68 72 70 70 76 78 76 75 70 75 86 84 74 76 83
83 81 88 73 79 61 59 61 54 42 43 50 46 40 45 52 56 53 54 54 52 54 59 58 63 66 66 63 60 68 74 73 73 75 78 78 68 65 60 60 72 77 82 82
60 64 73 72 57 41 33 47 49 58 48 42 38 43 45 51 51 49 55 54 53 57 58 61 65 69 70 65 63 70 72 70 72 64 56 59 58 61 57 58 66 72 82 84
58 57 63 63 50 44 44 43 50 50 49 45 39 40 40 57 58 51 53 53 52 54 57 62 68 72 72 68 69 68 70 60 51 55 59 62 65 61 66 71 66 70 77 80
50 53 76 80 50 53 46 43 55 49 44 39 47 43 36 51 54 52 53 52 51 57 65 65 69 68 68 67 69 68 61 57 62 60 64 77 75 64 56 67 68 72 69 69

GFSCGP_sfc_rhum_054.txt.gz
RH
33 34 42 36 34 31 31 32 33 25 24 43 52 54 51 62 69 90 95 92 94 96 92 89 81 82 82 84 84 80 83 84 83 79 73 72 73 71 73 76 73 73 81 77
34 36 29 29 30 32 32 34 33 23 25 27 55 53 62 62 68 70 82 93 92 91 95 89 91 85 86 87 85 80 79 79 77 78 67 65 64 73 78 74 74 76 81 83
34 30 25 27 29 32 33 36 31 25 26 31 47 54 71 59 59 55 64 79 80 83 91 91 88 90 86 87 90 86 82 74 74 83 70 66 70 80 80 81 79 76 80 83
35 24 26 31 31 29 37 26 24 27 33 36 30 43 62 62 60 59 61 72 72 78 76 82 85 86 86 86 80 78 77 72 70 75 76 57 54 57 61 76 73 74 82 85
38 34 33 34 30 27 32 28 27 30 38 43 38 43 38 57 63 60 59 63 67 70 73 76 79 78 77 77 77 73 70 69 64 64 76 70 69 64 69 78 77 74 91 86
28 24 28 29 25 26 24 31 35 41 44 57 41 41 48 67 50 53 48 53 61 68 69 68 68 68 72 72 72 68 66 66 62 61 73 77 76 77 78 81 82 84 84 94
29 28 24 24 28 29 29 36 56 60 71 65 42 50 44 41 41 46 46 50 52 65 68 67 67 69 68 68 69 69 63 62 60 60 67 71 75 76 82 82 80 82 88 97
45 51 29 25 27 30 33 36 61 65 87 70 52 53 34 29 31 37 40 39 44 52 65 64 62 62 64 64 64 66 66 60 58 61 68 68 66 74 82 83 84 83 85 88
51 42 25 22 22 26 34 40 38 66 77 80 63 48 33 30 27 28 38 36 41 49 54 63 60 58 58 62 66 66 64 62 61 64 70 72 73 72 83 84 89 90 88 95
38 50 29 23 25 24 28 29 49 65 75 78 67 54 45 36 25 22 27 33 38 40 46 53 59 61 56 56 63 70 64 65 63 66 68 70 70 75 76 91 90 92 96 97
30 42 40 34 35 32 35 37 43 49 66 71 73 52 46 38 31 25 21 26 34 38 40 46 53 56 55 55 62 66 70 66 66 66 66 70 73 78 95 92 94 97 97 98
32 38 44 35 28 26 30 33 39 60 62 70 79 53 34 32 26 25 23 24 33 35 36 36 41 49 52 54 58 61 64 67 65 64 64 75 78 91 95 98 98 97 97 96
35 46 61 43 34 32 32 30 31 46 62 70 80 64 35 33 30 28 26 26 25 35 38 41 44 42 43 46 51 58 64 64 67 70 76 82 89 92 96 97 96 97 97 98
62 46 40 48 46 40 44 32 29 41 76 64 66 50 39 33 29 26 24 23 27 30 35 42 50 53 51 47 47 52 67 66 67 72 84 88 94 92 91 90 96 98 97 96
61 51 44 35 32 31 30 35 36 37 43 53 46 47 38 37 33 30 26 27 25 25 27 44 46 55 65 74 60 52 63 76 76 78 79 95 95 94 95 91 97 97 96 94
71 77 49 52 36 35 37 30 33 35 38 41 41 46 33 28 30 30 29 27 25 26 27 34 46 56 70 81 77 75 77 80 80 84 92 96 98 97 98 97 96 95 93 93
87 93 88 58 42 38 54 42 38 33 38 39 48 42 32 31 31 30 30 28 28 26 27 29 41 60 76 84 86 94 95 96 93 96 96 96 95 96 97 95 93 94 94 95
80 89 92 80 68 69 40 28 31 34 30 34 28 25 26 26 26 27 26 25 30 29 26 30 55 78 87 89 91 93 92 93 94 94 93 93 94 95 92 88 88 89 91 90
76 89 99 88 70 52 42 36 37 41 38 30 26 26 24 22 29 34 28 29 28 33 46 68 83 90 92 90 86 85 87 85 88 89 89 87 85 87 88 88 89 88 93 94
86 77 92 95 92 67 52 37 35 34 56 32 30 35 32 31 45 38 33 42 47 55 72 87 90 91 90 88 80 81 83 84 85 84 82 80 83 85 88 91 93 94 91 91
98 99 97 98 99 82 57 48 32 50 48 37 35 36 30 37 40 32 40 55 60 68 77 83 82 84 85 79 76 80 81 82 77 74 75 79 82 85 86 89 88 89 92 94
90 98 99 98 99 91 59 49 47 58 60 42 42 41 42 41 37 46 52 60 63 69 75 77 82 82 79 74 74 79 84 79 77 81 85 85 85 80 82 89 95 93 92 92
78 75 90 90 93 59 63 58 71 58 56 55 58 49 46 53 48 54 59 62 62 66 72 73 76 77 78 74 72 79 86 80 81 82 85 85 83 86 89 92 92 86 85 91
65 57 87 80 62 58 49 57 61 57 56 54 54 48 50 51 56 58 61 63 62 64 66 71 70 75 80 75 73 79 78 76 80 86 86 82 80 75 75 74 81 84 90 90
58 72 68 70 57 49 43 41 43 50 57 56 52 49 50 47 57 56 62 62 58 60 66 65 70 74 79 78 79 76 77 73 71 68 67 72 75 74 71 69 75 80 85 83
61 71 80 78 54 55 49 41 42 46 46 42 56 52 52 52 53 58 62 57 57 62 71 71 74 77 80 78 80 75 64 61 65 68 72 77 78 73 58 60 73 77 78 80

GFSCGP_sfc_rhum_060.txt.gz
RH
42 46 48 36 38 33 34 42 43 35 31 39 38 51 41 66 95 90 94 97 98 98 96 94 90 87 92 93 94 92 94 96 90 85 88 92 90 79 80 79 83 84 87 88
42 45 36 31 35 36 39 45 41 35 32 37 41 44 47 72 83 86 89 95 98 99 95 90 79 87 88 91 88 89 85 90 93 88 72 83 85 76 74 76 76 79 86 88
44 39 29 33 40 40 42 45 44 40 38 38 54 48 47 55 68 83 91 91 94 95 92 88 82 85 89 88 89 86 84 85 87 86 84 70 69 86 74 75 74 75 75 83
43 35 35 38 36 36 43 36 36 39 42 49 46 61 38 44 60 73 76 94 94 94 96 86 82 84 86 86 83 82 80 77 74 79 80 71 64 78 71 71 71 74 77 82
47 45 38 41 38 33 33 37 40 42 48 50 47 50 41 70 50 52 66 77 90 93 94 96 91 84 81 84 83 81 85 76 72 77 70 78 82 70 74 76 76 76 85 86
38 39 37 32 32 33 32 39 45 55 53 66 47 47 53 45 44 44 50 60 77 92 93 94 93 93 95 95 93 85 91 83 80 84 82 80 80 78 75 78 88 88 90 91
39 40 36 32 36 41 39 45 62 62 73 70 48 55 43 38 36 42 40 52 67 83 90 95 98 98 96 98 97 96 91 90 82 85 84 84 85 83 78 81 86 90 92 94
41 48 35 32 34 39 44 42 66 64 73 58 60 66 44 38 35 34 40 44 71 83 82 87 90 93 92 92 96 93 94 91 86 83 84 85 86 82 78 81 90 94 93 93
48 43 33 33 32 29 41 50 40 67 85 85 65 50 38 31 31 35 51 55 66 80 78 80 82 84 85 86 90 92 88 86 85 85 83 81 82 87 87 87 88 87 94 94
46 54 37 31 30 35 35 38 57 68 78 84 66 68 47 36 33 33 41 58 59 69 75 74 76 80 78 76 80 86 83 81 79 80 80 77 76 79 79 84 84 81 79 94
42 47 44 38 41 39 41 45 52 55 68 65 68 63 51 39 38 40 34 36 54 61 68 71 71 72 71 72 78 82 83 80 79 77 74 75 77 77 79 79 79 82 83 92
43 51 56 38 33 34 36 44 44 62 61 76 77 47 36 38 38 40 38 30 29 50 57 63 70 72 74 71 75 79 80 79 76 73 69 73 75 74 75 77 76 82 85 91
58 58 66 55 43 40 42 39 41 56 63 70 71 56 37 38 38 36 35 32 34 35 54 60 69 72 71 72 72 74 77 76 73 73 71 71 72 73 75 75 77 81 84 87
74 64 64 67 57 44 51 40 36 46 69 64 69 49 39 39 39 33 37 36 35 32 37 53 62 65 69 69 69 72 75 75 73 71 71 74 72 72 73 76 82 84 88 84
72 79 83 73 60 52 43 41 42 44 49 54 47 52 39 37 37 36 34 34 34 30 29 44 56 60 64 70 69 66 69 73 76 77 74 76 75 73 78 85 86 89 90 87
68 82 87 72 66 63 63 42 40 41 45 48 46 48 38 36 37 39 37 37 36 32 29 30 46 54 60 64 67 68 69 72 74 79 79 75 76 78 82 88 90 92 92 93
83 87 92 91 79 72 74 59 48 41 39 43 48 45 37 40 41 40 37 38 35 33 32 32 34 45 48 55 61 67 69 75 79 78 78 79 79 81 87 90 93 93 95 98
86 90 98 98 80 94 61 43 48 49 42 42 43 43 36 38 35 36 36 38 39 38 33 33 31 40 53 60 68 70 75 78 82 83 83 85 85 88 92 96 97 99 99 98
86 92 98 98 88 71 54 49 54 68 58 42 42 37 33 32 33 34 29 32 32 35 40 39 37 35 44 74 91 89 92 92 92 92 93 95 93 94 99 98 99 99 99 99
93 86 87 98 96 88 61 62 61 66 60 54 52 46 43 38 53 43 29 32 33 38 42 40 48 59 76 91 94 94 97 96 95 96 97 98 98 98 98 99 98 98 98 98
94 99 91 93 84 84 70 66 65 81 59 81 76 68 61 56 49 45 46 38 42 49 61 82 87 89 88 96 94 95 98 97 98 96 97 98 97 98 97 97 96 95 95 95
85 95 99 97 99 93 65 71 74 70 82 71 65 73 65 61 59 59 57 53 50 48 68 89 91 93 97 96 95 98 99 94 91 92 95 93 92 89 89 92 94 92 92 96
79 80 89 85 87 69 73 64 68 79 76 71 65 58 63 70 59 61 58 62 67 71 79 93 94 97 96 95 94 97 98 94 92 89 91 92 93 93 93 94 95 96 94 95
69 72 80 76 62 67 60 58 59 64 71 54 47 52 59 67 64 66 68 70 74 82 88 91 92 95 96 93 94 95 93 91 92 92 91 89 91 92 92 92 92 94 96 95
64 75 75 79 80 80 74 77 81 79 72 54 42 52 61 65 60 75 81 80 81 84 86 88 92 94 93 93 95 96 94 88 92 87 85 87 88 86 88 90 89 91 90 88
94 91 93 89 94 94 90 84 84 88 83 75 74 70 69 75 81 81 75 77 79 86 87 86 89 89 86 84 84 88 87 85 88 91 91 92 90 87 84 86 92 92 90 87

GFSCGP_sfc_rhum_063.txt.gz
RH
39 39 38 28 31 27 28 29 28 25 22 26 30 31 26 36 69 70 70 74 86 85 77 78 75 80 91 97 95 93 96 97 93 97 94 95 95 78 80 84 78 72 70 70
40 46 35 30 30 28 29 30 30 27 27 27 27 28 24 38 46 58 59 65 77 85 84 81 74 83 88 91 91 91 90 92 92 90 82 78 82 75 78 78 74 69 76 70
38 32 32 31 34 33 33 33 34 28 30 28 33 30 26 30 47 56 57 53 64 80 86 82 78 79 83 84 87 86 86 88 90 86 86 85 80 84 74 76 70 73 74 73
31 29 34 33 34 30 37 31 30 31 29 34 30 37 30 24 31 47 48 62 65 72 74 73 74 76 80 78 78 79 81 84 88 86 85 82 69 76 73 73 66 74 76 75
39 40 36 35 30 30 26 32 33 32 34 39 35 34 28 34 29 24 31 50 59 68 73 73 72 71 71 72 76 77 79 74 82 80 75 73 75 69 76 75 72 70 75 74
31 34 30 25 32 29 28 31 38 43 42 52 36 34 29 29 26 26 27 37 52 63 72 70 68 69 72 74 75 76 77 72 75 79 76 75 75 75 76 78 78 79 77 82
38 34 30 31 33 33 30 35 45 53 59 51 39 40 29 27 24 27 27 26 44 58 69 74 81 77 78 80 77 76 73 72 72 76 74 73 69 70 70 72 71 74 73 75
44 46 34 31 34 36 36 32 50 54 56 43 45 44 26 28 26 28 27 29 36 58 64 71 74 75 78 84 76 76 75 75 72 73 69 67 66 64 62 64 64 67 66 64
42 38 27 31 30 30 40 42 33 54 66 58 44 41 30 24 23 24 24 37 43 56 61 65 69 72 72 75 79 80 76 75 73 74 74 71 69 67 64 66 69 68 68 68
42 47 34 28 27 28 32 32 42 51 54 59 48 48 33 28 24 25 28 28 40 50 59 62 66 71 69 68 73 79 75 73 72 72 72 69 69 70 67 68 71 67 67 66
39 39 40 36 34 34 34 37 42 40 51 49 48 41 42 32 30 30 33 30 29 42 53 58 60 63 65 64 69 76 74 72 72 71 71 72 71 72 72 73 73 72 72 68
39 51 55 40 31 28 29 34 38 50 54 60 60 39 30 32 32 35 31 30 27 24 38 51 56 60 62 65 66 70 72 72 73 71 71 75 75 73 75 74 72 73 72 69
62 54 56 46 38 34 34 32 39 48 53 48 62 41 32 33 29 30 32 29 27 28 28 45 55 59 60 62 63 64 68 69 67 68 70 74 76 76 76 74 72 69 70 69
71 68 60 54 55 53 46 37 33 37 59 49 50 37 32 31 29 25 29 31 28 28 28 32 47 54 56 60 61 62 67 66 64 64 64 68 72 72 72 70 71 70 70 69
69 76 73 67 58 58 56 49 40 37 38 44 37 39 31 34 30 26 29 32 31 30 31 29 34 43 52 59 61 60 61 65 65 64 62 66 66 65 65 68 70 70 70 68
53 74 76 67 57 53 56 49 43 38 38 38 37 37 30 28 32 32 30 28 28 28 28 28 31 35 47 55 58 60 62 66 66 67 66 63 65 64 67 67 69 72 72 69
64 79 76 64 72 59 66 53 45 43 39 40 47 37 30 30 34 37 33 31 32 32 31 31 31 36 39 45 55 58 60 61 68 68 66 66 66 68 70 67 68 74 79 81
65 84 87 78 74 66 51 48 42 48 42 40 39 41 36 34 31 28 30 32 32 32 32 34 32 33 34 38 45 53 52 62 67 66 66 67 70 71 69 72 74 79 85 90
63 67 95 85 68 54 36 47 56 60 48 66 62 60 54 47 37 31 28 31 34 34 33 33 31 32 31 35 42 48 58 62 66 68 69 68 70 71 73 79 82 97 99 99
69 71 91 94 91 76 52 51 55 60 56 64 60 60 62 53 62 47 43 49 45 32 32 36 36 36 34 36 54 56 57 62 64 68 67 71 76 80 94 97 98 99 99 99
88 91 95 98 87 66 54 55 59 53 50 57 62 58 59 58 54 54 53 49 47 46 43 55 63 63 66 69 71 69 73 71 78 90 93 94 91 96 96 97 97 97 96 96
80 84 88 85 95 84 52 58 59 56 58 61 59 57 57 56 58 58 51 50 54 60 63 70 74 81 86 85 78 88 89 94 93 94 97 96 95 96 95 95 95 93 93 96
65 73 79 76 75 60 62 63 63 68 71 68 66 57 48 56 52 58 52 55 57 64 70 76 79 82 84 82 80 85 94 89 91 92 94 94 94 95 92 94 96 95 94 96
57 64 71 67 50 59 59 62 73 69 75 71 65 64 60 53 52 59 58 62 63 66 74 77 79 84 88 85 84 86 87 86 91 95 96 95 94 94 91 91 92 93 95 95
52 64 65 68 60 65 71 81 78 71 70 68 63 65 68 66 67 70 67 74 76 74 75 77 81 82 86 84 88 87 83 82 86 87 89 91 90 90 93 94 93 95 95 91
77 79 79 71 87 86 81 74 76 75 74 70 69 68 65 66 68 71 69 70 69 74 78 74 74 74 74 76 79 81 80 78 86 90 87 89 89 89 89 92 95 93 91 89

GFSCGP_sfc_rhum_066.txt.gz
RH
32 29 30 22 21 16 14 16 15 12 13 16 15 14 14 14 23 32 31 36 45 48 47 50 59 70 80 95 97 90 94 90 80 81 93 93 91 85 85 79 75 63 56 60
34 39 24 19 18 19 17 18 16 13 16 18 12 15 14 13 17 20 28 32 38 48 52 54 59 64 75 88 88 93 85 78 76 76 77 59 79 70 76 71 78 68 61 69
30 25 26 24 22 22 19 19 18 17 19 16 19 20 16 12 19 24 27 26 32 42 50 56 58 63 75 85 88 87 89 82 74 76 78 73 77 79 79 80 74 68 68 69
23 17 24 26 26 21 23 16 18 19 22 16 21 22 16 14 14 17 19 30 31 38 44 48 52 57 62 77 79 77 82 88 83 81 83 73 73 71 56 60 71 68 69 70
28 22 22 26 22 19 22 16 21 21 22 20 17 24 15 16 17 13 13 19 30 36 43 47 49 48 51 60 71 71 74 81 85 82 81 81 75 65 66 68 66 73 78 72
37 22 21 18 18 20 19 22 23 23 21 32 22 24 18 14 17 14 14 16 24 33 41 42 45 46 47 55 62 65 65 71 82 84 84 80 70 68 66 76 78 76 80 76
42 27 23 21 20 21 22 24 34 36 39 34 21 26 22 15 14 15 17 15 21 30 40 43 46 47 47 54 61 66 62 63 74 83 77 74 72 75 74 76 76 75 78 80
37 45 26 26 23 26 26 24 31 40 40 31 26 30 20 14 14 16 16 16 19 28 37 41 42 46 46 52 55 62 58 56 64 71 70 62 64 66 60 68 69 74 69 64
36 38 24 24 24 22 28 32 22 34 42 35 27 24 20 15 14 14 15 18 22 25 32 38 41 46 47 50 55 59 54 52 56 63 70 69 59 59 53 57 59 61 64 58
28 37 25 24 24 22 26 22 35 33 45 47 29 29 25 19 16 14 17 18 22 28 31 35 39 47 47 48 52 56 54 50 52 56 60 59 56 57 53 53 54 54 51 51
30 33 35 25 32 26 28 30 30 26 29 40 41 30 24 20 17 18 18 18 20 25 32 35 37 41 46 47 48 52 53 50 52 54 56 59 57 59 58 56 55 53 54 52
32 39 38 31 23 19 20 26 27 37 39 36 40 30 22 23 19 21 18 17 19 17 22 29 35 39 44 47 47 49 53 52 52 52 54 59 61 58 60 59 58 59 58 55
47 37 38 34 29 26 27 24 24 26 29 38 56 31 19 24 19 17 19 16 16 18 20 24 32 37 41 44 47 47 52 51 50 50 53 58 61 61 61 60 59 57 57 56
57 48 38 33 30 35 34 27 24 30 42 36 31 26 22 20 19 17 16 16 17 19 18 21 29 33 36 40 44 45 49 51 49 48 49 54 59 60 59 58 58 59 57 57
48 84 62 51 50 46 46 43 32 28 27 35 28 26 22 20 19 19 19 19 18 18 19 19 21 26 30 37 40 42 44 49 49 49 48 52 55 55 56 59 59 59 61 58
43 76 57 50 43 43 46 37 36 32 30 30 28 29 20 20 20 21 22 20 17 18 18 18 18 18 22 29 36 40 43 46 49 51 50 48 50 52 57 57 59 59 60 58
52 65 61 56 42 38 50 43 37 35 31 32 37 31 26 26 26 26 24 25 23 20 20 20 21 21 21 22 30 36 40 42 48 50 48 49 49 51 54 54 54 56 60 61
49 71 58 63 62 67 44 34 31 34 36 33 34 40 37 36 33 28 32 34 34 27 27 21 20 22 22 24 22 31 31 38 46 48 47 48 50 51 51 54 55 56 59 63
47 54 78 61 54 38 28 37 37 35 49 38 36 38 37 34 32 33 36 37 40 36 31 26 24 24 27 25 25 27 28 31 38 44 47 46 49 52 54 57 59 60 65 70
44 49 61 76 62 51 33 43 42 45 37 31 39 38 37 35 51 36 35 38 37 36 35 39 37 40 40 39 36 30 31 33 37 40 42 43 48 53 56 59 65 74 76 91
74 69 72 73 69 44 33 43 46 42 46 39 35 34 37 38 35 37 37 36 34 38 39 47 47 50 58 62 56 47 39 39 38 43 48 52 54 59 59 70 86 94 96 97
63 65 73 63 73 78 45 36 42 53 44 48 47 47 56 52 46 37 34 36 36 39 44 53 58 61 64 64 62 60 63 76 69 68 74 79 82 89 90 94 96 96 96 97
59 46 54 48 51 51 48 47 56 59 61 60 59 52 54 52 48 45 39 40 43 43 46 53 60 66 71 75 70 73 90 87 88 89 93 95 92 91 92 94 95 95 94 96
39 42 48 45 39 41 48 54 54 54 59 54 52 52 52 56 52 51 50 53 53 48 52 54 58 66 75 77 81 86 88 87 90 96 95 93 94 94 91 90 92 93 96 96
37 43 38 39 34 46 59 57 62 59 56 56 53 53 54 55 53 56 56 56 54 55 58 58 61 67 70 72 78 80 80 83 88 90 90 91 92 91 92 94 92 95 93 89
40 43 53 50 73 78 66 62 67 67 63 60 59 58 54 56 57 57 60 61 61 64 63 67 71 76 71 72 77 83 82 83 88 91 91 93 91 89 88 89 93 95 95 93

GFSCGP_sfc_rhum_069.txt.gz
RH
15 23 27 24 22 18 15 14 14 13 10 13 14 12 11 10 12 16 19 20 26 31 29 34 43 50 71 90 93 92 93 95 93 91 94 95 96 94 95 88 77 59 52 54
15 23 19 18 19 19 17 16 16 13 10 13 12 10 9 9 10 12 16 18 21 30 31 38 44 52 66 85 88 86 84 85 91 74 73 76 81 79 73 77 82 53 49 47
33 16 19 21 21 21 20 21 18 16 12 14 14 14 12 10 10 10 13 13 16 25 33 38 43 49 61 76 76 85 81 77 78 74 70 74 78 81 77 76 82 71 58 54
40 19 22 26 26 20 24 16 16 15 17 20 13 16 14 11 11 12 13 16 16 22 31 34 41 45 55 71 79 77 78 75 71 71 65 72 65 78 73 70 72 69 70 62
61 34 23 27 26 20 24 17 16 17 19 20 18 16 14 11 11 11 10 12 18 20 29 34 39 39 43 62 76 77 81 77 73 70 67 73 76 57 68 64 69 74 70 69
51 35 37 22 17 19 16 19 19 20 22 31 22 19 17 13 12 12 10 11 16 20 26 31 34 36 37 50 67 75 82 84 79 73 75 73 71 62 69 77 63 74 76 68
54 46 33 29 20 21 18 23 32 37 36 37 18 19 18 12 11 12 12 11 15 19 26 31 33 36 36 45 56 63 71 78 84 84 77 68 70 70 67 70 69 70 81 78
82 71 36 25 21 23 22 23 33 46 45 30 18 24 18 12 11 12 12 13 13 18 27 30 31 35 35 42 49 54 58 64 76 85 80 70 65 61 58 57 59 69 72 73
54 50 31 36 22 22 25 27 19 28 35 37 23 20 16 15 13 11 12 14 15 17 24 29 30 34 36 39 47 53 51 49 62 75 82 77 68 68 64 64 66 64 62 61
48 50 33 42 27 25 29 19 31 26 50 53 30 25 22 18 15 13 14 16 17 18 21 27 29 34 35 37 42 50 50 45 47 63 73 73 67 65 60 60 64 64 65 62
31 35 44 33 44 35 30 28 27 25 29 41 43 32 18 18 17 15 16 15 18 22 22 25 28 31 34 36 39 45 47 44 44 49 55 65 64 64 62 59 57 57 61 62
29 36 50 38 27 28 27 27 28 38 38 32 41 39 17 17 17 17 16 14 15 15 22 24 26 30 35 37 39 41 45 45 44 45 49 56 62 60 61 60 57 56 55 56
68 45 49 49 40 24 33 29 25 28 34 60 58 33 18 18 17 15 15 14 14 15 16 20 26 29 33 36 39 39 42 42 41 42 46 53 57 59 60 60 59 56 55 53
56 57 53 49 41 28 33 26 23 28 43 38 39 31 21 18 17 17 16 15 15 15 16 16 20 25 29 33 37 38 41 43 41 40 42 49 56 56 57 57 58 59 56 56
53 88 70 37 44 33 31 28 25 26 28 35 29 25 19 19 18 18 18 18 16 15 14 15 16 20 24 30 34 36 37 41 43 42 41 46 52 53 54 57 58 58 59 56
57 81 95 62 35 37 37 30 29 27 29 28 27 29 20 18 18 21 21 19 18 16 16 17 17 16 16 21 28 31 36 40 42 45 45 44 47 49 54 57 59 60 60 58
53 76 91 90 59 47 56 41 37 38 31 32 36 34 29 25 27 27 28 26 32 28 23 22 20 17 18 18 19 27 30 34 41 44 44 43 45 47 52 54 55 57 62 63
52 63 67 92 77 81 53 30 30 39 36 29 31 28 28 26 24 27 30 35 36 35 34 30 25 22 20 22 19 21 21 30 36 39 42 42 45 46 47 51 53 57 60 65
43 53 72 79 79 72 36 40 43 54 47 29 33 30 26 23 25 32 30 33 34 34 34 37 36 34 32 31 32 26 21 21 28 37 41 40 42 44 47 50 55 57 58 62
38 46 63 69 87 77 47 37 37 30 62 28 30 31 30 25 33 25 28 32 32 29 33 42 43 46 53 53 50 46 35 27 26 28 35 36 40 42 46 51 56 58 60 62
57 58 64 68 60 39 32 34 36 52 70 36 34 37 41 42 38 36 31 29 28 31 33 41 46 54 59 59 57 54 50 58 56 42 37 38 39 44 45 49 53 58 74 92
54 61 64 56 60 62 36 33 48 53 43 44 42 44 48 45 42 42 38 33 32 34 36 40 47 56 63 65 64 67 78 78 76 74 77 81 81 79 78 79 88 90 95 97
55 39 49 41 46 43 42 53 48 49 50 50 50 45 47 48 46 44 44 41 43 38 39 42 46 56 64 70 76 84 87 86 89 89 90 91 90 89 90 95 97 97 98 98
35 38 45 48 42 49 49 46 48 46 51 47 46 47 48 52 48 47 45 45 44 42 46 46 50 57 66 70 75 81 84 83 86 90 91 90 93 93 92 91 94 96 98 98
45 36 32 33 41 43 45 51 55 51 50 50 48 49 50 51 50 50 49 51 50 50 53 55 60 63 69 73 78 79 84 82 86 89 90 92 92 92 93 95 96 97 97 94
28 45 44 61 59 57 54 55 56 55 57 55 54 53 50 50 52 52 54 57 59 62 60 62 68 68 65 68 76 81 85 85 87 92 93 96 93 92 88 88 92 94 94 93

GFSCGP_sfc_rhum_072.txt.gz
RH
20 29 33 28 26 25 22 20 18 13 11 13 15 13 11 11 11 16 16 18 22 30 29 34 45 55 69 84 93 90 92 96 95 96 98 97 97 96 94 92 84 85 81 66
40 38 33 24 22 22 24 26 23 15 12 13 13 14 12 10 10 12 15 18 19 28 30 38 47 56 72 78 89 91 87 93 89 88 88 86 90 88 84 84 85 79 75 68
63 42 27 31 19 25 26 27 25 20 14 13 14 16 15 11 9 9 11 13 16 27 32 39 47 56 72 76 86 91 87 87 84 81 81 83 83 93 89 79 82 82 67 64
79 64 34 48 42 20 29 21 21 20 21 25 15 23 16 13 12 11 12 15 16 19 31 36 44 54 63 72 75 82 84 83 82 79 82 85 87 90 77 68 68 84 76 65
65 64 52 52 42 23 28 28 31 21 22 25 19 22 18 12 13 12 13 15 18 18 32 35 42 47 54 67 71 81 79 80 78 77 75 80 81 77 72 63 66 84 83 74
48 42 58 60 45 30 26 32 44 30 27 36 24 24 22 17 14 12 11 12 17 19 32 32 39 43 49 65 70 80 81 80 77 78 74 76 77 76 75 71 72 82 78 81
55 51 53 50 58 38 34 59 72 56 46 46 23 24 23 15 12 12 12 12 16 22 29 33 39 40 46 66 76 81 82 81 81 80 78 74 76 74 78 72 69 77 78 78
75 80 54 54 51 53 38 50 49 64 56 38 22 27 20 13 10 12 12 12 16 20 29 33 37 40 42 61 69 75 77 80 79 83 81 76 73 71 70 72 66 65 72 75
70 62 41 47 48 52 53 47 33 40 41 51 30 20 18 14 12 12 12 13 15 17 26 31 34 40 42 50 63 70 75 76 82 85 82 79 75 72 71 72 72 66 67 68
54 88 48 48 42 54 55 41 56 37 60 81 40 32 25 21 17 13 14 18 20 19 22 30 32 40 40 45 55 64 61 63 74 81 83 79 74 73 69 66 69 73 71 70
49 82 60 63 77 64 53 41 43 35 34 57 64 42 43 26 17 17 20 20 24 27 26 30 32 36 39 43 49 57 58 55 63 74 80 80 78 76 73 70 68 66 74 71
62 70 67 50 32 45 41 47 40 53 53 38 53 42 29 24 18 19 17 16 20 22 26 27 31 36 38 42 44 53 57 57 55 64 71 77 78 76 76 74 71 72 70 70
65 70 63 54 39 58 59 52 49 46 54 60 80 40 25 21 19 17 20 18 18 19 21 26 30 34 38 41 44 45 53 54 52 51 60 72 76 77 76 74 71 69 68 67
69 68 69 67 69 75 67 47 44 51 78 64 66 42 40 26 20 19 20 20 20 21 19 20 26 30 34 40 42 44 49 52 50 48 51 60 69 72 72 70 69 68 66 64
79 98 90 82 67 64 69 54 50 50 47 52 42 42 37 38 31 22 22 20 19 18 21 20 22 26 29 36 41 42 45 49 50 49 47 55 60 63 67 69 69 68 67 63
64 86 80 70 54 55 91 47 46 53 45 36 29 37 27 24 24 29 34 35 35 33 30 26 24 22 22 28 34 38 43 47 48 51 50 49 53 58 64 66 68 69 68 67
56 77 97 94 85 72 64 57 50 42 35 40 52 53 33 30 27 38 40 39 40 38 36 37 36 34 32 28 32 33 39 43 47 50 50 50 50 53 61 62 64 66 70 71
54 68 88 95 85 86 53 55 46 51 55 51 48 43 33 27 31 33 35 38 40 38 39 44 44 45 46 48 51 49 40 34 43 46 48 50 52 52 53 59 62 66 68 72
47 58 84 97 85 79 50 65 75 50 72 65 51 39 28 23 36 36 30 34 37 38 40 46 49 54 57 60 58 55 49 41 33 45 45 46 51 52 54 57 61 64 68 71
41 54 72 87 88 91 58 60 65 72 97 56 48 42 42 33 56 48 37 33 33 34 41 45 54 60 67 68 66 67 74 74 73 78 72 67 50 51 54 58 61 64 65 69
63 69 78 80 89 51 36 56 63 88 87 60 48 46 50 52 49 44 41 39 35 36 42 44 56 67 71 71 72 81 82 88 84 80 78 80 80 83 78 65 66 69 73 96
61 72 78 66 69 69 45 49 61 68 64 47 48 52 55 51 46 45 43 46 42 43 44 45 55 63 67 69 75 82 89 82 81 82 83 84 84 82 84 93 95 95 98 98
60 49 61 48 54 57 53 57 52 54 55 54 53 49 50 51 49 47 47 49 46 46 49 50 54 61 67 70 75 85 86 82 82 84 86 85 84 84 86 94 96 97 98 99
54 49 68 56 64 61 54 50 49 50 53 49 49 51 52 55 52 52 52 54 53 53 56 57 62 66 70 71 74 80 81 79 81 86 88 86 89 87 87 88 91 96 98 98
51 48 42 78 83 84 60 56 53 53 52 52 50 52 54 54 55 53 58 60 60 61 61 63 69 71 73 72 76 78 80 81 83 86 87 88 88 87 87 90 95 95 96 95
58 68 73 97 65 81 70 59 54 57 59 56 57 59 57 58 58 56 62 63 64 68 68 69 72 74 75 76 81 83 82 80 85 90 91 94 92 89 85 84 89 96 97 94

GFSCGP_sfc_rhum_075.txt.gz
RH
37 34 36 33 40 37 35 34 34 23 16 18 18 16 14 14 16 24 24 22 35 41 45 53 74 80 95 95 94 94 98 97 96 96 98 98 98 98 96 94 87 85 82 78
51 47 35 29 31 32 35 35 34 26 21 21 22 25 16 16 17 17 22 26 30 44 50 58 85 85 95 94 92 93 94 95 93 91 87 89 94 94 90 87 85 79 76 76
58 48 43 46 31 38 38 38 31 29 23 23 21 22 19 16 16 14 20 20 25 41 55 60 81 89 94 96 93 91 87 93 89 88 87 89 87 93 94 90 84 76 74 75
81 63 61 64 46 36 52 38 31 27 32 60 35 37 25 18 17 16 14 22 26 40 51 57 71 90 91 89 88 88 87 88 85 87 87 92 94 95 86 86 78 75 80 79
62 73 68 77 53 37 45 42 42 49 64 62 52 36 27 22 20 18 15 22 25 39 50 58 64 82 83 83 89 91 88 86 83 86 84 88 90 85 81 77 78 82 80 77
57 46 64 68 48 41 49 57 49 60 64 85 58 42 33 25 22 20 14 19 22 40 47 52 60 69 81 85 79 85 87 85 84 86 84 84 84 84 82 79 77 82 80 85
55 55 50 58 65 51 54 67 89 91 94 90 39 38 29 25 19 17 20 21 26 41 45 53 62 69 80 83 78 84 82 90 83 86 84 80 81 81 76 70 70 76 84 94
76 82 60 53 66 64 54 86 84 92 89 58 31 40 28 20 16 15 15 23 28 42 43 51 55 63 79 82 79 77 83 84 82 83 82 78 75 79 78 72 66 68 77 80
72 67 52 49 53 62 74 95 62 82 61 91 59 28 22 19 17 19 17 19 32 41 43 49 51 56 76 84 85 87 82 72 83 82 83 80 80 76 78 72 67 67 72 74
64 87 51 47 63 68 69 55 82 98 93 93 61 54 35 26 22 20 20 24 24 35 41 47 48 52 68 76 84 85 86 84 83 85 83 79 78 76 73 75 71 67 64 71
54 87 68 70 92 92 84 92 90 86 88 79 92 78 59 44 29 25 30 28 31 36 41 45 46 48 54 70 77 81 86 84 87 88 86 81 79 79 74 74 78 74 68 67
79 94 90 62 49 56 60 87 84 98 82 65 71 81 49 39 27 26 26 24 26 30 40 42 44 47 52 57 69 74 75 81 82 85 86 86 81 78 79 74 72 77 78 71
72 94 95 64 50 39 69 74 73 83 84 93 93 74 50 30 26 23 26 27 28 34 40 45 47 47 50 52 60 65 68 67 73 80 84 87 85 79 75 77 73 72 72 79
73 75 80 88 85 95 98 88 69 79 98 81 75 58 58 54 38 31 32 33 33 34 29 41 51 48 48 51 56 60 65 65 64 76 78 85 86 84 77 71 77 75 77 73
83 96 80 76 64 73 74 81 92 76 84 96 73 56 69 60 56 48 42 40 41 41 43 43 42 42 46 59 56 52 59 63 61 61 71 79 82 81 81 80 81 79 78 76
78 93 87 78 56 73 82 80 87 86 72 78 73 75 69 59 64 47 45 44 44 46 50 50 51 57 60 60 71 68 61 60 60 60 59 62 73 79 82 81 81 80 79 76
81 85 92 94 76 87 99 85 88 77 74 75 90 74 71 74 51 48 50 46 46 52 52 59 63 63 65 66 65 68 69 72 76 62 58 58 63 71 76 78 78 78 80 79
70 82 89 97 91 98 72 56 66 79 78 67 68 62 57 63 45 44 45 45 49 55 59 67 71 74 74 74 72 71 73 74 79 81 78 74 73 64 67 72 74 77 78 81
61 78 93 94 95 75 68 86 84 81 91 81 85 74 66 65 52 54 45 47 55 59 68 73 72 73 74 76 75 77 79 79 81 83 86 87 84 85 74 74 73 72 75 77
50 68 81 93 96 97 75 78 63 65 98 77 77 76 68 54 83 69 52 52 54 56 71 72 69 70 72 73 73 78 81 82 83 82 81 81 83 86 91 96 94 85 82 78
70 76 91 93 94 80 63 67 59 95 98 86 70 62 58 64 63 60 51 52 53 55 59 62 68 74 72 70 72 80 82 85 79 77 79 80 80 82 87 92 93 96 98 97
70 93 94 88 89 84 66 77 95 90 82 65 66 68 64 60 58 59 56 57 59 62 62 62 69 71 69 70 74 81 85 80 78 78 78 79 80 79 82 89 93 94 96 98
81 70 81 70 76 73 70 83 63 58 63 63 64 59 59 61 60 61 62 63 64 64 66 64 67 69 70 72 76 84 84 81 80 82 84 84 79 80 82 88 90 93 93 96
72 49 72 69 76 70 65 59 58 58 59 57 57 59 60 65 63 64 64 65 66 67 68 66 68 72 76 74 78 82 81 80 81 87 88 85 86 87 85 84 87 92 94 94
98 73 89 99 99 88 81 62 62 61 59 59 59 62 64 64 65 67 69 69 68 68 67 69 73 75 77 76 80 81 81 81 82 85 87 89 86 86 89 93 93 94 95 88
96 96 100 99 97 96 93 69 63 66 65 63 64 65 64 64 67 68 73 70 71 74 71 74 75 79 79 78 84 86 83 83 86 88 89 92 90 87 84 84 89 94 94 93

GFSCGP_sfc_rhum_078.txt.gz
RH
42 44 50 34 42 46 44 46 46 38 29 30 33 28 23 19 21 14 17 27 44 47 54 74 83 97 98 98 97 98 99 98 98 98 98 99 98 98 97 93 86 83 80 78
61 58 40 31 35 38 41 46 44 36 28 26 29 29 26 23 22 17 18 26 37 60 64 82 94 96 94 93 97 97 97 97 91 92 93 95 96 97 95 94 87 81 79 74
64 54 41 38 54 62 46 45 45 43 38 31 30 37 36 27 22 17 20 23 31 56 66 88 92 96 93 96 98 92 92 95 97 92 89 93 96 98 99 97 95 90 84 77
71 68 64 71 68 58 75 36 38 46 53 66 47 70 43 34 29 20 20 24 34 52 61 81 88 98 94 96 96 95 89 92 92 92 88 91 94 96 95 93 89 84 82 80
63 68 74 76 73 61 66 38 45 56 66 77 51 71 45 34 29 22 20 22 37 51 60 81 88 94 96 97 96 88 88 90 88 88 93 86 90 85 89 88 90 87 86 87
58 56 63 65 60 56 44 56 54 59 72 87 50 64 52 38 28 22 20 21 33 53 58 72 81 87 95 97 96 89 88 89 89 87 89 90 85 86 89 88 88 86 83 85
62 59 55 60 71 58 62 70 88 91 93 82 40 53 46 33 26 23 20 18 32 52 60 73 90 90 92 98 96 88 89 89 87 91 88 89 93 87 85 84 84 84 82 91
81 79 65 63 64 74 78 84 98 90 96 74 43 57 38 26 22 20 19 28 40 54 60 70 80 84 91 94 95 91 89 88 87 90 89 84 82 84 84 80 82 80 78 80
76 73 58 57 58 62 90 97 72 98 96 96 72 49 24 21 21 21 22 41 51 55 58 65 73 79 87 88 91 89 82 81 82 89 87 85 82 81 85 79 78 78 77 75
68 83 58 64 60 64 79 79 98 99 96 96 64 56 45 47 39 25 25 39 50 51 56 61 69 78 81 83 84 80 75 75 81 84 86 84 81 79 80 80 75 72 72 75
74 81 76 77 84 83 93 95 93 86 90 98 98 83 53 62 56 40 32 34 47 50 56 58 62 74 79 83 86 86 82 77 78 81 83 82 82 81 77 80 77 71 70 78
86 84 90 77 53 65 78 94 85 93 95 83 92 83 70 73 57 34 31 34 43 46 52 55 57 71 80 86 90 91 89 84 85 87 88 83 81 82 81 79 78 75 72 70
77 85 84 74 62 69 73 73 78 92 90 98 98 81 73 64 66 45 44 46 43 46 57 58 57 62 76 81 85 86 89 86 85 86 89 91 89 83 81 78 79 78 75 74
74 84 88 90 80 85 100 95 93 95 99 85 87 69 82 74 75 62 48 52 53 52 54 61 66 66 66 70 82 84 86 86 85 87 88 90 90 86 84 79 79 78 78 78
86 90 90 80 70 66 64 84 76 91 94 92 64 71 84 91 83 65 51 53 59 64 70 71 75 78 83 82 79 71 74 80 78 85 86 87 86 84 81 80 79 78 77 75
86 93 90 88 62 62 78 76 67 67 86 84 74 79 77 88 86 58 52 53 64 71 72 74 74 76 79 81 82 82 84 86 78 80 88 87 88 87 87 84 80 78 81 79
95 99 95 94 73 73 92 81 71 64 74 77 91 66 82 90 86 78 55 60 73 75 74 76 80 79 80 82 79 82 82 81 87 86 81 82 86 88 89 88 86 85 85 86
95 95 94 97 91 97 81 61 78 92 89 71 72 77 86 77 77 71 68 78 84 80 76 77 80 78 77 76 78 79 78 80 83 84 85 85 84 87 89 87 89 90 88 90
74 87 95 91 95 66 68 89 91 97 96 86 84 86 80 67 61 69 66 75 76 75 72 73 73 75 74 74 73 75 75 74 77 80 81 83 84 86 90 95 96 92 88 89
69 77 85 98 93 84 84 69 70 81 100 88 84 89 89 76 94 81 64 64 66 67 69 73 74 74 76 73 72 77 79 79 80 78 77 77 79 83 90 94 96 96 97 97
88 93 90 89 91 79 58 74 79 99 99 82 79 85 85 92 80 68 62 65 65 65 66 67 72 75 73 72 74 80 82 84 78 76 75 75 76 78 82 87 89 93 97 97
79 90 90 94 93 84 69 77 96 96 91 86 82 76 80 76 71 69 66 68 68 70 68 66 72 73 71 72 76 82 86 78 76 80 80 81 82 77 78 86 88 90 94 96
98 73 88 73 79 84 82 92 86 80 83 74 75 67 69 72 70 67 70 71 70 71 69 65 69 72 73 73 78 86 85 79 80 84 86 84 84 85 84 91 93 91 91 94
95 83 80 74 98 91 81 68 71 71 68 64 63 64 65 70 70 71 71 72 72 70 72 67 70 74 79 78 80 84 82 77 80 85 85 84 86 87 88 86 88 93 94 93
100 98 97 100 99 96 95 92 70 66 65 66 64 65 67 70 73 73 74 74 74 74 72 73 77 79 82 82 85 82 82 79 80 83 84 86 85 85 85 90 94 92 96 95
99 99 100 100 100 99 100 81 66 71 69 66 67 70 67 69 74 73 76 74 76 79 76 78 80 81 84 83 86 87 81 82 83 85 87 90 87 85 83 81 88 91 93 94

GFSCGP_sfc_rhum_081.txt.gz
RH
45 42 48 38 46 44 51 52 53 49 38 38 36 37 31 28 28 30 25 22 21 40 50 80 94 97 99 98 99 96 91 96 97 98 98 99 99 98 98 97 95 93 87 74
64 62 44 36 35 36 43 50 51 43 36 36 43 41 32 28 27 26 27 24 21 62 90 93 94 90 95 97 98 98 92 94 89 96 94 96 98 99 97 98 96 94 88 69
70 59 49 45 43 49 52 64 53 50 44 39 41 42 32 26 30 31 29 21 23 57 83 95 90 91 88 92 94 91 98 95 94 92 93 97 98 99 99 98 98 96 91 83
68 62 65 65 69 65 78 56 52 44 60 68 58 71 50 41 35 30 28 25 34 55 66 87 91 89 90 89 90 86 97 93 91 91 94 95 95 97 98 97 95 94 88 87
66 70 74 75 70 65 69 62 55 61 72 74 64 77 59 40 39 33 30 24 31 46 65 85 94 85 84 88 91 88 96 95 88 89 90 91 95 91 98 99 98 96 96 94
60 62 64 64 61 59 60 60 63 65 75 90 63 65 61 44 36 28 25 24 26 46 60 77 89 84 87 88 90 98 97 88 94 91 87 86 90 93 96 98 98 97 98 98
67 67 64 64 75 66 69 78 96 95 95 81 51 58 48 36 33 30 28 23 28 46 66 87 97 94 92 92 92 97 96 95 93 94 95 82 79 86 95 93 94 96 96 96
80 72 65 66 68 74 83 84 94 90 95 85 44 62 45 33 28 26 27 26 27 42 64 86 93 94 93 88 90 95 94 92 92 92 92 92 80 80 84 91 87 87 86 84
78 73 61 66 62 63 78 94 76 99 88 97 80 64 38 57 31 44 43 34 39 48 66 81 86 88 96 90 88 93 92 90 88 92 86 92 92 89 88 84 83 84 82 82
69 76 60 70 64 65 75 80 99 93 96 93 76 66 82 87 72 55 43 39 43 58 67 78 81 88 90 93 89 93 92 91 89 88 88 92 92 91 86 91 89 88 89 88
75 71 74 78 78 80 85 84 97 95 91 96 96 91 76 86 73 69 56 51 60 60 65 73 76 84 88 91 94 95 93 89 87 86 86 86 86 87 83 86 89 86 86 87
89 80 83 80 63 70 79 79 88 99 99 94 92 84 78 78 67 63 58 58 61 61 61 69 77 84 90 91 92 91 87 85 84 85 87 87 86 84 85 87 88 86 82 86
81 76 88 59 74 86 84 83 84 95 96 89 97 78 67 64 67 66 63 68 64 68 69 74 85 88 91 94 92 90 92 90 89 89 92 94 90 87 86 83 82 81 80 80
71 85 82 77 75 89 90 79 78 96 99 96 86 73 81 76 72 70 68 75 80 82 85 89 83 86 92 93 93 90 91 92 91 93 94 96 96 94 91 84 82 84 79 76
81 87 91 84 78 75 77 74 68 73 81 93 65 88 67 87 83 78 74 73 80 85 86 88 91 93 92 91 92 88 92 93 92 94 93 94 95 94 94 93 91 87 84 81
90 90 92 89 68 67 74 55 60 69 74 70 72 83 75 86 86 89 79 74 81 87 86 86 87 87 88 88 89 87 87 88 94 94 95 94 94 93 93 92 92 93 90 87
86 93 97 94 71 75 85 80 73 74 71 66 82 72 84 89 90 90 88 84 81 84 84 86 85 82 83 82 82 85 84 82 85 85 84 83 90 94 94 92 91 91 92 91
88 92 96 98 88 85 60 71 83 85 83 81 69 60 70 89 94 92 84 84 83 81 83 83 80 78 76 75 74 74 73 76 78 80 81 81 83 85 87 90 92 92 90 91
81 92 94 98 97 64 50 80 93 99 94 84 87 87 83 82 80 93 87 81 80 79 79 78 75 75 75 75 74 73 73 73 75 77 78 79 80 84 88 92 93 92 96 96
84 83 89 96 97 86 71 67 72 80 99 94 81 86 86 80 95 99 88 85 78 72 73 75 73 73 75 75 74 76 79 81 81 78 76 75 76 80 84 88 91 93 96 95
96 97 92 87 94 77 59 79 74 99 100 92 94 90 88 95 96 97 85 77 69 70 72 70 72 76 76 73 75 82 81 83 80 78 80 82 79 79 82 85 85 89 92 93
83 96 94 93 94 83 86 75 98 95 92 89 91 91 95 98 92 86 78 76 72 71 68 67 72 76 74 75 77 85 86 77 78 81 83 84 83 81 83 87 87 87 90 93
95 79 89 76 93 91 88 93 92 85 88 86 90 88 84 85 80 76 75 73 73 71 71 67 70 76 78 78 80 88 86 78 78 81 85 84 84 84 84 90 91 91 89 92
99 98 95 90 99 98 95 94 87 83 82 70 68 68 70 75 76 76 74 76 75 74 76 72 74 81 86 83 82 85 82 76 79 82 83 82 86 87 86 84 88 93 93 92
98 98 99 100 100 99 99 99 97 88 76 68 66 68 72 73 75 73 76 77 76 76 76 77 80 83 86 82 85 84 83 76 81 84 84 84 82 84 86 91 91 90 95 93
97 98 98 99 100 99 100 99 96 86 77 71 72 75 73 72 76 74 79 77 77 82 80 80 82 82 82 82 86 88 84 84 83 84 87 91 90 86 83 84 90 87 87 85

GFSCGP_sfc_rhum_084.txt.gz
RH
39 45 53 43 49 42 48 55 55 50 41 44 38 37 34 33 35 35 33 32 32 30 22 42 91 97 98 99 98 95 98 98 96 99 99 99 98 98 98 96 96 95 93 96
61 58 42 36 37 39 42 46 49 45 39 41 48 46 37 36 34 30 31 30 32 32 67 89 97 96 97 96 95 94 88 94 94 98 92 96 99 98 96 95 98 96 96 89
66 58 52 47 50 50 53 60 65 64 56 45 51 49 38 30 30 27 32 31 32 28 50 94 97 96 96 96 97 92 89 85 88 94 94 98 99 99 99 99 98 97 95 86
67 55 59 58 56 53 81 62 64 63 66 77 61 81 41 41 42 40 37 37 33 29 49 85 94 95 92 93 91 90 89 84 88 95 94 95 98 98 99 99 97 97 92 84
63 77 79 77 69 64 73 69 73 72 78 75 69 83 57 44 41 41 38 35 32 28 57 82 93 91 84 87 90 87 92 89 92 95 92 94 95 96 98 99 98 98 95 88
56 64 62 56 62 62 62 70 69 66 62 89 64 66 68 53 45 39 34 32 28 27 62 80 94 87 83 84 85 89 94 86 88 92 94 92 94 98 98 99 98 98 97 96
68 70 65 64 70 70 73 86 92 94 91 88 55 68 58 42 36 33 35 32 30 27 66 90 97 94 87 91 89 91 88 87 91 95 90 90 91 95 95 96 98 98 97 97
80 68 67 67 64 72 86 86 81 93 92 87 67 68 53 67 59 58 54 44 37 35 59 79 92 92 85 88 90 88 87 85 88 94 91 86 85 91 92 91 94 97 96 95
74 72 69 69 68 65 80 92 80 94 85 93 83 68 61 67 70 66 65 57 57 45 60 73 91 90 85 87 88 87 88 86 88 91 92 90 86 84 89 91 90 92 96 95
68 76 67 76 68 71 74 83 99 98 99 96 77 81 79 85 77 72 74 69 68 60 46 83 95 89 87 84 87 89 94 94 86 94 92 92 91 85 83 87 96 95 90 86
69 67 75 78 84 88 90 90 96 95 98 98 98 87 76 78 75 69 71 73 80 66 74 85 91 94 88 83 85 93 96 97 97 89 93 88 92 94 96 94 95 95 94 92
86 79 88 75 64 74 80 80 72 99 95 95 96 88 79 76 70 59 62 72 82 71 76 84 92 92 89 87 85 88 98 97 96 97 95 92 93 92 89 88 90 94 92 94
81 82 78 53 72 88 90 82 93 96 98 97 99 80 67 58 58 60 63 77 81 86 91 96 91 89 87 86 86 86 97 96 96 96 94 94 93 91 94 93 89 91 91 90
67 87 68 64 70 85 96 75 71 84 99 88 87 82 55 70 72 67 77 79 85 85 88 94 96 96 91 88 84 85 92 94 95 96 97 98 97 95 92 89 90 89 84 87
73 82 91 86 77 79 77 78 75 82 74 84 65 68 61 65 79 87 81 77 87 91 92 93 92 95 94 94 92 92 95 96 95 97 97 97 97 96 96 95 94 93 90 83
90 94 94 91 72 67 79 62 56 58 59 69 68 74 56 58 84 86 82 80 89 93 92 90 90 90 91 90 90 89 88 88 94 97 97 87 97 97 97 96 96 95 95 95
89 95 97 96 73 80 72 71 76 71 68 68 82 66 70 81 87 92 89 84 88 91 90 89 89 88 85 83 80 82 81 83 85 86 82 84 88 94 96 95 95 95 95 94
88 85 95 97 85 85 50 84 86 88 79 62 78 79 80 90 94 92 91 90 90 89 87 84 84 84 80 75 74 74 71 74 77 80 80 80 83 86 86 89 93 95 95 96
84 92 94 97 96 67 56 86 84 94 81 80 91 84 79 87 81 95 86 89 94 85 81 79 78 78 79 75 72 74 74 73 76 79 79 79 80 83 86 89 91 93 95 94
91 84 87 93 94 89 54 82 76 83 97 95 92 88 92 78 96 99 96 86 95 94 80 78 76 78 77 76 73 77 80 80 83 82 81 77 80 83 87 89 91 92 92 90
96 88 88 91 85 81 76 88 75 97 99 99 97 96 96 97 98 100 99 98 96 97 92 78 76 81 81 75 77 81 80 88 82 82 82 82 80 84 83 85 85 88 90 90
82 93 84 86 94 89 90 84 88 98 98 100 100 100 100 100 100 99 96 90 81 78 77 80 85 87 82 79 80 84 85 78 79 83 84 84 84 82 83 88 88 87 89 91
97 98 99 83 94 95 95 96 95 95 99 98 99 99 100 98 97 96 91 81 81 82 83 77 80 85 86 82 83 88 83 76 78 81 85 85 82 82 85 91 91 90 88 90
88 98 97 99 99 98 98 96 95 96 98 97 98 98 96 93 93 90 83 79 82 81 83 77 78 83 87 84 84 87 81 77 79 84 85 83 86 86 84 83 86 91 92 89
96 96 96 100 100 90 96 99 99 96 96 92 92 92 92 82 86 84 82 80 80 79 79 79 82 84 88 84 87 86 84 77 80 81 82 85 84 85 86 90 91 90 95 90
96 98 97 99 100 99 98 97 97 93 90 80 78 79 76 74 79 76 80 79 79 81 77 79 79 81 85 84 86 86 84 80 81 82 85 90 91 89 86 86 91 87 87 87

GFSCGP_sfc_rhum_087.txt.gz
RH
35 40 42 35 33 25 37 42 42 36 28 29 28 28 27 26 24 26 25 24 24 24 20 21 26 50 68 75 78 80 88 90 92 95 98 98 98 97 98 95 91 90 94 94
49 46 37 34 35 36 33 34 36 36 32 38 41 40 31 28 26 24 25 25 24 23 21 24 44 66 72 75 77 83 78 87 84 82 88 90 97 96 94 94 90 92 93 96
53 47 43 35 37 38 39 41 46 46 46 42 43 37 30 26 25 24 24 24 22 22 22 23 53 69 74 78 83 84 75 76 82 81 82 88 93 97 98 98 98 95 93 94
53 43 53 49 49 45 54 44 46 57 58 49 45 44 28 30 30 28 28 28 27 24 24 25 46 67 74 78 84 80 76 74 74 77 76 83 84 91 97 95 97 98 96 97
52 65 64 57 54 48 56 56 56 56 60 62 56 62 40 32 28 28 28 28 29 28 26 26 50 62 71 82 85 83 78 74 75 88 85 85 85 90 92 99 98 97 96 92
43 54 57 54 56 54 54 54 56 58 58 73 52 51 39 34 36 46 46 40 32 28 27 36 60 70 70 79 86 86 89 78 82 86 86 84 86 89 97 99 98 98 97 94
64 61 55 56 57 60 56 64 72 77 77 59 48 55 43 38 59 61 61 54 48 41 32 62 73 72 75 85 85 91 88 77 82 87 87 86 86 85 90 98 97 97 97 97
56 65 62 59 51 59 67 65 63 64 73 63 58 58 39 61 56 54 55 56 57 58 51 57 68 73 75 80 86 87 84 75 83 85 86 86 85 88 89 91 98 96 95 94
59 66 60 60 57 55 75 79 63 82 73 73 50 47 45 53 51 51 53 56 64 66 62 49 66 74 76 79 87 85 82 75 84 84 86 85 84 88 90 89 93 98 96 96
56 76 62 64 57 59 64 66 92 89 90 87 53 51 45 64 63 56 58 61 68 72 65 49 59 75 75 73 84 86 80 77 80 83 84 83 83 81 85 89 92 94 98 96
55 57 72 73 71 72 77 81 85 92 94 82 75 52 63 65 55 61 62 64 78 80 72 71 70 72 71 79 86 87 84 79 87 85 78 87 85 87 82 82 83 89 94 95
71 64 67 62 56 61 66 67 65 89 89 94 87 64 59 46 50 57 67 70 79 80 80 78 78 79 80 85 88 89 86 82 82 79 79 83 90 89 88 83 82 84 80 80
66 68 53 84 73 73 75 93 90 84 87 86 92 59 53 35 43 51 73 75 78 84 87 83 86 86 85 86 87 86 84 83 83 79 79 85 88 89 90 89 88 86 80 78
67 72 52 41 60 70 78 65 55 73 79 58 61 54 45 39 43 53 76 75 76 84 85 90 85 86 86 87 85 86 82 77 78 78 76 84 87 84 85 84 85 86 82 77
66 68 72 66 64 66 63 60 59 65 57 64 44 44 43 48 50 67 74 73 77 85 87 89 93 94 92 90 86 78 82 78 76 77 75 75 77 76 77 78 78 78 78 75
77 81 80 64 60 57 58 51 48 49 53 52 53 61 48 50 53 80 77 75 82 85 86 87 88 89 90 89 90 88 90 86 79 85 87 85 83 80 81 81 81 82 80 75
80 84 85 74 64 60 54 55 50 49 56 65 72 56 52 70 93 92 87 82 87 88 86 87 89 90 87 85 81 85 82 82 82 84 84 86 90 91 92 92 90 88 89 89
81 77 85 77 73 52 44 40 63 75 68 64 73 76 66 88 92 90 88 87 91 90 89 88 87 88 83 81 78 80 78 79 80 81 81 81 84 86 85 88 92 95 94 96
72 78 85 84 73 50 50 75 67 80 74 93 95 92 87 89 82 95 91 94 98 99 93 92 87 82 81 80 79 78 79 80 81 82 82 82 83 85 87 92 93 92 91 92
77 75 76 82 74 68 44 72 67 77 90 95 95 94 91 85 95 97 98 95 95 100 99 93 87 84 82 79 76 83 82 80 86 84 81 79 81 83 88 90 92 89 87 88
85 80 78 76 75 62 91 83 74 89 99 99 98 98 97 95 97 100 99 96 97 99 100 96 90 87 85 81 80 86 78 85 79 76 78 80 78 82 82 84 84 86 88 88
70 81 81 70 82 79 93 72 91 98 100 100 100 100 98 98 98 98 97 96 94 94 96 98 95 91 83 81 77 81 82 76 76 79 79 79 80 78 77 81 84 83 86 88
94 97 90 95 94 96 95 96 97 99 100 100 100 99 97 97 97 96 93 90 91 93 92 88 88 92 92 86 84 88 80 73 77 78 79 79 76 75 76 82 84 84 82 86
85 82 92 96 97 94 92 92 94 96 97 97 97 97 95 94 95 94 90 87 79 77 78 72 79 86 90 88 90 92 87 78 75 75 75 74 76 74 72 73 78 82 85 85
89 89 92 99 99 94 92 96 97 96 96 94 95 94 94 90 90 90 90 90 88 81 79 76 76 78 80 76 79 80 79 75 77 76 74 74 74 74 78 82 80 82 88 80
90 95 94 94 98 92 96 96 95 93 93 90 81 79 75 74 79 76 80 78 75 76 74 75 77 78 81 78 81 78 74 70 72 74 77 80 78 75 69 69 78 87 85 85

GFSCGP_sfc_rhum_093.txt.gz
RH
22 17 19 17 17 14 15 14 14 10 7 14 16 14 10 9 8 9 9 9 9 9 8 9 11 12 12 13 17 27 39 64 80 85 88 85 88 88 89 89 87 88 88 89
23 26 15 15 14 17 20 19 22 14 9 10 11 15 12 10 10 11 11 10 9 9 8 8 9 12 16 16 20 30 35 48 75 79 71 62 71 70 76 83 90 88 90 91
24 19 16 17 16 21 22 24 21 16 14 13 17 18 15 11 10 10 10 10 10 12 12 11 10 12 16 19 25 29 34 42 70 69 60 60 69 79 88 87 86 88 86 90
19 16 18 24 19 21 30 18 19 22 22 25 20 21 14 11 10 12 13 18 22 23 19 18 13 13 15 19 27 31 34 44 70 60 52 61 74 80 76 78 81 92 90 90
20 13 21 30 23 20 29 20 20 22 29 31 24 23 16 11 10 14 20 24 24 25 24 22 16 14 12 17 26 36 36 41 58 54 49 58 62 54 58 72 81 87 94 92
22 10 19 22 24 23 19 26 31 33 35 40 27 22 15 13 20 27 28 27 27 27 27 24 19 16 13 15 32 42 42 42 50 52 53 56 58 53 51 69 81 90 96 97
22 16 39 23 26 25 28 40 53 49 42 37 16 18 17 19 29 31 30 28 29 30 31 29 25 17 16 20 38 48 46 44 49 54 56 55 56 56 59 64 78 90 97 98
40 30 30 28 28 32 33 35 40 40 38 27 18 28 16 22 27 25 27 28 29 32 37 33 28 28 26 31 54 58 46 45 48 55 54 53 52 57 56 71 82 89 96 94
36 31 19 25 22 26 36 44 27 42 42 45 33 21 29 25 34 30 27 29 32 36 43 41 36 30 34 47 69 74 49 45 51 55 57 57 59 61 67 74 85 93 94 96
69 57 36 24 23 24 31 26 53 48 53 43 21 16 42 44 36 26 25 33 36 43 52 61 44 31 36 58 73 79 60 53 53 56 57 60 65 63 68 81 92 94 96 96
64 62 50 31 36 30 37 53 43 40 36 46 40 40 41 32 25 24 25 32 40 51 64 73 64 44 40 55 70 79 66 57 59 55 62 68 65 66 72 75 90 94 96 95
57 82 69 36 28 21 29 37 42 56 56 40 54 54 32 29 20 23 28 34 41 51 66 75 79 70 63 68 72 80 70 64 66 58 66 69 65 70 71 77 92 92 94 94
97 92 87 85 60 45 39 34 33 49 49 59 57 40 26 18 21 26 30 38 42 55 65 76 78 87 79 78 81 80 77 71 66 65 70 67 66 72 75 77 83 93 92 93
99 91 72 68 48 52 65 53 45 47 60 42 38 27 23 23 28 30 40 47 47 56 69 79 82 82 84 85 82 83 81 74 66 66 68 65 64 68 69 68 75 87 86 92
96 66 49 48 37 33 40 40 37 43 41 38 28 24 24 34 40 41 52 52 55 61 71 81 85 85 84 86 88 83 81 78 71 73 67 70 63 65 67 70 68 68 76 82
86 65 36 34 26 24 30 28 26 26 26 25 26 29 36 36 43 62 67 64 64 70 72 80 84 84 87 87 88 89 92 82 62 72 77 68 62 69 72 72 75 76 73 71
77 40 36 47 26 25 35 27 26 25 31 47 53 50 40 46 66 91 88 80 81 76 79 82 86 89 89 90 88 88 88 84 85 86 86 85 86 89 92 83 85 86 86 84
81 44 45 54 43 58 41 29 30 45 58 52 50 49 49 58 88 88 89 89 90 91 93 88 90 92 93 90 92 86 80 82 84 86 86 84 85 87 87 88 91 94 93 94
46 53 50 54 41 33 42 40 44 49 87 70 67 59 58 79 69 85 88 89 94 95 93 100 98 97 99 93 96 88 85 82 84 87 88 87 86 88 88 92 92 91 92 93
43 43 57 48 42 51 69 46 44 50 98 81 70 73 86 85 94 93 93 93 94 97 98 97 100 97 97 94 87 98 92 89 93 93 87 85 87 88 91 92 93 91 90 91
51 56 59 56 51 68 64 50 48 92 100 83 78 84 92 91 95 99 97 96 97 98 97 97 97 97 98 99 91 93 96 98 98 95 96 90 86 90 91 92 92 93 94 92
65 80 72 61 59 81 68 51 84 97 99 98 86 100 92 100 100 100 100 98 97 97 96 97 97 97 97 99 96 97 96 99 100 100 93 94 93 88 84 85 95 93 93 96
79 72 85 78 85 87 73 83 87 85 92 97 89 94 100 98 98 98 95 90 92 96 96 96 97 97 97 96 99 96 99 98 99 97 97 95 95 95 92 86 88 89 82 87
94 61 88 85 91 77 72 74 81 84 97 95 95 96 96 95 96 94 92 90 89 88 88 89 90 95 97 97 96 99 100 100 97 98 96 96 94 93 88 78 79 85 88 87
80 82 82 88 89 84 85 92 92 91 95 92 94 95 94 91 92 92 92 91 92 92 91 91 91 89 92 91 94 95 98 98 94 92 96 91 83 82 81 85 84 83 90 89
79 96 92 94 97 90 95 92 88 88 91 88 82 84 83 82 86 79 77 72 68 70 70 72 75 76 77 81 85 82 88 93 95 95 91 86 83 84 86 83 86 85 84 82

GFSCGP_sfc_rhum_096.txt.gz
RH
24 26 23 18 17 16 16 17 17 14 9 12 14 15 11 13 13 11 11 12 12 12 11 10 16 22 24 27 29 36 59 83 83 82 88 92 91 86 89 89 86 85 88 87
22 30 23 15 12 14 17 19 19 15 12 14 13 12 9 9 9 10 10 10 10 11 10 10 12 21 29 27 30 38 48 82 82 80 80 81 86 88 89 93 92 91 90 90
19 18 16 18 18 16 18 20 19 20 15 13 14 14 14 12 12 11 11 11 11 12 12 15 17 22 27 32 37 36 41 75 77 78 79 78 81 83 92 95 96 92 92 92
23 15 12 14 19 16 22 15 18 22 23 25 14 24 16 13 13 12 12 13 15 22 24 24 23 25 27 32 39 36 39 43 74 75 79 80 80 86 83 87 88 93 88 90
25 21 21 17 17 16 22 16 20 23 24 25 24 26 19 15 14 13 21 25 32 30 30 30 29 26 22 27 45 45 41 40 73 75 73 75 76 78 80 84 88 89 90 90
21 15 17 19 12 17 24 20 24 26 28 42 28 28 24 19 14 19 28 27 30 32 34 31 30 29 24 27 41 48 45 48 72 73 74 70 78 74 74 80 90 92 94 95
36 27 23 17 14 30 28 37 66 72 57 57 26 24 24 19 29 29 28 30 35 38 44 45 34 29 27 29 43 51 46 47 68 72 69 70 73 73 71 80 87 92 97 97
68 50 25 23 28 51 45 39 63 65 58 45 25 30 28 19 25 25 31 32 37 43 48 53 62 46 34 37 51 54 50 48 59 65 66 70 76 71 72 78 87 92 94 94
68 48 25 23 37 50 49 53 45 62 46 70 73 22 32 32 34 28 29 35 44 47 54 62 63 62 38 60 67 66 56 50 56 65 76 73 72 70 76 83 85 91 91 91
65 91 39 31 34 50 48 37 52 53 93 84 78 55 75 60 38 25 26 40 47 51 60 69 67 71 66 66 72 73 70 61 66 74 75 74 76 73 82 84 88 88 94 95
46 75 58 61 60 51 32 56 47 52 51 76 58 62 66 62 35 29 35 40 53 58 66 72 74 72 78 68 73 76 73 76 76 71 74 79 76 79 81 84 91 93 96 96
55 100 82 77 43 43 21 41 56 65 56 42 70 93 76 46 28 37 39 41 52 56 65 72 78 75 77 87 71 77 76 82 79 75 74 81 82 80 82 84 91 95 96 94
90 76 94 79 64 35 27 25 39 62 52 83 77 92 74 54 39 48 53 49 52 57 64 71 78 81 82 83 86 76 87 85 79 74 79 81 85 81 80 88 91 93 95 95
96 88 87 90 66 41 43 34 51 62 70 62 59 76 56 43 46 58 57 53 54 58 64 72 80 84 84 84 85 90 90 85 83 78 78 82 83 82 81 84 91 93 92 94
99 94 99 96 88 57 69 67 82 72 53 49 37 48 48 48 61 62 60 60 63 66 70 74 82 85 86 86 85 83 85 89 86 83 78 82 80 81 76 84 89 90 91 90
98 94 90 92 67 50 77 82 68 35 36 32 33 41 45 48 69 75 76 74 79 80 78 78 80 86 88 89 89 86 88 89 87 84 84 82 80 78 83 83 83 89 91 90
99 100 57 45 23 28 45 31 28 53 56 54 69 60 52 69 87 92 86 82 83 82 85 83 84 88 91 92 92 92 90 87 89 88 89 90 91 90 94 90 91 93 95 90
98 93 43 53 45 74 47 34 48 73 72 65 61 61 61 85 85 84 86 88 86 86 87 86 86 90 91 89 92 91 88 88 88 88 89 88 89 91 90 90 93 95 94 94
60 56 53 54 71 75 63 53 56 68 95 77 74 70 71 90 72 88 88 92 95 95 93 94 90 94 93 95 95 90 91 91 91 90 90 89 89 90 90 92 94 94 94 94
36 43 50 49 47 72 75 58 46 48 94 84 78 83 84 84 94 93 93 94 95 97 96 94 93 88 93 98 98 94 94 95 96 94 92 90 90 90 93 93 94 92 91 93
66 60 66 63 67 76 72 56 45 86 99 93 83 85 85 89 94 97 96 95 97 97 97 94 95 96 97 99 98 97 96 97 98 92 90 91 92 93 92 92 90 90 91 90
72 94 83 74 88 83 72 59 80 98 98 94 90 92 93 95 96 96 95 95 94 95 95 96 96 96 97 97 97 97 97 98 98 94 94 94 94 91 92 97 97 93 92 93
86 78 88 80 90 87 79 92 95 86 88 92 91 93 88 92 95 95 94 92 94 96 96 96 96 96 96 96 97 96 98 98 97 96 96 96 96 97 96 95 96 95 96 95
82 65 84 86 85 78 79 80 90 86 90 90 94 93 89 93 94 96 94 92 92 93 94 94 94 95 96 96 96 98 98 99 97 96 96 96 95 95 95 94 94 95 95 96
81 77 82 88 86 79 80 90 94 92 92 91 94 93 91 87 91 92 94 93 94 94 92 91 93 94 95 95 96 96 98 96 96 97 98 96 93 95 94 94 94 93 96 96
80 92 92 95 97 86 94 95 89 86 91 89 84 86 89 87 89 80 78 72 71 75 70 68 70 75 78 84 86 90 82 84 94 94 94 95 96 95 93 92 92 92 93 92

GFSCGP_sfc_rhum_099.txt.gz
RH
21 37 49 32 25 23 25 28 26 20 17 20 19 18 14 14 13 12 16 16 14 18 14 13 16 20 17 18 17 61 84 85 85 90 96 96 94 92 92 90 93 84 93 92
24 26 23 29 24 22 23 24 23 19 17 18 19 19 18 15 14 12 13 12 11 12 12 12 12 14 26 24 28 66 79 88 82 87 85 90 92 93 90 98 94 84 91 92
34 24 18 19 25 30 28 25 21 22 20 22 25 24 20 14 12 10 10 8 9 10 12 13 12 13 20 29 29 70 83 88 85 88 89 96 96 95 99 98 98 97 91 89
29 23 24 25 26 18 20 21 20 19 22 38 28 38 22 16 13 12 11 11 12 15 15 26 32 38 32 29 32 64 86 88 87 86 88 92 92 92 90 89 91 96 96 95
18 17 23 27 24 22 26 18 28 22 24 39 32 37 26 20 19 17 17 14 13 20 44 54 51 37 34 32 39 53 86 86 86 87 88 87 92 86 86 94 97 95 96 96
12 15 29 34 30 22 19 23 39 49 41 53 37 37 33 25 20 19 37 48 50 53 57 58 59 63 63 49 41 47 77 83 87 86 89 88 86 92 88 94 96 97 96 95
38 36 30 28 34 32 36 33 80 84 76 70 33 38 35 23 19 44 60 58 60 63 64 67 69 70 71 72 49 56 57 86 87 87 87 87 87 87 90 93 96 98 97 98
74 75 45 36 44 58 41 42 89 81 81 61 35 45 31 20 24 78 57 60 67 73 69 73 72 75 77 75 62 55 80 88 89 88 87 90 85 80 79 87 95 96 92 90
78 53 38 37 43 44 68 74 53 92 67 90 69 52 47 61 63 72 64 69 75 72 72 76 76 76 80 86 88 87 77 83 87 90 90 91 85 85 87 88 92 97 97 97
72 85 38 31 53 57 58 52 86 94 94 90 80 83 96 93 91 84 72 74 74 72 74 75 75 78 80 87 89 92 90 89 83 87 83 83 84 85 89 87 94 95 96 95
58 73 61 56 64 69 83 82 78 76 69 96 95 99 97 97 83 80 70 69 72 73 74 73 75 79 80 84 87 88 90 92 92 81 81 84 87 91 91 91 93 94 96 97
83 96 94 63 42 60 60 73 71 93 75 63 86 98 81 87 80 66 61 62 65 68 71 70 74 76 80 82 79 80 84 90 92 87 85 88 91 88 91 94 96 97 97 97
88 90 95 71 63 59 66 54 55 69 81 79 92 98 86 75 66 63 68 67 69 69 70 73 74 81 81 82 82 80 83 93 90 88 87 91 90 90 93 94 96 96 97 97
93 95 87 82 60 63 87 69 53 68 84 94 97 99 79 76 76 74 73 73 73 71 71 75 79 83 83 83 84 83 84 87 91 89 88 92 92 91 92 92 95 95 94 96
100 96 90 83 66 71 75 77 84 93 99 99 96 87 86 84 78 78 73 71 71 73 75 79 83 87 86 87 86 84 84 87 88 93 88 93 88 87 88 94 95 94 94 93
99 97 99 98 88 86 99 84 90 93 84 86 76 80 74 70 72 76 77 73 76 77 78 81 83 84 88 88 90 87 87 88 86 89 94 92 90 88 91 94 95 96 95 94
100 100 95 98 83 80 95 83 73 78 76 70 91 82 74 81 83 89 85 80 82 82 83 85 86 87 89 92 90 91 88 84 87 88 88 90 91 92 93 90 91 93 96 92
100 100 93 81 66 89 90 67 73 85 80 72 74 77 84 87 89 86 87 85 86 85 87 86 88 89 91 91 90 88 84 86 87 91 90 88 90 91 92 92 94 95 94 95
81 90 83 79 95 83 67 68 80 87 95 81 84 78 85 86 73 90 88 87 94 96 95 96 94 93 91 92 93 89 89 88 89 92 92 91 90 91 91 94 95 94 94 95
55 67 79 72 87 92 86 72 61 66 97 84 80 82 79 76 91 97 94 93 94 95 96 96 96 89 92 95 89 92 96 91 95 97 93 90 91 90 94 94 95 94 93 94
76 83 92 92 94 85 85 72 59 85 100 91 83 89 93 94 96 97 93 93 95 97 97 96 93 95 97 97 90 95 94 96 97 96 94 95 94 95 92 93 92 93 94 92
87 97 94 89 89 87 84 65 85 99 96 92 93 96 97 97 96 96 96 96 96 96 96 96 95 95 95 96 95 93 96 98 97 96 95 96 97 95 93 94 93 92 91 93
92 99 93 93 94 95 84 92 91 89 94 95 92 92 94 95 96 96 96 93 95 96 96 96 96 92 92 93 95 94 98 97 97 95 96 96 96 96 97 96 95 93 93 91
86 75 92 92 93 91 90 81 84 91 96 94 93 92 91 95 96 96 94 95 95 93 93 92 89 91 94 94 93 97 97 97 97 95 96 96 95 95 96 94 94 95 96 96
92 88 91 96 92 87 89 93 93 92 93 93 96 96 96 92 95 93 94 94 92 91 89 87 90 89 93 94 94 95 96 95 96 96 97 96 94 95 95 95 95 94 96 96
90 98 98 100 94 92 96 95 91 93 94 94 91 91 92 90 91 81 81 72 71 75 74 75 76 78 81 83 90 82 85 83 88 92 94 96 97 96 94 93 93 94 94 95

GFSCGP_sfc_rhum_102.txt.gz
RH
24 27 38 48 32 29 26 25 26 21 19 23 22 20 19 18 17 17 15 18 20 20 17 18 19 20 19 22 21 49 82 88 92 94 94 96 96 97 98 97 96 96 96 95
28 31 24 28 37 32 31 31 30 24 21 21 21 20 18 19 16 16 17 17 18 18 14 13 14 17 24 21 24 48 76 89 87 90 88 86 87 96 95 96 93 92 93 93
42 33 24 26 28 29 32 37 36 33 26 22 23 24 21 19 18 16 14 13 13 12 11 12 13 15 19 26 29 47 63 85 86 85 88 98 96 99 100 98 95 92 95 94
31 25 25 23 24 26 34 26 27 27 26 40 33 40 23 23 21 18 15 14 12 12 11 29 55 70 70 47 36 41 55 83 83 86 89 93 90 92 90 92 94 95 92 94
23 19 18 20 17 15 22 32 31 27 33 66 40 48 29 26 24 21 18 43 43 54 74 80 79 78 78 79 74 86 71 83 82 89 86 92 92 90 95 96 97 98 97 96
20 17 17 21 30 35 33 38 35 37 72 78 55 57 39 31 27 22 68 75 78 78 78 76 77 76 80 80 83 82 94 89 89 88 87 89 93 94 97 96 96 98 98 98
40 42 34 32 46 43 46 51 71 89 88 72 41 47 37 41 32 27 73 84 82 85 86 84 83 84 82 86 89 69 95 90 90 89 90 90 92 92 94 95 96 97 98 98
82 66 45 39 42 48 46 74 74 82 83 66 41 55 58 79 74 77 79 89 79 81 82 82 80 81 83 82 86 95 94 92 92 93 94 92 93 92 90 93 96 96 94 95
80 67 44 40 37 63 69 76 56 74 62 72 73 52 62 69 80 80 84 82 85 76 78 76 75 79 83 84 84 89 90 90 95 94 95 96 95 93 92 93 93 94 95 95
72 83 45 38 42 48 71 50 85 90 87 83 74 75 99 96 93 91 92 90 81 75 74 72 77 76 79 82 85 87 86 92 94 96 94 94 94 96 96 95 96 97 98 97
61 78 60 55 60 66 82 92 78 76 88 80 90 99 100 100 97 96 91 80 77 75 76 74 74 77 79 80 82 83 82 89 94 97 97 96 96 94 96 95 96 96 97 97
86 94 89 68 47 40 63 84 77 91 66 77 94 99 99 99 98 88 77 72 71 70 74 77 74 78 81 81 78 82 83 86 89 93 96 96 93 92 94 95 96 96 97 97
80 85 93 70 70 69 87 91 82 83 99 91 98 99 95 93 82 71 74 70 69 69 73 78 79 80 81 82 82 80 83 87 88 89 95 96 95 95 97 96 96 97 97 97
86 92 88 84 60 58 74 85 84 79 94 94 97 98 89 80 82 76 71 68 68 70 75 78 80 82 84 84 85 84 84 86 89 90 96 95 97 96 96 95 94 96 97 98
100 98 93 89 73 66 65 92 95 97 99 95 97 94 90 86 81 77 69 68 72 75 76 79 82 85 85 89 87 84 84 86 89 88 91 94 95 94 95 95 95 97 96 95
81 98 99 96 82 79 91 100 84 81 93 96 90 87 77 71 68 75 78 74 78 79 78 79 80 82 87 88 90 87 87 86 85 87 88 88 90 94 95 98 98 96 94 95
92 99 98 98 93 93 91 98 85 82 81 75 86 91 68 77 80 89 87 83 85 84 83 85 87 88 90 90 87 88 87 84 86 89 86 88 89 92 93 90 91 94 97 94
99 99 98 98 94 86 99 95 73 81 82 77 78 90 78 87 93 92 92 87 86 87 88 88 90 89 94 87 86 82 79 84 86 88 89 89 91 91 91 92 94 95 94 96
96 98 95 97 92 96 78 76 88 88 92 87 84 86 91 92 66 91 91 93 95 95 94 96 95 94 91 92 87 83 84 83 86 92 93 94 96 92 91 95 95 94 94 95
78 89 97 95 85 90 88 72 63 70 97 90 82 84 80 82 90 96 94 92 94 96 96 96 95 89 92 96 86 90 90 89 94 95 94 94 95 96 96 94 95 93 92 94
81 86 89 91 89 86 87 72 60 86 97 93 88 91 93 93 97 97 95 94 96 97 96 93 91 95 96 94 88 90 90 95 97 96 95 95 94 96 96 94 94 94 93 92
88 98 91 85 83 83 87 64 81 97 95 94 93 97 96 97 97 97 95 95 94 94 93 92 93 94 93 93 90 92 95 96 96 95 95 96 96 96 97 96 95 95 94 92
93 98 94 92 93 93 89 93 94 90 93 96 92 94 95 95 97 96 96 93 94 95 94 93 93 92 92 92 93 93 97 96 94 92 95 96 96 96 96 96 96 94 96 96
89 82 91 87 96 94 92 91 91 94 96 95 94 95 92 96 95 95 93 93 93 93 93 90 88 92 94 94 93 95 93 94 95 94 95 96 95 95 96 95 95 94 96 96
93 92 92 96 95 91 92 96 94 95 96 96 95 94 95 92 94 94 94 90 90 88 86 85 89 91 93 91 93 92 90 88 91 92 95 94 93 95 95 95 95 95 97 97
93 98 99 94 96 93 96 97 93 96 95 88 89 93 92 91 92 82 79 74 73 74 73 76 75 80 84 85 88 89 86 86 89 91 90 92 93 92 91 92 93 93 94 94

GFSCGP_sfc_rhum_108.txt.gz
RH
34 32 44 40 42 42 38 49 54 46 38 40 38 33 27 25 26 24 23 21 20 19 15 16 18 20 25 29 28 29 32 54 93 94 96 94 92 95 95 92 92 93 92 93
39 40 28 25 31 39 41 48 51 40 35 34 36 30 23 22 25 26 22 21 20 21 78 75 58 26 24 23 28 32 32 30 83 80 83 86 88 93 92 93 94 95 92 92
44 39 30 29 35 38 44 47 46 38 30 30 32 31 22 21 21 21 23 22 56 92 94 89 81 91 94 95 94 67 40 37 70 78 84 94 95 98 98 98 96 96 93 91
26 25 22 23 23 24 25 24 27 25 30 30 40 44 26 26 28 24 21 23 96 93 85 82 80 80 85 89 92 93 93 54 73 86 88 84 86 88 86 87 88 92 94 94
30 27 29 30 26 21 25 22 24 28 54 59 36 45 26 24 27 42 81 89 87 79 79 79 77 77 74 73 81 87 90 91 63 87 83 88 90 81 85 91 89 90 93 95
28 29 25 26 24 28 30 44 46 47 60 64 34 36 35 44 99 93 87 80 82 77 75 76 74 74 77 74 75 81 82 92 64 87 87 91 88 86 95 92 95 94 96 96
51 46 43 41 52 46 47 55 82 82 94 59 33 44 53 98 96 96 96 88 84 82 84 84 84 85 84 83 80 78 78 88 92 92 92 92 87 90 90 91 90 93 96 98
78 64 54 46 49 56 58 56 69 72 73 64 41 61 95 86 77 87 93 95 88 80 81 84 92 86 87 86 87 85 84 86 88 96 87 92 94 96 95 92 89 90 92 93
66 73 46 35 34 45 68 70 47 58 51 68 69 62 77 69 74 82 94 93 95 92 87 86 86 90 88 89 88 92 88 86 89 92 96 97 96 96 96 96 93 91 94 96
71 83 44 40 46 48 58 58 84 86 98 96 74 84 96 93 88 87 94 95 94 93 94 92 89 94 91 89 89 90 88 88 89 92 96 98 98 97 97 97 97 96 96 97
74 79 58 61 61 58 76 83 75 75 88 95 94 96 100 97 96 95 95 92 98 95 96 97 96 92 99 86 89 87 89 89 92 91 93 98 99 97 98 98 98 98 98 98
70 95 86 66 47 51 50 66 79 95 94 80 89 98 96 95 97 90 79 75 75 95 94 97 97 87 88 85 83 86 89 91 91 91 94 99 99 98 98 98 98 98 99 98
81 88 95 64 85 78 79 93 98 97 96 97 94 99 92 94 74 70 82 82 79 78 84 82 80 80 83 82 84 82 86 88 90 89 91 94 97 99 99 99 98 99 99 99
72 87 86 74 47 53 83 81 95 96 97 94 98 97 93 92 76 75 78 80 86 79 81 81 78 80 81 82 83 84 82 84 87 84 89 93 94 97 99 98 98 98 97 98
89 95 92 86 69 72 97 96 92 99 94 96 97 94 94 92 83 88 89 78 80 84 81 82 84 86 84 84 82 79 80 82 84 86 88 93 91 90 94 96 98 99 98 98
100 94 98 92 75 97 95 95 88 88 95 95 92 90 85 86 85 84 82 81 83 86 81 80 81 84 89 87 86 82 82 83 83 90 93 91 91 89 91 92 90 92 91 91
98 98 98 97 88 86 88 97 95 87 84 83 82 88 86 85 82 88 87 87 88 89 87 87 91 93 93 93 90 89 82 85 83 91 97 95 97 98 90 86 88 92 94 92
98 98 97 96 96 91 95 96 78 82 82 80 82 87 87 88 93 92 93 93 87 87 87 87 91 91 93 91 89 84 78 80 85 86 91 94 98 98 93 88 91 92 92 94
100 98 97 97 92 93 94 83 87 91 92 87 86 87 85 89 92 85 88 93 96 96 95 96 95 94 90 92 91 83 85 82 84 89 90 90 90 95 96 94 94 95 91 92
97 100 98 97 79 92 89 77 72 78 95 88 81 83 84 91 89 95 92 94 94 96 96 96 94 88 90 94 90 90 90 89 93 94 94 90 91 92 93 95 96 97 94 95
95 97 94 89 87 89 84 83 81 96 94 90 82 88 91 92 98 98 95 93 95 96 96 94 93 94 95 94 90 92 91 95 95 92 91 92 92 95 97 95 96 94 96 96
87 96 92 82 84 90 82 76 85 97 93 89 90 96 98 98 97 96 96 96 95 96 94 94 94 95 94 93 92 94 96 94 90 89 91 91 92 92 92 92 94 94 93 93
92 92 87 93 92 93 92 93 95 88 92 94 92 93 95 98 97 96 96 94 95 96 96 94 96 93 93 93 94 96 97 93 88 90 91 92 90 92 91 92 92 92 90 91
95 86 89 88 94 92 88 85 92 92 97 96 94 96 92 97 96 97 96 95 94 94 95 93 92 94 95 93 93 96 93 88 89 91 90 92 92 92 92 90 90 90 91 92
92 90 81 93 93 88 91 94 87 95 95 96 95 94 96 92 96 94 96 94 93 92 92 91 92 92 93 91 91 91 90 90 86 90 91 91 90 92 93 94 93 92 95 91
95 94 97 96 88 90 89 98 92 95 97 94 90 93 94 88 89 86 85 77 75 77 78 80 78 79 83 84 88 87 83 83 89 90 89 89 88 92 92 94 92 78 80 80

GFSCGP_sfc_rhum_111.txt.gz
RH
25 25 30 27 34 33 34 33 34 34 26 34 32 23 17 16 16 18 18 17 17 18 16 18 47 57 48 36 34 28 31 42 53 69 83 86 89 84 81 80 79 79 81 85
29 31 25 22 25 29 30 32 31 30 28 24 17 17 14 14 18 15 15 17 18 20 28 55 62 66 70 72 72 70 60 37 36 52 65 67 74 81 81 86 86 83 85 84
30 27 27 27 26 29 31 32 29 23 20 16 18 17 14 12 13 17 32 60 69 72 72 68 65 66 67 68 70 69 68 69 63 38 54 69 76 83 94 94 92 90 86 83
30 21 21 21 20 19 23 21 20 22 22 21 21 25 18 15 22 62 72 72 72 72 68 65 66 66 66 67 67 67 68 68 65 64 46 69 68 72 75 79 82 90 90 86
25 24 28 28 24 19 25 21 26 28 30 37 28 34 18 15 43 74 72 69 71 70 71 72 70 69 67 68 71 72 70 69 67 71 60 68 71 66 64 75 83 88 91 87
26 29 26 26 23 25 33 37 37 40 42 40 25 26 23 67 93 88 74 70 72 71 72 70 68 67 72 69 75 76 76 72 71 75 69 72 74 69 69 76 87 88 92 93
39 31 35 36 38 39 35 38 52 55 60 40 34 34 34 90 85 81 84 76 72 67 75 79 76 77 80 81 84 82 80 81 78 81 68 73 75 75 76 76 77 83 90 96
43 36 44 38 39 39 39 39 46 54 48 39 28 31 56 69 63 65 66 68 67 71 74 82 79 81 88 88 89 88 87 86 84 87 88 71 77 78 76 75 74 78 83 89
45 52 41 38 32 32 49 56 36 48 40 50 35 51 69 60 65 65 77 68 75 80 83 89 81 81 82 87 91 91 89 88 88 91 92 84 80 86 84 80 79 82 81 89
53 66 42 34 40 40 40 39 70 62 87 76 49 47 75 90 86 78 83 85 82 84 90 93 92 94 85 87 91 89 88 90 89 90 92 93 88 90 89 88 83 81 83 87
54 53 43 48 48 44 59 60 54 54 54 77 74 86 96 95 92 90 84 82 90 92 95 96 96 96 98 96 92 87 85 87 91 90 91 95 97 94 91 93 86 82 89 91
58 80 76 58 42 52 47 50 78 87 72 81 85 87 86 93 92 90 70 77 72 92 94 96 97 97 96 95 96 90 87 88 89 90 91 94 95 97 97 98 97 95 94 92
74 76 72 61 87 67 62 66 80 98 86 84 90 94 84 93 81 68 78 70 68 74 85 89 94 92 93 86 86 87 86 88 87 88 92 93 95 96 98 98 98 98 98 98
73 80 79 46 32 41 69 74 78 94 92 68 93 93 88 89 73 71 77 70 77 80 86 84 82 85 81 80 86 95 85 89 86 86 89 93 94 95 96 97 97 98 98 98
87 87 86 81 62 66 93 89 89 93 81 84 95 90 92 90 85 83 76 74 74 79 81 88 90 91 84 83 81 80 83 85 95 86 89 93 92 90 92 93 93 93 93 92
92 88 97 96 63 84 90 92 93 94 95 92 92 88 74 74 71 77 80 82 78 82 85 86 85 84 87 88 91 85 84 87 83 90 92 88 90 90 92 92 92 92 92 91
98 95 92 89 85 84 93 96 94 94 87 90 83 79 73 76 76 86 83 84 86 86 87 88 89 89 91 92 91 92 90 88 84 90 95 96 93 97 100 90 91 92 96 92
98 96 89 88 95 92 96 93 75 79 80 74 74 76 77 82 87 88 88 88 85 87 87 83 82 83 89 81 86 77 72 83 91 84 90 95 95 95 99 99 97 99 96 97
100 97 91 95 88 91 92 83 88 86 88 83 79 80 81 85 85 85 83 87 92 93 92 94 92 88 86 88 87 78 78 77 80 87 89 92 95 96 96 96 97 97 94 92
99 99 87 87 86 85 80 72 71 78 91 80 76 77 81 80 80 89 88 88 90 93 93 93 92 85 90 94 87 90 88 87 91 94 93 89 88 91 96 97 98 98 94 96
87 95 90 88 80 80 77 76 78 97 94 83 77 82 84 86 87 91 90 89 89 91 93 91 92 95 95 93 90 93 92 96 94 91 89 91 91 92 93 92 93 99 98 95
91 94 90 86 81 85 76 79 86 90 87 83 85 91 95 93 92 92 91 92 90 92 91 92 94 94 94 93 91 92 95 92 90 89 91 92 92 93 91 91 91 90 92 92
90 92 89 88 83 86 88 91 86 75 84 85 84 85 90 92 94 91 92 88 88 91 91 88 94 92 91 92 93 93 96 87 87 88 91 93 91 89 91 91 91 89 90 89
90 80 79 82 88 88 88 86 82 79 89 84 82 84 83 92 90 92 87 85 84 84 86 82 82 89 92 90 91 94 91 90 86 86 88 90 92 91 92 86 86 88 88 90
87 78 76 88 88 82 86 87 88 91 88 88 86 84 87 83 83 80 82 82 83 82 81 80 81 82 85 82 87 89 87 85 84 83 83 85 81 87 84 87 88 86 93 90
88 89 88 86 79 79 88 91 87 88 90 84 83 84 77 72 74 63 62 58 58 61 59 60 63 66 68 68 74 70 67 69 75 74 67 74 73 74 72 73 72 72 74 75

GFSCGP_sfc_rhum_114.txt.gz
RH
20 20 20 16 16 17 18 18 16 12 13 18 17 14 10 8 7 9 8 10 10 19 29 33 39 39 41 42 45 44 49 48 31 26 44 46 58 58 55 52 53 55 60 68
23 23 16 17 18 19 19 19 17 15 17 16 12 10 8 7 9 11 10 21 38 41 42 44 44 45 48 49 49 51 49 48 48 33 25 40 44 52 53 51 56 58 62 64
19 13 19 19 18 22 20 21 20 18 12 10 11 10 7 10 10 21 39 40 40 45 48 47 48 49 50 52 53 52 51 50 50 52 43 27 42 46 53 63 68 64 62 65
19 14 20 20 20 18 21 14 15 16 16 14 11 17 13 9 15 35 39 43 44 43 42 43 47 50 52 53 54 55 55 54 52 52 51 50 31 43 50 58 65 64 68 69
20 20 21 23 20 17 18 18 19 20 21 22 17 18 15 9 14 43 52 52 47 45 44 45 46 48 47 50 54 59 59 58 58 58 57 55 46 40 41 52 60 66 78 81
18 19 18 17 18 19 18 23 20 22 25 30 17 14 14 22 66 70 63 61 50 46 46 46 45 47 48 48 55 60 63 62 64 68 66 65 63 48 43 46 56 61 79 89
21 22 20 23 23 23 24 27 31 33 40 30 19 24 16 58 61 62 64 58 51 51 53 55 54 52 56 59 63 66 67 72 71 76 75 74 69 60 54 47 52 61 83 89
26 27 24 27 25 24 29 30 30 26 22 18 23 28 25 51 47 47 51 53 54 56 57 60 64 63 63 67 70 73 77 81 78 80 81 79 71 55 50 49 46 54 77 80
29 25 26 32 28 26 29 38 23 36 31 39 25 18 44 50 54 51 56 58 65 64 64 66 65 66 66 76 75 81 87 83 84 85 87 88 77 68 56 56 58 61 73 78
32 40 25 26 29 26 29 27 55 46 70 56 30 28 64 92 78 70 78 75 73 73 76 78 77 82 74 82 83 82 90 85 86 88 89 88 87 85 61 74 78 73 72 71
34 40 31 34 34 29 38 45 42 43 46 59 59 84 96 97 94 88 72 67 86 81 89 98 98 92 95 91 91 90 90 89 89 88 91 93 93 78 67 81 82 74 76 74
36 56 50 38 30 33 29 36 43 65 62 50 64 79 77 89 87 76 59 56 58 75 81 96 99 98 99 97 97 97 95 94 88 87 90 94 93 95 88 84 82 84 80 84
51 52 57 52 80 54 73 51 42 64 80 73 82 89 77 90 69 68 70 59 57 66 73 83 91 95 97 93 97 95 91 96 86 85 89 93 94 94 96 96 97 97 97 98
57 60 72 44 33 33 53 65 68 79 89 63 80 98 88 86 79 72 67 64 69 76 82 82 84 91 92 94 95 97 90 89 88 86 87 93 94 94 94 94 95 96 96 97
67 69 76 71 49 47 70 77 68 92 75 92 95 91 91 89 86 78 82 70 73 78 76 81 87 92 92 92 90 87 87 92 97 88 88 92 91 89 91 93 93 93 93 92
57 75 86 85 58 67 96 86 80 94 80 96 92 86 84 64 70 71 77 78 76 80 83 82 85 86 88 87 92 87 90 93 87 94 96 88 95 91 90 93 92 91 91 90
98 93 94 84 64 81 94 90 94 93 83 88 81 82 75 68 70 82 79 80 84 82 85 83 86 86 88 92 91 91 92 94 92 94 96 95 95 99 98 95 98 95 95 93
99 100 86 78 90 89 99 89 74 75 82 74 76 66 63 72 79 82 81 82 78 80 80 78 78 80 86 75 76 68 63 72 88 89 94 95 95 95 97 96 96 98 97 96
100 97 88 86 70 84 86 84 79 88 86 66 66 67 68 68 65 77 76 82 90 90 87 90 84 82 82 82 78 71 72 70 78 84 88 92 96 97 96 97 98 98 96 95
99 100 92 69 67 72 70 61 60 62 90 69 63 65 68 67 75 86 83 84 85 88 87 87 84 79 87 90 78 90 88 87 91 92 91 86 86 92 95 98 99 99 99 98
85 97 85 70 76 67 62 63 62 94 96 72 64 70 77 79 80 90 85 85 83 84 85 83 85 90 90 89 82 88 91 95 92 91 91 91 91 91 93 94 97 94 94 94
82 86 80 71 73 73 67 69 85 89 77 77 79 90 90 90 89 88 85 82 81 80 80 82 86 90 89 90 88 89 93 87 86 89 91 90 91 91 92 92 95 91 94 94
87 80 70 77 77 76 78 84 73 66 76 78 78 80 86 88 89 87 84 76 78 79 79 76 84 86 88 87 88 90 90 84 82 86 88 87 87 89 89 90 91 87 88 87
83 87 84 78 80 79 79 72 66 66 82 74 74 79 80 88 86 86 78 72 70 69 72 68 67 78 86 85 82 83 82 81 79 81 80 80 82 82 84 82 82 85 88 88
82 80 79 85 81 75 80 83 81 81 80 80 79 79 80 77 80 78 76 75 70 67 66 64 64 63 67 68 71 72 72 70 70 69 74 72 66 72 70 75 73 72 84 81
73 88 82 85 76 76 89 86 77 82 83 76 73 71 64 60 60 50 48 40 36 38 38 38 40 43 43 45 53 48 50 54 60 63 56 61 60 61 59 60 64 66 68 69

GFSCGP_sfc_rhum_117.txt.gz
RH
14 16 17 14 13 12 14 15 14 10 8 9 12 12 9 7 6 7 6 6 7 14 24 27 31 33 36 38 40 38 42 44 41 38 27 31 47 49 52 58 54 54 55 63
16 22 16 11 12 15 17 15 13 10 9 11 13 12 7 7 7 6 7 8 22 28 27 29 32 35 40 41 43 45 44 43 43 38 36 30 30 36 44 49 55 56 56 60
17 16 12 14 14 17 16 15 15 14 12 10 10 11 9 7 7 8 21 26 26 30 33 33 33 35 38 41 45 45 46 46 47 48 43 39 39 35 43 53 54 55 57 60
14 11 13 13 16 14 17 11 13 14 15 17 12 19 14 11 9 15 25 33 36 36 34 34 36 37 39 40 43 45 47 49 48 50 50 52 44 37 33 47 54 53 60 60
17 13 17 17 14 13 18 14 16 17 18 20 16 17 14 11 11 22 36 39 39 36 37 38 39 40 38 39 43 48 51 52 51 53 58 58 56 47 42 40 54 59 61 64
16 13 14 14 13 14 14 17 19 20 21 30 20 18 16 24 45 40 40 41 40 39 39 40 40 43 43 43 47 52 54 53 54 57 61 67 69 61 53 50 47 60 61 63
17 16 14 17 19 16 20 25 36 37 32 31 17 17 16 37 41 46 46 44 43 44 44 45 47 49 52 53 54 55 56 59 58 61 63 67 70 70 65 59 55 59 63 66
29 36 17 16 22 18 17 23 34 39 33 24 12 20 26 36 35 39 44 46 49 51 50 53 57 57 60 62 62 64 64 66 63 67 68 70 73 74 65 59 54 59 54 61
25 21 16 21 18 20 21 25 20 33 30 36 22 15 30 40 46 47 52 51 58 58 62 62 61 64 66 69 71 72 74 73 73 78 81 81 79 80 76 66 60 54 57 56
26 36 16 16 20 21 26 17 39 38 60 48 25 21 68 91 73 64 68 62 62 64 68 70 72 75 74 82 79 75 79 76 78 82 84 83 84 83 80 73 65 60 58 58
19 33 26 22 25 26 23 35 31 30 45 57 58 86 92 93 89 84 65 57 73 73 76 94 96 84 93 87 85 82 86 81 84 87 87 89 89 89 87 79 71 64 64 62
25 42 43 26 17 19 22 27 32 58 48 53 47 70 69 82 79 66 64 63 52 66 69 85 98 98 100 99 99 96 95 91 96 93 88 91 91 91 91 87 68 67 67 64
33 40 51 38 37 39 51 39 28 43 61 67 84 82 69 77 64 64 72 62 61 63 64 68 86 94 99 94 97 96 97 97 98 90 90 90 92 92 93 94 94 95 79 78
44 54 68 52 59 42 53 45 44 48 68 53 65 98 89 86 75 69 77 78 76 70 74 73 81 89 92 96 98 97 96 97 98 94 87 91 91 91 92 92 92 93 92 92
48 62 71 54 39 36 47 55 52 80 64 89 88 83 88 90 80 85 85 81 78 79 78 83 88 89 86 90 96 96 96 97 98 98 92 93 89 87 89 91 91 91 92 91
44 69 80 79 48 52 76 70 60 85 86 86 88 87 84 74 75 80 84 85 82 82 85 84 82 75 82 88 96 92 95 97 96 95 97 95 94 89 89 90 90 89 90 90
69 92 89 84 48 60 89 94 84 92 74 85 83 80 78 80 75 86 83 84 86 84 79 76 81 84 84 85 78 84 89 96 95 95 97 97 98 97 96 93 93 93 94 91
97 100 79 75 70 85 96 74 70 83 79 67 68 80 72 69 80 84 82 85 78 77 77 76 76 75 77 66 69 64 60 69 83 85 92 96 95 96 98 97 96 96 96 95
83 92 91 84 66 79 81 79 76 88 81 71 65 61 61 63 63 81 77 74 83 82 78 82 76 71 74 71 66 66 67 68 78 85 86 87 91 95 97 97 98 98 98 96
62 83 92 74 66 69 67 53 48 52 93 57 54 60 62 59 86 89 80 76 76 79 80 81 80 70 83 87 66 86 84 83 90 90 87 81 82 88 92 94 96 97 99 99
97 99 88 70 73 73 50 49 53 93 93 61 55 60 68 77 88 89 79 76 73 78 79 78 82 88 90 89 83 87 87 91 90 87 86 86 86 87 87 87 90 93 91 89
65 82 84 64 80 83 56 56 76 85 69 64 73 96 94 91 88 84 80 78 76 74 75 78 84 89 88 85 86 88 90 85 84 83 84 86 84 89 86 86 87 87 86 87
75 68 83 72 79 74 69 77 66 62 71 74 77 77 86 86 85 82 76 66 68 74 74 72 82 84 85 82 83 86 85 81 81 81 82 83 85 84 84 86 88 84 85 83
70 63 67 71 76 73 72 63 59 62 73 69 68 73 75 85 82 78 70 62 59 56 60 54 57 74 81 80 77 78 77 77 77 80 80 82 80 86 85 77 79 83 86 86
75 66 71 81 75 69 75 73 75 74 72 73 72 73 78 74 75 72 73 66 58 55 54 50 51 49 54 58 66 70 71 70 75 75 79 80 68 79 77 80 74 73 82 77
64 94 82 95 72 71 86 80 72 77 78 70 68 66 61 62 60 49 40 31 26 29 28 28 30 32 32 38 45 42 45 48 57 58 56 62 61 62 62 62 64 65 67 66

GFSCGP_sfc_rhum_120.txt.gz
RH
17 21 22 17 16 15 15 16 16 14 12 12 13 11 9 9 10 10 8 8 10 11 26 27 34 35 37 41 45 46 51 56 53 52 54 52 50 47 65 65 67 68 70 80
18 23 16 15 16 16 15 17 19 16 11 12 12 12 10 10 10 9 8 12 25 27 29 31 33 36 42 43 46 47 47 51 52 51 51 55 57 55 55 60 66 66 70 72
24 19 14 15 15 16 17 19 20 16 13 11 13 15 13 10 10 9 16 24 30 34 35 35 36 41 44 46 47 44 47 49 53 57 52 51 52 51 52 52 54 67 66 69
18 14 15 16 15 15 20 14 14 15 18 21 13 22 16 13 12 12 31 38 37 36 36 36 38 41 44 46 49 50 50 51 50 56 58 64 64 66 61 60 53 60 66 65
21 16 15 15 16 15 16 14 17 17 20 22 20 21 19 16 17 43 40 39 38 38 40 41 42 43 43 47 50 54 55 52 54 56 61 62 67 66 62 62 62 61 63 69
14 10 13 14 14 14 14 17 18 19 22 34 23 22 21 31 41 44 40 39 42 43 43 44 44 46 48 50 54 57 58 56 57 60 62 65 67 67 72 72 71 67 71 69
18 17 13 13 18 17 17 24 40 41 40 40 21 22 50 43 42 44 47 47 47 48 50 52 53 55 56 57 59 59 60 62 61 63 65 65 67 70 71 74 75 74 71 75
26 31 19 16 19 23 22 22 38 45 47 38 22 27 45 37 40 46 46 48 50 53 56 59 61 60 63 63 62 66 70 71 66 68 68 68 70 72 70 70 74 74 73 69
31 27 14 16 17 19 25 30 19 34 30 42 29 21 44 51 54 52 52 53 59 60 63 66 64 68 70 70 72 73 78 76 76 77 78 77 76 76 77 76 76 77 74 68
27 40 21 19 15 18 23 20 43 37 54 53 31 34 86 87 74 66 66 65 62 65 70 74 78 80 78 78 81 85 83 87 87 84 85 82 82 80 79 80 82 82 78 76
20 26 27 22 24 23 25 34 32 32 36 55 63 76 94 93 87 79 66 60 72 74 80 89 94 87 91 89 93 93 90 94 92 88 87 87 86 86 85 87 87 85 83 80
24 35 47 34 20 16 18 23 28 62 55 39 49 80 72 81 75 63 62 60 60 72 80 95 99 98 99 99 99 99 97 96 98 96 86 88 88 87 89 91 93 91 86 81
28 39 52 36 31 22 23 31 32 39 60 63 77 86 71 67 63 65 70 68 66 75 85 89 94 96 97 96 99 99 98 97 99 98 93 89 91 91 92 91 91 91 92 94
48 47 65 55 52 45 69 79 44 45 63 54 67 94 82 73 70 73 74 74 79 89 92 89 90 94 95 96 99 98 97 98 99 99 97 92 94 93 92 90 88 90 89 91
43 56 66 52 38 32 43 47 39 68 52 73 84 89 84 82 84 89 80 83 83 89 86 90 94 94 88 90 95 97 96 96 98 97 97 98 97 89 87 88 88 87 92 96
41 61 76 78 45 46 59 56 46 66 73 84 84 76 74 80 88 83 87 89 89 91 88 87 82 75 82 80 90 88 95 96 97 96 98 98 99 93 88 88 89 92 92 92
65 86 74 72 49 55 74 81 79 73 62 61 76 75 82 88 85 90 89 90 91 79 75 73 74 76 79 72 73 74 74 82 88 94 95 96 96 97 98 94 90 93 94 90
91 89 67 78 68 83 86 63 57 67 71 81 72 81 80 79 88 91 90 84 75 74 74 74 76 73 76 63 67 64 62 70 79 82 86 88 94 96 97 97 94 96 96 94
78 80 88 87 64 77 73 67 71 83 86 64 70 76 74 74 74 88 71 71 80 84 83 88 82 74 81 79 70 69 73 72 76 78 81 80 84 88 89 93 95 97 96 96
66 76 90 70 92 86 71 53 48 56 89 64 60 64 68 71 92 94 76 71 76 86 87 88 88 80 88 89 77 86 86 85 86 87 78 78 76 82 88 91 91 88 89 95
85 92 90 74 82 79 50 48 46 87 91 64 57 62 69 79 88 89 75 74 72 84 86 86 89 92 91 88 85 88 86 90 87 82 83 79 80 82 82 84 86 86 86 85
70 80 77 70 83 83 46 50 72 82 69 69 82 91 96 94 91 88 86 84 78 81 86 88 91 90 88 85 85 85 89 86 84 83 81 86 84 83 83 83 85 85 85 87
74 72 86 91 87 72 68 79 66 61 76 81 83 82 88 90 89 84 79 68 74 82 84 84 92 90 88 83 82 82 82 88 82 82 83 81 87 85 84 85 85 83 84 86
64 57 68 73 75 72 69 60 60 65 80 73 73 76 77 87 84 83 71 61 58 55 61 56 67 84 86 86 79 80 79 77 85 79 81 81 79 90 86 83 84 84 85 86
72 62 68 84 75 69 70 79 77 76 76 74 72 74 79 76 77 76 76 67 64 63 61 57 56 53 64 64 70 72 71 72 73 77 77 78 74 78 87 89 84 85 83 76
63 94 81 89 72 70 87 87 75 77 78 69 70 68 63 63 65 56 47 35 29 32 30 30 34 37 40 46 54 52 54 58 64 67 67 71 72 73 72 74 80 69 73 67

GFSCGP_sfc_rhum_126.txt.gz
RH
31 34 40 33 28 24 24 26 28 26 19 23 24 28 20 15 23 41 51 52 51 50 46 48 48 50 53 55 55 56 58 59 59 60 64 62 66 64 64 67 68 77 82 85
30 40 29 27 27 29 30 32 32 24 20 21 25 21 21 26 52 52 54 56 56 55 53 50 53 56 58 59 59 58 57 58 58 58 60 62 64 63 64 64 69 75 77 78
31 27 24 25 28 29 28 31 28 29 24 23 25 24 25 36 46 49 53 54 56 59 61 60 59 61 61 63 63 60 60 59 60 60 58 60 60 61 66 68 68 68 70 74
34 26 28 29 32 25 29 23 26 26 29 36 25 40 28 44 57 57 58 63 66 65 63 63 64 65 65 65 63 63 62 62 57 62 65 68 72 74 68 69 68 66 70 74
38 34 32 29 25 23 28 27 27 31 34 36 34 38 31 50 66 68 64 62 68 68 67 67 67 64 64 67 69 69 68 65 62 63 66 72 73 71 69 70 69 68 68 71
30 27 22 22 20 21 22 28 33 36 38 49 32 35 39 78 70 69 65 64 67 67 70 70 68 68 72 73 74 74 72 72 69 70 70 73 76 75 75 74 75 73 71 73
30 26 20 20 25 25 27 37 62 63 67 58 34 40 78 71 67 69 72 73 72 72 79 82 83 82 80 80 73 66 70 75 71 69 70 74 76 77 79 77 76 75 75 77
43 45 29 26 29 30 32 39 59 65 70 59 35 47 85 64 61 63 67 74 76 83 85 87 85 85 81 76 72 79 79 77 70 70 71 74 79 81 80 78 76 76 76 72
46 39 28 22 24 30 40 44 35 49 52 62 50 88 66 66 74 74 71 76 86 90 90 90 87 77 79 77 79 91 85 82 76 75 81 85 87 83 84 80 78 79 77 74
43 54 35 27 26 28 32 29 53 71 66 63 53 57 92 94 85 74 81 90 94 90 90 91 86 85 86 81 85 94 92 88 90 90 89 92 95 88 85 83 83 84 84 84
32 46 44 34 36 36 40 47 48 53 59 68 80 82 90 92 92 90 79 81 94 95 97 96 93 90 89 90 90 98 96 96 93 89 95 96 96 94 87 84 86 87 87 87
41 56 61 44 35 32 38 44 51 70 56 60 58 71 84 90 89 79 73 68 70 85 94 96 96 95 93 94 95 94 91 93 92 90 92 96 97 96 92 90 90 88 87 86
44 58 74 55 52 56 62 67 67 74 75 68 79 82 88 91 80 75 80 76 80 78 93 93 93 95 95 94 93 92 95 95 92 93 94 95 97 96 97 93 90 88 87 86
57 63 70 58 54 63 68 55 51 78 99 80 87 86 96 89 75 74 78 87 96 96 93 94 91 94 92 86 91 95 95 96 94 96 95 95 97 98 97 96 90 89 88 88
60 63 79 70 57 55 62 63 56 71 57 92 83 87 90 87 85 79 92 91 88 90 89 83 90 91 86 85 85 83 85 90 94 96 95 96 96 97 98 95 94 94 94 95
62 76 88 86 57 66 74 62 59 68 70 85 92 95 88 89 90 92 90 91 91 80 77 76 75 78 81 84 85 81 83 86 80 87 88 90 92 94 96 97 95 95 95 95
76 84 91 88 64 73 89 79 75 80 67 60 78 78 93 94 85 92 92 90 86 77 76 75 80 81 87 89 81 85 83 82 78 82 82 84 87 90 91 87 91 92 94 94
87 84 87 94 84 95 74 76 74 80 79 80 87 90 81 90 95 95 91 85 76 71 76 77 84 85 88 84 82 76 76 78 78 77 81 79 84 87 88 88 88 90 90 92
75 87 92 92 94 75 82 75 83 86 83 78 89 88 90 90 87 94 79 80 89 92 91 97 96 89 89 87 83 80 82 81 82 81 81 77 80 83 85 90 92 90 90 90
76 76 82 98 97 95 80 77 64 68 92 79 78 86 88 90 94 97 82 78 84 93 95 96 95 88 92 92 86 92 92 88 93 93 85 78 75 82 85 87 89 88 88 89
87 91 85 86 88 81 70 62 63 88 80 80 78 82 87 93 96 93 84 82 84 91 92 94 95 97 97 94 92 92 92 93 94 94 86 86 84 84 85 83 84 86 86 86
87 94 94 94 96 86 72 63 84 83 91 82 80 84 90 98 94 89 89 91 90 92 91 92 93 95 93 92 94 93 94 94 92 94 95 92 92 91 91 87 85 83 85 87
94 81 91 85 81 84 86 85 83 84 89 87 82 85 91 94 92 90 92 88 89 90 93 94 93 92 93 92 92 90 94 93 90 90 94 98 95 93 94 92 89 86 84 86
94 75 89 87 93 92 85 88 88 88 92 88 85 85 84 89 89 91 88 82 82 87 90 88 84 90 92 92 89 92 90 91 92 89 90 90 93 95 97 94 89 86 83 84
89 80 89 93 90 84 80 90 94 94 90 88 84 82 84 82 86 85 88 85 82 83 84 80 80 80 88 88 90 92 87 87 90 89 90 91 88 91 89 93 96 92 80 72
88 88 93 91 83 83 91 94 90 92 92 85 83 81 73 73 78 72 73 66 65 68 59 61 64 68 73 75 80 80 72 74 85 82 80 87 87 89 88 92 86 72 67 63

GFSCGP_sfc_rhum_132.txt.gz
RH
35 36 39 32 31 31 32 36 38 32 25 32 31 30 70 64 69 74 73 72 70 68 62 58 58 60 63 65 68 67 70 70 68 68 72 67 67 68 68 65 70 78 74 85
29 39 31 31 34 34 39 44 43 37 31 31 31 32 81 71 72 72 72 76 75 72 67 62 62 66 71 72 75 74 72 71 68 69 71 70 70 69 68 68 68 72 77 74
37 29 29 30 35 38 43 44 43 39 31 30 32 35 72 67 64 62 68 71 72 76 77 73 69 74 77 80 82 74 70 68 69 70 70 71 71 71 73 73 72 69 69 74
41 33 32 38 36 36 51 37 37 36 33 38 33 43 36 74 73 69 72 80 82 80 77 76 77 79 82 82 77 67 66 71 67 67 71 72 74 78 74 77 74 74 75 75
48 38 43 42 39 36 41 32 32 34 37 41 41 42 54 76 79 78 79 77 83 83 84 84 84 84 82 72 65 72 68 69 62 62 64 69 72 71 70 71 71 69 70 75
41 34 29 31 29 27 28 31 36 48 44 52 39 38 46 84 71 80 77 80 81 86 86 84 82 73 69 64 69 76 73 68 66 72 69 66 70 69 70 70 73 79 76 75
43 37 29 27 35 31 30 37 60 61 61 51 43 46 37 73 75 72 77 85 89 87 89 94 83 81 73 77 84 79 77 80 76 73 76 77 78 80 82 81 83 81 80 79
52 44 32 29 30 33 36 40 55 54 66 53 47 54 45 75 71 76 78 84 85 88 92 96 81 88 80 85 84 79 84 78 75 74 77 78 79 86 88 83 87 86 83 81
45 41 33 27 28 30 41 45 40 47 56 67 47 48 76 79 83 85 88 87 95 94 95 96 85 91 90 84 90 90 84 80 78 82 81 78 82 94 95 94 94 91 86 81
40 48 40 32 30 33 37 34 56 72 71 67 58 56 59 91 88 88 91 95 96 94 94 96 95 94 91 91 90 91 91 87 87 87 81 82 84 96 95 95 96 96 94 90
44 45 46 37 37 40 40 46 52 55 58 73 67 76 76 77 85 90 91 92 96 96 98 98 97 94 94 93 91 93 93 91 90 86 90 92 94 96 95 95 96 96 96 95
41 57 58 42 44 46 41 43 53 75 55 62 73 64 89 92 93 85 88 87 95 95 96 98 97 96 95 96 92 92 90 90 91 89 94 95 95 94 95 96 95 96 95 96
46 53 70 56 52 53 49 52 52 71 77 56 82 72 87 92 88 84 92 90 89 90 93 96 94 96 97 95 93 93 90 90 89 93 95 95 94 95 96 96 96 94 93 96
55 56 68 57 55 61 68 63 69 67 84 54 63 63 76 96 90 89 93 95 96 94 93 91 94 93 92 92 92 93 91 90 89 88 89 93 95 96 96 96 95 94 91 92
56 53 76 64 54 59 57 61 64 76 54 74 59 67 54 81 90 88 92 93 93 93 82 83 88 91 87 86 91 85 89 89 88 88 89 90 88 88 89 90 90 89 92 92
63 82 82 76 55 59 71 74 68 65 66 72 72 67 54 72 91 94 94 94 93 85 75 73 72 72 76 78 82 78 86 89 85 89 89 88 87 88 89 89 88 88 87 89
80 91 86 86 67 68 81 80 72 80 72 63 69 59 90 96 89 94 96 90 88 72 70 70 76 80 82 86 78 86 81 83 83 87 87 88 87 88 90 88 88 91 92 90
84 84 77 82 78 84 67 70 69 75 73 71 65 84 90 92 99 96 92 89 74 68 67 72 82 81 88 84 84 76 72 74 78 79 86 86 89 88 89 90 91 90 91 92
75 85 89 87 82 71 58 70 84 90 77 79 85 96 96 94 90 96 85 80 84 89 95 98 96 90 90 89 83 80 80 77 77 80 82 81 86 89 89 92 93 91 90 91
75 83 83 92 94 93 67 74 69 67 87 85 87 89 94 87 98 96 90 82 88 95 96 96 95 89 93 95 86 94 96 92 94 89 85 82 77 85 89 91 92 91 89 90
90 93 79 87 88 81 58 72 66 81 74 90 86 87 90 93 95 93 86 86 89 93 95 93 93 95 97 96 93 96 98 98 99 92 86 88 90 85 89 85 88 89 89 86
82 86 96 82 94 88 70 74 75 75 91 89 89 90 93 100 97 92 90 92 91 93 94 93 94 96 97 96 93 97 98 97 97 96 95 95 95 94 93 90 89 90 87 88
85 77 88 75 77 72 75 75 81 84 86 88 89 89 95 96 95 89 88 84 87 90 92 92 93 96 98 97 96 96 98 96 95 94 96 96 94 96 96 96 92 92 86 89
89 80 89 78 76 78 75 85 85 86 84 87 87 87 87 92 88 85 81 79 81 84 86 85 91 96 98 98 96 97 97 95 92 95 97 95 95 94 95 92 88 91 90 89
92 87 88 91 86 77 81 85 86 90 89 90 89 87 88 84 80 78 81 79 82 83 80 81 84 86 95 94 95 96 96 91 90 91 92 93 89 96 95 93 92 83 83 77
93 92 95 91 80 78 87 91 88 92 94 91 88 90 83 73 71 68 71 69 73 73 74 78 77 79 85 85 85 79 79 77 85 79 81 93 90 93 88 93 88 72 64 61

GFSCGP_sfc_rhum_135.txt.gz
RH
28 22 25 25 26 24 24 26 27 25 22 26 26 24 33 53 52 54 53 52 51 51 48 47 50 51 53 55 57 56 58 61 57 54 58 55 56 56 53 53 57 61 62 65
27 32 26 26 26 26 30 32 32 29 27 28 24 24 43 52 55 55 55 55 54 52 50 51 51 53 58 58 59 56 55 58 57 54 54 57 58 55 57 57 60 63 64 66
40 31 27 27 29 31 33 34 34 31 27 21 22 21 41 54 54 55 57 57 57 58 57 56 56 58 57 58 59 56 58 57 56 58 50 52 52 54 57 59 59 60 64 66
34 28 27 28 28 29 38 30 30 33 26 26 23 26 24 48 52 54 55 58 59 60 56 56 58 59 58 57 55 57 61 56 54 57 59 62 62 64 61 62 61 62 65 66
36 34 39 40 36 32 33 31 27 24 24 28 26 25 31 58 44 47 53 57 61 61 59 60 62 58 56 55 56 60 60 58 60 63 65 66 65 61 60 63 67 67 65 65
36 27 26 26 27 28 25 25 30 35 30 36 27 26 20 36 36 52 54 58 63 62 60 61 61 58 58 57 59 60 62 62 63 66 64 67 69 70 70 72 72 72 70 69
46 42 26 26 31 25 25 32 41 41 40 35 31 30 24 31 52 51 54 60 64 63 61 62 61 60 61 61 61 61 64 67 65 65 66 67 67 71 77 79 79 79 79 76
48 36 32 27 36 40 32 34 40 45 41 30 36 35 25 50 55 60 61 63 67 64 62 63 63 63 62 62 62 65 69 70 66 67 68 66 67 70 78 78 82 88 94 92
38 32 25 24 25 25 35 34 31 35 43 45 29 30 43 64 63 64 64 68 70 68 65 68 65 64 59 61 64 71 73 70 71 72 71 67 69 76 80 80 86 92 93 94
40 40 31 25 24 28 32 29 44 48 53 48 33 34 45 70 57 67 71 72 75 73 73 74 72 68 61 62 64 70 69 74 78 74 71 70 77 80 88 89 90 91 94 97
36 38 36 28 31 31 32 38 42 41 41 46 51 68 86 88 64 68 69 72 81 78 82 87 83 72 77 74 76 82 84 83 82 74 74 84 90 93 93 92 94 94 95 97
38 52 44 34 34 35 31 35 39 52 42 42 49 66 62 72 81 69 67 66 68 76 80 78 84 88 88 91 89 89 83 82 82 75 80 92 94 92 93 93 94 95 96 96
45 46 51 43 38 38 38 38 42 54 56 47 65 71 74 78 69 65 66 65 66 72 72 66 75 83 90 86 89 90 87 87 84 80 83 88 90 91 95 94 95 94 95 95
57 50 72 49 44 46 52 49 47 46 58 42 57 63 56 57 59 63 67 66 70 72 73 67 67 75 80 84 90 90 87 86 85 86 85 87 91 92 92 90 91 90 84 88
57 50 73 52 44 43 45 48 52 68 45 60 56 58 56 55 58 63 69 75 77 78 67 66 72 75 76 76 80 77 80 86 86 87 88 90 87 86 87 87 82 83 84 86
56 69 72 80 47 49 63 58 51 68 61 69 69 60 44 42 60 72 78 81 80 78 66 64 63 59 65 64 71 66 73 83 79 88 90 86 85 89 88 88 84 85 83 87
70 88 88 78 54 56 72 68 69 59 51 49 52 40 48 63 71 80 83 80 81 70 59 56 63 67 71 69 66 66 67 73 73 82 86 87 86 90 91 84 87 89 91 90
90 93 91 77 65 76 72 52 49 54 50 51 45 47 64 71 86 84 79 79 72 62 57 57 60 68 74 64 60 56 55 56 65 66 76 85 89 90 89 91 90 90 90 91
69 75 76 75 67 58 46 51 65 74 56 53 56 69 86 88 78 92 74 70 74 69 75 86 83 78 76 70 64 61 60 60 58 64 66 66 82 88 90 92 90 86 86 88
65 70 74 82 87 80 51 55 58 58 79 60 67 75 84 76 85 82 81 72 76 88 88 90 87 77 88 86 74 88 80 79 81 78 72 63 63 72 84 86 88 83 83 84
84 87 83 74 76 63 47 61 56 72 68 71 72 74 81 83 77 88 81 74 75 89 91 88 90 92 91 91 87 94 93 94 93 84 75 79 73 77 76 75 78 79 77 78
69 80 78 66 90 80 60 64 62 67 76 73 77 88 92 94 96 94 88 88 84 87 90 90 93 94 93 92 91 95 96 95 92 90 88 87 85 84 86 85 80 78 77 78
69 64 70 65 63 62 63 63 66 67 70 77 75 78 88 95 95 90 83 71 79 87 88 88 92 95 94 91 89 94 95 92 92 91 93 90 87 86 85 85 84 76 77 74
74 67 71 68 74 65 61 64 68 70 75 72 71 78 79 89 91 87 74 67 69 73 80 79 86 94 96 94 89 90 91 88 88 88 89 89 86 85 87 74 73 76 78 77
79 75 73 78 78 70 68 73 72 79 77 78 79 79 81 78 83 78 76 70 71 73 73 73 76 79 88 85 90 88 85 79 77 79 80 71 69 78 76 80 70 67 76 69
83 92 88 81 75 70 88 76 77 81 84 77 76 79 72 68 71 61 59 56 57 59 62 64 66 70 75 72 70 65 61 63 64 62 61 63 63 62 62 61 68 67 65 62